<?xml version="1.0" encoding="UTF-8" standalone="no" ?>
<gpx xmlns="http://www.topografix.com/GPX/1/1" xmlns:xsi="http://www.w3.org/2001/XMLSchema-instance" xsi:schemaLocation="http://www.topografix.com/GPX/1/1 http://www.topografix.com/GPX/1/1/gpx.xsd" version="1.1" creator="VisuGPX - https://www.visugpx.com">
  <metadata>
    <name>Etape1</name>
  </metadata>
  <trk>
    <name><![CDATA[villard sur doron-21957534]]></name>
    <trkseg>
      <trkpt lat="45.72682" lon="6.53234">
        <ele>709</ele>
        <time>2025-07-20T15:53:02Z</time>
      </trkpt>
      <trkpt lat="45.72687" lon="6.53251">
        <ele>709</ele>
        <time>2025-07-20T15:53:04Z</time>
      </trkpt>
      <trkpt lat="45.72691" lon="6.53269">
        <ele>710</ele>
        <time>2025-07-20T15:53:07Z</time>
      </trkpt>
      <trkpt lat="45.72693" lon="6.53283">
        <ele>710</ele>
        <time>2025-07-20T15:53:08Z</time>
      </trkpt>
      <trkpt lat="45.72693" lon="6.53303">
        <ele>710</ele>
        <time>2025-07-20T15:53:11Z</time>
      </trkpt>
      <trkpt lat="45.72693" lon="6.53327">
        <ele>710</ele>
        <time>2025-07-20T15:53:14Z</time>
      </trkpt>
      <trkpt lat="45.72688" lon="6.53367">
        <ele>712</ele>
        <time>2025-07-20T15:53:19Z</time>
      </trkpt>
      <trkpt lat="45.72677" lon="6.53437">
        <ele>715</ele>
        <time>2025-07-20T15:53:28Z</time>
      </trkpt>
      <trkpt lat="45.72676" lon="6.53446">
        <ele>715</ele>
        <time>2025-07-20T15:53:29Z</time>
      </trkpt>
      <trkpt lat="45.72674" lon="6.53452">
        <ele>715</ele>
        <time>2025-07-20T15:53:30Z</time>
      </trkpt>
      <trkpt lat="45.72672" lon="6.53465">
        <ele>716</ele>
        <time>2025-07-20T15:53:31Z</time>
      </trkpt>
      <trkpt lat="45.72669" lon="6.53482">
        <ele>716</ele>
        <time>2025-07-20T15:53:34Z</time>
      </trkpt>
      <trkpt lat="45.72662" lon="6.53504">
        <ele>716</ele>
        <time>2025-07-20T15:53:37Z</time>
      </trkpt>
      <trkpt lat="45.72654" lon="6.53522">
        <ele>716</ele>
        <time>2025-07-20T15:53:39Z</time>
      </trkpt>
      <trkpt lat="45.72648" lon="6.53533">
        <ele>716</ele>
        <time>2025-07-20T15:53:41Z</time>
      </trkpt>
      <trkpt lat="45.72632" lon="6.53554">
        <ele>715</ele>
        <time>2025-07-20T15:53:45Z</time>
      </trkpt>
      <trkpt lat="45.72612" lon="6.53576">
        <ele>714</ele>
        <time>2025-07-20T15:53:49Z</time>
      </trkpt>
      <trkpt lat="45.726" lon="6.53592">
        <ele>714</ele>
        <time>2025-07-20T15:53:52Z</time>
      </trkpt>
      <trkpt lat="45.72595" lon="6.53601">
        <ele>714</ele>
        <time>2025-07-20T15:53:54Z</time>
      </trkpt>
      <trkpt lat="45.7259" lon="6.53609">
        <ele>713</ele>
        <time>2025-07-20T15:53:55Z</time>
      </trkpt>
      <trkpt lat="45.72584" lon="6.53624">
        <ele>713</ele>
        <time>2025-07-20T15:53:57Z</time>
      </trkpt>
      <trkpt lat="45.72575" lon="6.53644">
        <ele>713</ele>
        <time>2025-07-20T15:54:00Z</time>
      </trkpt>
      <trkpt lat="45.72559" lon="6.53692">
        <ele>714</ele>
        <time>2025-07-20T15:54:07Z</time>
      </trkpt>
      <trkpt lat="45.72533" lon="6.53769">
        <ele>713</ele>
        <time>2025-07-20T15:54:17Z</time>
      </trkpt>
      <trkpt lat="45.72524" lon="6.53794">
        <ele>712</ele>
        <time>2025-07-20T15:54:21Z</time>
      </trkpt>
      <trkpt lat="45.7252" lon="6.53811">
        <ele>711</ele>
        <time>2025-07-20T15:54:23Z</time>
      </trkpt>
      <trkpt lat="45.72517" lon="6.5383">
        <ele>711</ele>
        <time>2025-07-20T15:54:26Z</time>
      </trkpt>
      <trkpt lat="45.72515" lon="6.53865">
        <ele>709</ele>
        <time>2025-07-20T15:54:30Z</time>
      </trkpt>
      <trkpt lat="45.72515" lon="6.53905">
        <ele>708</ele>
        <time>2025-07-20T15:54:35Z</time>
      </trkpt>
      <trkpt lat="45.7252" lon="6.54018">
        <ele>706</ele>
        <time>2025-07-20T15:54:49Z</time>
      </trkpt>
      <trkpt lat="45.72522" lon="6.54034">
        <ele>706</ele>
        <time>2025-07-20T15:54:51Z</time>
      </trkpt>
      <trkpt lat="45.72525" lon="6.54057">
        <ele>705</ele>
        <time>2025-07-20T15:54:54Z</time>
      </trkpt>
      <trkpt lat="45.72528" lon="6.54074">
        <ele>705</ele>
        <time>2025-07-20T15:54:56Z</time>
      </trkpt>
      <trkpt lat="45.72532" lon="6.54087">
        <ele>704</ele>
        <time>2025-07-20T15:54:58Z</time>
      </trkpt>
      <trkpt lat="45.7254" lon="6.54112">
        <ele>703</ele>
        <time>2025-07-20T15:55:01Z</time>
      </trkpt>
      <trkpt lat="45.72549" lon="6.54131">
        <ele>703</ele>
        <time>2025-07-20T15:55:04Z</time>
      </trkpt>
      <trkpt lat="45.72558" lon="6.54146">
        <ele>702</ele>
        <time>2025-07-20T15:55:07Z</time>
      </trkpt>
      <trkpt lat="45.72578" lon="6.54178">
        <ele>701</ele>
        <time>2025-07-20T15:55:12Z</time>
      </trkpt>
      <trkpt lat="45.72583" lon="6.54185">
        <ele>701</ele>
        <time>2025-07-20T15:55:13Z</time>
      </trkpt>
      <trkpt lat="45.72616" lon="6.54236">
        <ele>708</ele>
        <time>2025-07-20T15:55:22Z</time>
      </trkpt>
      <trkpt lat="45.72636" lon="6.54273">
        <ele>711</ele>
        <time>2025-07-20T15:55:28Z</time>
      </trkpt>
      <trkpt lat="45.72651" lon="6.54308">
        <ele>712</ele>
        <time>2025-07-20T15:55:33Z</time>
      </trkpt>
      <trkpt lat="45.72657" lon="6.54329">
        <ele>711</ele>
        <time>2025-07-20T15:55:35Z</time>
      </trkpt>
      <trkpt lat="45.72663" lon="6.54355">
        <ele>711</ele>
        <time>2025-07-20T15:55:39Z</time>
      </trkpt>
      <trkpt lat="45.72669" lon="6.5438">
        <ele>713</ele>
        <time>2025-07-20T15:55:42Z</time>
      </trkpt>
      <trkpt lat="45.72675" lon="6.54421">
        <ele>715</ele>
        <time>2025-07-20T15:55:47Z</time>
      </trkpt>
      <trkpt lat="45.72682" lon="6.54474">
        <ele>718</ele>
        <time>2025-07-20T15:55:54Z</time>
      </trkpt>
      <trkpt lat="45.72685" lon="6.54507">
        <ele>718</ele>
        <time>2025-07-20T15:55:58Z</time>
      </trkpt>
      <trkpt lat="45.72685" lon="6.54537">
        <ele>717</ele>
        <time>2025-07-20T15:56:02Z</time>
      </trkpt>
      <trkpt lat="45.72683" lon="6.54556">
        <ele>715</ele>
        <time>2025-07-20T15:56:04Z</time>
      </trkpt>
      <trkpt lat="45.72679" lon="6.54579">
        <ele>712</ele>
        <time>2025-07-20T15:56:07Z</time>
      </trkpt>
      <trkpt lat="45.72676" lon="6.54592">
        <ele>711</ele>
        <time>2025-07-20T15:56:09Z</time>
      </trkpt>
      <trkpt lat="45.72666" lon="6.54623">
        <ele>705</ele>
        <time>2025-07-20T15:56:13Z</time>
      </trkpt>
      <trkpt lat="45.72648" lon="6.5466">
        <ele>703</ele>
        <time>2025-07-20T15:56:19Z</time>
      </trkpt>
      <trkpt lat="45.72645" lon="6.54665">
        <ele>703</ele>
        <time>2025-07-20T15:56:20Z</time>
      </trkpt>
      <trkpt lat="45.72639" lon="6.54675">
        <ele>703</ele>
        <time>2025-07-20T15:56:21Z</time>
      </trkpt>
      <trkpt lat="45.72621" lon="6.54706">
        <ele>704</ele>
        <time>2025-07-20T15:56:26Z</time>
      </trkpt>
      <trkpt lat="45.72605" lon="6.54733">
        <ele>704</ele>
        <time>2025-07-20T15:56:31Z</time>
      </trkpt>
      <trkpt lat="45.726" lon="6.54744">
        <ele>704</ele>
        <time>2025-07-20T15:56:32Z</time>
      </trkpt>
      <trkpt lat="45.72596" lon="6.54758">
        <ele>704</ele>
        <time>2025-07-20T15:56:34Z</time>
      </trkpt>
      <trkpt lat="45.72593" lon="6.5477">
        <ele>704</ele>
        <time>2025-07-20T15:56:36Z</time>
      </trkpt>
      <trkpt lat="45.7259" lon="6.54788">
        <ele>703</ele>
        <time>2025-07-20T15:56:38Z</time>
      </trkpt>
      <trkpt lat="45.72585" lon="6.5484">
        <ele>702</ele>
        <time>2025-07-20T15:56:45Z</time>
      </trkpt>
      <trkpt lat="45.72577" lon="6.54937">
        <ele>698</ele>
        <time>2025-07-20T15:56:57Z</time>
      </trkpt>
      <trkpt lat="45.7257" lon="6.54999">
        <ele>697</ele>
        <time>2025-07-20T15:57:04Z</time>
      </trkpt>
      <trkpt lat="45.72567" lon="6.55018">
        <ele>697</ele>
        <time>2025-07-20T15:57:07Z</time>
      </trkpt>
      <trkpt lat="45.7256" lon="6.55057">
        <ele>697</ele>
        <time>2025-07-20T15:57:12Z</time>
      </trkpt>
      <trkpt lat="45.72552" lon="6.55089">
        <ele>698</ele>
        <time>2025-07-20T15:57:16Z</time>
      </trkpt>
      <trkpt lat="45.72542" lon="6.55125">
        <ele>698</ele>
        <time>2025-07-20T15:57:21Z</time>
      </trkpt>
      <trkpt lat="45.72533" lon="6.5515">
        <ele>698</ele>
        <time>2025-07-20T15:57:24Z</time>
      </trkpt>
      <trkpt lat="45.72516" lon="6.5519">
        <ele>698</ele>
        <time>2025-07-20T15:57:30Z</time>
      </trkpt>
      <trkpt lat="45.72501" lon="6.55222">
        <ele>696</ele>
        <time>2025-07-20T15:57:35Z</time>
      </trkpt>
      <trkpt lat="45.72485" lon="6.5525">
        <ele>696</ele>
        <time>2025-07-20T15:57:40Z</time>
      </trkpt>
      <trkpt lat="45.72462" lon="6.55288">
        <ele>698</ele>
        <time>2025-07-20T15:57:46Z</time>
      </trkpt>
      <trkpt lat="45.72457" lon="6.55297">
        <ele>698</ele>
        <time>2025-07-20T15:57:47Z</time>
      </trkpt>
      <trkpt lat="45.72396" lon="6.55393">
        <ele>699</ele>
        <time>2025-07-20T15:58:03Z</time>
      </trkpt>
      <trkpt lat="45.72195" lon="6.55712">
        <ele>705</ele>
        <time>2025-07-20T15:58:57Z</time>
      </trkpt>
      <trkpt lat="45.72161" lon="6.55768">
        <ele>705</ele>
        <time>2025-07-20T15:59:06Z</time>
      </trkpt>
      <trkpt lat="45.72152" lon="6.55786">
        <ele>705</ele>
        <time>2025-07-20T15:59:09Z</time>
      </trkpt>
      <trkpt lat="45.72146" lon="6.558">
        <ele>705</ele>
        <time>2025-07-20T15:59:11Z</time>
      </trkpt>
      <trkpt lat="45.72113" lon="6.5588">
        <ele>705</ele>
        <time>2025-07-20T15:59:22Z</time>
      </trkpt>
      <trkpt lat="45.72076" lon="6.55974">
        <ele>707</ele>
        <time>2025-07-20T15:59:36Z</time>
      </trkpt>
      <trkpt lat="45.72043" lon="6.56065">
        <ele>712</ele>
        <time>2025-07-20T15:59:48Z</time>
      </trkpt>
      <trkpt lat="45.72035" lon="6.56084">
        <ele>713</ele>
        <time>2025-07-20T15:59:51Z</time>
      </trkpt>
      <trkpt lat="45.72031" lon="6.56096">
        <ele>713</ele>
        <time>2025-07-20T15:59:53Z</time>
      </trkpt>
      <trkpt lat="45.71988" lon="6.56206">
        <ele>713</ele>
        <time>2025-07-20T16:00:08Z</time>
      </trkpt>
      <trkpt lat="45.71979" lon="6.56232">
        <ele>714</ele>
        <time>2025-07-20T16:00:12Z</time>
      </trkpt>
      <trkpt lat="45.71969" lon="6.56264">
        <ele>716</ele>
        <time>2025-07-20T16:00:16Z</time>
      </trkpt>
      <trkpt lat="45.71962" lon="6.56301">
        <ele>718</ele>
        <time>2025-07-20T16:00:21Z</time>
      </trkpt>
      <trkpt lat="45.71954" lon="6.56359">
        <ele>721</ele>
        <time>2025-07-20T16:00:29Z</time>
      </trkpt>
      <trkpt lat="45.71954" lon="6.56381">
        <ele>722</ele>
        <time>2025-07-20T16:00:31Z</time>
      </trkpt>
      <trkpt lat="45.71954" lon="6.56406">
        <ele>723</ele>
        <time>2025-07-20T16:00:34Z</time>
      </trkpt>
      <trkpt lat="45.71956" lon="6.56437">
        <ele>725</ele>
        <time>2025-07-20T16:00:38Z</time>
      </trkpt>
      <trkpt lat="45.71961" lon="6.56489">
        <ele>727</ele>
        <time>2025-07-20T16:00:45Z</time>
      </trkpt>
      <trkpt lat="45.71959" lon="6.5655">
        <ele>727</ele>
        <time>2025-07-20T16:00:52Z</time>
      </trkpt>
      <trkpt lat="45.7196" lon="6.56562">
        <ele>728</ele>
        <time>2025-07-20T16:00:54Z</time>
      </trkpt>
      <trkpt lat="45.71966" lon="6.56612">
        <ele>728</ele>
        <time>2025-07-20T16:01:00Z</time>
      </trkpt>
      <trkpt lat="45.71969" lon="6.56658">
        <ele>727</ele>
        <time>2025-07-20T16:01:06Z</time>
      </trkpt>
      <trkpt lat="45.7197" lon="6.56683">
        <ele>727</ele>
        <time>2025-07-20T16:01:09Z</time>
      </trkpt>
      <trkpt lat="45.71976" lon="6.56767">
        <ele>728</ele>
        <time>2025-07-20T16:01:19Z</time>
      </trkpt>
      <trkpt lat="45.71977" lon="6.56783">
        <ele>728</ele>
        <time>2025-07-20T16:01:21Z</time>
      </trkpt>
      <trkpt lat="45.71986" lon="6.569">
        <ele>727</ele>
        <time>2025-07-20T16:01:36Z</time>
      </trkpt>
      <trkpt lat="45.71992" lon="6.56986">
        <ele>725</ele>
        <time>2025-07-20T16:01:47Z</time>
      </trkpt>
      <trkpt lat="45.72" lon="6.57121">
        <ele>729</ele>
        <time>2025-07-20T16:02:04Z</time>
      </trkpt>
      <trkpt lat="45.72001" lon="6.57162">
        <ele>730</ele>
        <time>2025-07-20T16:02:09Z</time>
      </trkpt>
      <trkpt lat="45.71999" lon="6.57191">
        <ele>730</ele>
        <time>2025-07-20T16:02:12Z</time>
      </trkpt>
      <trkpt lat="45.71994" lon="6.57205">
        <ele>731</ele>
        <time>2025-07-20T16:02:14Z</time>
      </trkpt>
      <trkpt lat="45.71991" lon="6.57208">
        <ele>731</ele>
        <time>2025-07-20T16:02:15Z</time>
      </trkpt>
      <trkpt lat="45.71989" lon="6.57213">
        <ele>731</ele>
        <time>2025-07-20T16:02:16Z</time>
      </trkpt>
      <trkpt lat="45.71989" lon="6.57219">
        <ele>731</ele>
        <time>2025-07-20T16:02:16Z</time>
      </trkpt>
      <trkpt lat="45.71987" lon="6.57227">
        <ele>731</ele>
        <time>2025-07-20T16:02:18Z</time>
      </trkpt>
      <trkpt lat="45.71975" lon="6.57262">
        <ele>733</ele>
        <time>2025-07-20T16:02:22Z</time>
      </trkpt>
      <trkpt lat="45.71957" lon="6.57301">
        <ele>735</ele>
        <time>2025-07-20T16:02:28Z</time>
      </trkpt>
      <trkpt lat="45.71949" lon="6.57315">
        <ele>735</ele>
        <time>2025-07-20T16:02:30Z</time>
      </trkpt>
      <trkpt lat="45.71937" lon="6.57324">
        <ele>734</ele>
        <time>2025-07-20T16:02:33Z</time>
      </trkpt>
      <trkpt lat="45.7192" lon="6.57333">
        <ele>733</ele>
        <time>2025-07-20T16:02:36Z</time>
      </trkpt>
      <trkpt lat="45.71909" lon="6.57343">
        <ele>734</ele>
        <time>2025-07-20T16:02:38Z</time>
      </trkpt>
      <trkpt lat="45.71902" lon="6.57353">
        <ele>735</ele>
        <time>2025-07-20T16:02:40Z</time>
      </trkpt>
      <trkpt lat="45.71893" lon="6.57371">
        <ele>736</ele>
        <time>2025-07-20T16:02:43Z</time>
      </trkpt>
      <trkpt lat="45.71886" lon="6.57379">
        <ele>736</ele>
        <time>2025-07-20T16:02:44Z</time>
      </trkpt>
      <trkpt lat="45.71885" lon="6.57383">
        <ele>736</ele>
        <time>2025-07-20T16:02:45Z</time>
      </trkpt>
      <trkpt lat="45.71881" lon="6.57384">
        <ele>736</ele>
        <time>2025-07-20T16:02:46Z</time>
      </trkpt>
      <trkpt lat="45.71879" lon="6.57387">
        <ele>736</ele>
        <time>2025-07-20T16:02:46Z</time>
      </trkpt>
      <trkpt lat="45.71877" lon="6.57391">
        <ele>736</ele>
        <time>2025-07-20T16:02:47Z</time>
      </trkpt>
      <trkpt lat="45.71877" lon="6.57397">
        <ele>737</ele>
        <time>2025-07-20T16:02:48Z</time>
      </trkpt>
      <trkpt lat="45.71872" lon="6.57409">
        <ele>737</ele>
        <time>2025-07-20T16:02:49Z</time>
      </trkpt>
      <trkpt lat="45.71868" lon="6.57418">
        <ele>737</ele>
        <time>2025-07-20T16:02:51Z</time>
      </trkpt>
      <trkpt lat="45.71841" lon="6.57455">
        <ele>738</ele>
        <time>2025-07-20T16:02:57Z</time>
      </trkpt>
      <trkpt lat="45.71835" lon="6.57464">
        <ele>738</ele>
        <time>2025-07-20T16:02:59Z</time>
      </trkpt>
      <trkpt lat="45.71813" lon="6.57493">
        <ele>741</ele>
        <time>2025-07-20T16:03:04Z</time>
      </trkpt>
      <trkpt lat="45.71809" lon="6.57499">
        <ele>741</ele>
        <time>2025-07-20T16:03:05Z</time>
      </trkpt>
      <trkpt lat="45.71794" lon="6.57517">
        <ele>743</ele>
        <time>2025-07-20T16:03:09Z</time>
      </trkpt>
      <trkpt lat="45.7179" lon="6.57522">
        <ele>744</ele>
        <time>2025-07-20T16:03:10Z</time>
      </trkpt>
      <trkpt lat="45.71783" lon="6.5753">
        <ele>744</ele>
        <time>2025-07-20T16:03:11Z</time>
      </trkpt>
      <trkpt lat="45.71775" lon="6.57538">
        <ele>745</ele>
        <time>2025-07-20T16:03:13Z</time>
      </trkpt>
      <trkpt lat="45.71757" lon="6.5755">
        <ele>745</ele>
        <time>2025-07-20T16:03:16Z</time>
      </trkpt>
      <trkpt lat="45.71746" lon="6.57556">
        <ele>746</ele>
        <time>2025-07-20T16:03:19Z</time>
      </trkpt>
      <trkpt lat="45.7174" lon="6.57558">
        <ele>746</ele>
        <time>2025-07-20T16:03:20Z</time>
      </trkpt>
      <trkpt lat="45.71732" lon="6.57562">
        <ele>747</ele>
        <time>2025-07-20T16:03:21Z</time>
      </trkpt>
      <trkpt lat="45.71708" lon="6.57579">
        <ele>749</ele>
        <time>2025-07-20T16:03:26Z</time>
      </trkpt>
      <trkpt lat="45.71683" lon="6.57599">
        <ele>753</ele>
        <time>2025-07-20T16:03:31Z</time>
      </trkpt>
      <trkpt lat="45.71673" lon="6.57605">
        <ele>754</ele>
        <time>2025-07-20T16:03:33Z</time>
      </trkpt>
      <trkpt lat="45.71666" lon="6.57607">
        <ele>755</ele>
        <time>2025-07-20T16:03:34Z</time>
      </trkpt>
      <trkpt lat="45.71646" lon="6.5761">
        <ele>758</ele>
        <time>2025-07-20T16:03:38Z</time>
      </trkpt>
      <trkpt lat="45.71632" lon="6.57617">
        <ele>761</ele>
        <time>2025-07-20T16:03:40Z</time>
      </trkpt>
      <trkpt lat="45.71621" lon="6.5762">
        <ele>762</ele>
        <time>2025-07-20T16:03:42Z</time>
      </trkpt>
      <trkpt lat="45.71585" lon="6.57625">
        <ele>766</ele>
        <time>2025-07-20T16:03:49Z</time>
      </trkpt>
      <trkpt lat="45.71565" lon="6.57627">
        <ele>767</ele>
        <time>2025-07-20T16:03:52Z</time>
      </trkpt>
      <trkpt lat="45.71549" lon="6.57626">
        <ele>768</ele>
        <time>2025-07-20T16:03:55Z</time>
      </trkpt>
      <trkpt lat="45.71532" lon="6.57625">
        <ele>768</ele>
        <time>2025-07-20T16:03:58Z</time>
      </trkpt>
      <trkpt lat="45.71522" lon="6.57625">
        <ele>768</ele>
        <time>2025-07-20T16:04:00Z</time>
      </trkpt>
      <trkpt lat="45.71504" lon="6.57627">
        <ele>769</ele>
        <time>2025-07-20T16:04:03Z</time>
      </trkpt>
      <trkpt lat="45.71498" lon="6.57629">
        <ele>769</ele>
        <time>2025-07-20T16:04:04Z</time>
      </trkpt>
      <trkpt lat="45.71475" lon="6.57643">
        <ele>771</ele>
        <time>2025-07-20T16:04:09Z</time>
      </trkpt>
      <trkpt lat="45.71462" lon="6.57654">
        <ele>770</ele>
        <time>2025-07-20T16:04:12Z</time>
      </trkpt>
      <trkpt lat="45.71455" lon="6.57661">
        <ele>769</ele>
        <time>2025-07-20T16:04:13Z</time>
      </trkpt>
      <trkpt lat="45.71446" lon="6.57676">
        <ele>770</ele>
        <time>2025-07-20T16:04:16Z</time>
      </trkpt>
      <trkpt lat="45.71445" lon="6.57681">
        <ele>771</ele>
        <time>2025-07-20T16:04:16Z</time>
      </trkpt>
      <trkpt lat="45.71443" lon="6.57686">
        <ele>771</ele>
        <time>2025-07-20T16:04:17Z</time>
      </trkpt>
      <trkpt lat="45.7144" lon="6.57699">
        <ele>773</ele>
        <time>2025-07-20T16:04:19Z</time>
      </trkpt>
      <trkpt lat="45.71426" lon="6.57791">
        <ele>782</ele>
        <time>2025-07-20T16:04:30Z</time>
      </trkpt>
      <trkpt lat="45.7143" lon="6.57791">
        <ele>783</ele>
        <time>2025-07-20T16:04:31Z</time>
      </trkpt>
      <trkpt lat="45.71431" lon="6.57791">
        <ele>783</ele>
        <time>2025-07-20T16:04:31Z</time>
      </trkpt>
      <trkpt lat="45.71434" lon="6.57787">
        <ele>783</ele>
        <time>2025-07-20T16:04:32Z</time>
      </trkpt>
      <trkpt lat="45.71437" lon="6.57779">
        <ele>783</ele>
        <time>2025-07-20T16:04:33Z</time>
      </trkpt>
      <trkpt lat="45.71448" lon="6.57733">
        <ele>778</ele>
        <time>2025-07-20T16:04:39Z</time>
      </trkpt>
      <trkpt lat="45.7145" lon="6.57715">
        <ele>776</ele>
        <time>2025-07-20T16:04:41Z</time>
      </trkpt>
      <trkpt lat="45.71454" lon="6.57707">
        <ele>775</ele>
        <time>2025-07-20T16:04:43Z</time>
      </trkpt>
      <trkpt lat="45.71458" lon="6.57702">
        <ele>774</ele>
        <time>2025-07-20T16:04:44Z</time>
      </trkpt>
      <trkpt lat="45.71464" lon="6.577">
        <ele>774</ele>
        <time>2025-07-20T16:04:45Z</time>
      </trkpt>
      <trkpt lat="45.71475" lon="6.57701">
        <ele>775</ele>
        <time>2025-07-20T16:04:47Z</time>
      </trkpt>
      <trkpt lat="45.7153" lon="6.57723">
        <ele>782</ele>
        <time>2025-07-20T16:04:57Z</time>
      </trkpt>
      <trkpt lat="45.71537" lon="6.57723">
        <ele>782</ele>
        <time>2025-07-20T16:04:58Z</time>
      </trkpt>
      <trkpt lat="45.71545" lon="6.57721">
        <ele>781</ele>
        <time>2025-07-20T16:04:59Z</time>
      </trkpt>
      <trkpt lat="45.71559" lon="6.57711">
        <ele>779</ele>
        <time>2025-07-20T16:05:02Z</time>
      </trkpt>
      <trkpt lat="45.71573" lon="6.57704">
        <ele>777</ele>
        <time>2025-07-20T16:05:05Z</time>
      </trkpt>
      <trkpt lat="45.71585" lon="6.57701">
        <ele>776</ele>
        <time>2025-07-20T16:05:07Z</time>
      </trkpt>
      <trkpt lat="45.71608" lon="6.57698">
        <ele>775</ele>
        <time>2025-07-20T16:05:11Z</time>
      </trkpt>
      <trkpt lat="45.71617" lon="6.57698">
        <ele>774</ele>
        <time>2025-07-20T16:05:13Z</time>
      </trkpt>
      <trkpt lat="45.71628" lon="6.57701">
        <ele>775</ele>
        <time>2025-07-20T16:05:15Z</time>
      </trkpt>
      <trkpt lat="45.71639" lon="6.57707">
        <ele>777</ele>
        <time>2025-07-20T16:05:17Z</time>
      </trkpt>
      <trkpt lat="45.7165" lon="6.57717">
        <ele>780</ele>
        <time>2025-07-20T16:05:19Z</time>
      </trkpt>
      <trkpt lat="45.71677" lon="6.57752">
        <ele>791</ele>
        <time>2025-07-20T16:05:26Z</time>
      </trkpt>
      <trkpt lat="45.71683" lon="6.57758">
        <ele>794</ele>
        <time>2025-07-20T16:05:27Z</time>
      </trkpt>
      <trkpt lat="45.71695" lon="6.5777">
        <ele>798</ele>
        <time>2025-07-20T16:05:30Z</time>
      </trkpt>
      <trkpt lat="45.71698" lon="6.57775">
        <ele>800</ele>
        <time>2025-07-20T16:05:30Z</time>
      </trkpt>
      <trkpt lat="45.71699" lon="6.57781">
        <ele>802</ele>
        <time>2025-07-20T16:05:31Z</time>
      </trkpt>
      <trkpt lat="45.71699" lon="6.57786">
        <ele>804</ele>
        <time>2025-07-20T16:05:32Z</time>
      </trkpt>
      <trkpt lat="45.71696" lon="6.57791">
        <ele>805</ele>
        <time>2025-07-20T16:05:33Z</time>
      </trkpt>
      <trkpt lat="45.71692" lon="6.57794">
        <ele>807</ele>
        <time>2025-07-20T16:05:33Z</time>
      </trkpt>
      <trkpt lat="45.71687" lon="6.57794">
        <ele>807</ele>
        <time>2025-07-20T16:05:34Z</time>
      </trkpt>
      <trkpt lat="45.71681" lon="6.57792">
        <ele>806</ele>
        <time>2025-07-20T16:05:35Z</time>
      </trkpt>
      <trkpt lat="45.71653" lon="6.57773">
        <ele>799</ele>
        <time>2025-07-20T16:05:41Z</time>
      </trkpt>
      <trkpt lat="45.71646" lon="6.57771">
        <ele>798</ele>
        <time>2025-07-20T16:05:42Z</time>
      </trkpt>
      <trkpt lat="45.7164" lon="6.57771">
        <ele>797</ele>
        <time>2025-07-20T16:05:43Z</time>
      </trkpt>
      <trkpt lat="45.71629" lon="6.57774">
        <ele>798</ele>
        <time>2025-07-20T16:05:45Z</time>
      </trkpt>
      <trkpt lat="45.71619" lon="6.57782">
        <ele>801</ele>
        <time>2025-07-20T16:05:47Z</time>
      </trkpt>
      <trkpt lat="45.7161" lon="6.5779">
        <ele>803</ele>
        <time>2025-07-20T16:05:49Z</time>
      </trkpt>
      <trkpt lat="45.71604" lon="6.57798">
        <ele>805</ele>
        <time>2025-07-20T16:05:51Z</time>
      </trkpt>
      <trkpt lat="45.71599" lon="6.57806">
        <ele>808</ele>
        <time>2025-07-20T16:05:52Z</time>
      </trkpt>
      <trkpt lat="45.71587" lon="6.57834">
        <ele>815</ele>
        <time>2025-07-20T16:05:56Z</time>
      </trkpt>
      <trkpt lat="45.71582" lon="6.57843">
        <ele>816</ele>
        <time>2025-07-20T16:05:57Z</time>
      </trkpt>
      <trkpt lat="45.71576" lon="6.57849">
        <ele>817</ele>
        <time>2025-07-20T16:05:59Z</time>
      </trkpt>
      <trkpt lat="45.71569" lon="6.57854">
        <ele>818</ele>
        <time>2025-07-20T16:06:00Z</time>
      </trkpt>
      <trkpt lat="45.7156" lon="6.57858">
        <ele>818</ele>
        <time>2025-07-20T16:06:02Z</time>
      </trkpt>
      <trkpt lat="45.71548" lon="6.57862">
        <ele>818</ele>
        <time>2025-07-20T16:06:04Z</time>
      </trkpt>
      <trkpt lat="45.71501" lon="6.57866">
        <ele>817</ele>
        <time>2025-07-20T16:06:12Z</time>
      </trkpt>
      <trkpt lat="45.71495" lon="6.57869">
        <ele>816</ele>
        <time>2025-07-20T16:06:13Z</time>
      </trkpt>
      <trkpt lat="45.71492" lon="6.57871">
        <ele>815</ele>
        <time>2025-07-20T16:06:14Z</time>
      </trkpt>
      <trkpt lat="45.7149" lon="6.57877">
        <ele>815</ele>
        <time>2025-07-20T16:06:15Z</time>
      </trkpt>
      <trkpt lat="45.7149" lon="6.57884">
        <ele>817</ele>
        <time>2025-07-20T16:06:16Z</time>
      </trkpt>
      <trkpt lat="45.71491" lon="6.57889">
        <ele>818</ele>
        <time>2025-07-20T16:06:16Z</time>
      </trkpt>
      <trkpt lat="45.71495" lon="6.57893">
        <ele>820</ele>
        <time>2025-07-20T16:06:17Z</time>
      </trkpt>
      <trkpt lat="45.71499" lon="6.57896">
        <ele>822</ele>
        <time>2025-07-20T16:06:18Z</time>
      </trkpt>
      <trkpt lat="45.71524" lon="6.57903">
        <ele>824</ele>
        <time>2025-07-20T16:06:23Z</time>
      </trkpt>
      <trkpt lat="45.7155" lon="6.57915">
        <ele>827</ele>
        <time>2025-07-20T16:06:27Z</time>
      </trkpt>
      <trkpt lat="45.71558" lon="6.57917">
        <ele>827</ele>
        <time>2025-07-20T16:06:29Z</time>
      </trkpt>
      <trkpt lat="45.71566" lon="6.57917">
        <ele>828</ele>
        <time>2025-07-20T16:06:30Z</time>
      </trkpt>
      <trkpt lat="45.71575" lon="6.57914">
        <ele>827</ele>
        <time>2025-07-20T16:06:32Z</time>
      </trkpt>
      <trkpt lat="45.71585" lon="6.57909">
        <ele>827</ele>
        <time>2025-07-20T16:06:34Z</time>
      </trkpt>
      <trkpt lat="45.71598" lon="6.57901">
        <ele>828</ele>
        <time>2025-07-20T16:06:36Z</time>
      </trkpt>
      <trkpt lat="45.71609" lon="6.57891">
        <ele>827</ele>
        <time>2025-07-20T16:06:39Z</time>
      </trkpt>
      <trkpt lat="45.71633" lon="6.57854">
        <ele>824</ele>
        <time>2025-07-20T16:06:45Z</time>
      </trkpt>
      <trkpt lat="45.71639" lon="6.57849">
        <ele>823</ele>
        <time>2025-07-20T16:06:46Z</time>
      </trkpt>
      <trkpt lat="45.71644" lon="6.57847">
        <ele>823</ele>
        <time>2025-07-20T16:06:47Z</time>
      </trkpt>
      <trkpt lat="45.71651" lon="6.57849">
        <ele>825</ele>
        <time>2025-07-20T16:06:48Z</time>
      </trkpt>
      <trkpt lat="45.71657" lon="6.57854">
        <ele>826</ele>
        <time>2025-07-20T16:06:50Z</time>
      </trkpt>
      <trkpt lat="45.71665" lon="6.57862">
        <ele>829</ele>
        <time>2025-07-20T16:06:51Z</time>
      </trkpt>
      <trkpt lat="45.71698" lon="6.57899">
        <ele>834</ele>
        <time>2025-07-20T16:06:59Z</time>
      </trkpt>
      <trkpt lat="45.71705" lon="6.57909">
        <ele>835</ele>
        <time>2025-07-20T16:07:01Z</time>
      </trkpt>
      <trkpt lat="45.71711" lon="6.57919">
        <ele>837</ele>
        <time>2025-07-20T16:07:02Z</time>
      </trkpt>
      <trkpt lat="45.71747" lon="6.57991">
        <ele>843</ele>
        <time>2025-07-20T16:07:13Z</time>
      </trkpt>
      <trkpt lat="45.71759" lon="6.58013">
        <ele>847</ele>
        <time>2025-07-20T16:07:17Z</time>
      </trkpt>
      <trkpt lat="45.71763" lon="6.58017">
        <ele>848</ele>
        <time>2025-07-20T16:07:18Z</time>
      </trkpt>
      <trkpt lat="45.71769" lon="6.58021">
        <ele>849</ele>
        <time>2025-07-20T16:07:19Z</time>
      </trkpt>
      <trkpt lat="45.71774" lon="6.58022">
        <ele>850</ele>
        <time>2025-07-20T16:07:20Z</time>
      </trkpt>
      <trkpt lat="45.7178" lon="6.58023">
        <ele>850</ele>
        <time>2025-07-20T16:07:21Z</time>
      </trkpt>
      <trkpt lat="45.71805" lon="6.58017">
        <ele>851</ele>
        <time>2025-07-20T16:07:25Z</time>
      </trkpt>
      <trkpt lat="45.71826" lon="6.58011">
        <ele>852</ele>
        <time>2025-07-20T16:07:29Z</time>
      </trkpt>
      <trkpt lat="45.71848" lon="6.58007">
        <ele>852</ele>
        <time>2025-07-20T16:07:33Z</time>
      </trkpt>
      <trkpt lat="45.71863" lon="6.58006">
        <ele>853</ele>
        <time>2025-07-20T16:07:36Z</time>
      </trkpt>
      <trkpt lat="45.71902" lon="6.58011">
        <ele>855</ele>
        <time>2025-07-20T16:07:43Z</time>
      </trkpt>
      <trkpt lat="45.71998" lon="6.58024">
        <ele>865</ele>
        <time>2025-07-20T16:08:00Z</time>
      </trkpt>
      <trkpt lat="45.72009" lon="6.58023">
        <ele>867</ele>
        <time>2025-07-20T16:08:02Z</time>
      </trkpt>
      <trkpt lat="45.72019" lon="6.58018">
        <ele>868</ele>
        <time>2025-07-20T16:08:04Z</time>
      </trkpt>
      <trkpt lat="45.72027" lon="6.58011">
        <ele>868</ele>
        <time>2025-07-20T16:08:05Z</time>
      </trkpt>
      <trkpt lat="45.72037" lon="6.58002">
        <ele>869</ele>
        <time>2025-07-20T16:08:07Z</time>
      </trkpt>
      <trkpt lat="45.72044" lon="6.57998">
        <ele>870</ele>
        <time>2025-07-20T16:08:09Z</time>
      </trkpt>
      <trkpt lat="45.7206" lon="6.57993">
        <ele>871</ele>
        <time>2025-07-20T16:08:12Z</time>
      </trkpt>
      <trkpt lat="45.72092" lon="6.57987">
        <ele>875</ele>
        <time>2025-07-20T16:08:17Z</time>
      </trkpt>
      <trkpt lat="45.72103" lon="6.57987">
        <ele>877</ele>
        <time>2025-07-20T16:08:19Z</time>
      </trkpt>
      <trkpt lat="45.72111" lon="6.57988">
        <ele>879</ele>
        <time>2025-07-20T16:08:21Z</time>
      </trkpt>
      <trkpt lat="45.72129" lon="6.57993">
        <ele>883</ele>
        <time>2025-07-20T16:08:24Z</time>
      </trkpt>
      <trkpt lat="45.72134" lon="6.57993">
        <ele>884</ele>
        <time>2025-07-20T16:08:25Z</time>
      </trkpt>
      <trkpt lat="45.72138" lon="6.5799">
        <ele>884</ele>
        <time>2025-07-20T16:08:26Z</time>
      </trkpt>
      <trkpt lat="45.72144" lon="6.57983">
        <ele>884</ele>
        <time>2025-07-20T16:08:27Z</time>
      </trkpt>
      <trkpt lat="45.72157" lon="6.57956">
        <ele>882</ele>
        <time>2025-07-20T16:08:31Z</time>
      </trkpt>
      <trkpt lat="45.72162" lon="6.57951">
        <ele>883</ele>
        <time>2025-07-20T16:08:32Z</time>
      </trkpt>
      <trkpt lat="45.72167" lon="6.57946">
        <ele>883</ele>
        <time>2025-07-20T16:08:33Z</time>
      </trkpt>
      <trkpt lat="45.72195" lon="6.57928">
        <ele>886</ele>
        <time>2025-07-20T16:08:39Z</time>
      </trkpt>
      <trkpt lat="45.72215" lon="6.57915">
        <ele>888</ele>
        <time>2025-07-20T16:08:43Z</time>
      </trkpt>
      <trkpt lat="45.72233" lon="6.57906">
        <ele>890</ele>
        <time>2025-07-20T16:08:46Z</time>
      </trkpt>
      <trkpt lat="45.72243" lon="6.57904">
        <ele>891</ele>
        <time>2025-07-20T16:08:48Z</time>
      </trkpt>
      <trkpt lat="45.7227" lon="6.57904">
        <ele>895</ele>
        <time>2025-07-20T16:08:53Z</time>
      </trkpt>
      <trkpt lat="45.72279" lon="6.57902">
        <ele>896</ele>
        <time>2025-07-20T16:08:54Z</time>
      </trkpt>
      <trkpt lat="45.72323" lon="6.57883">
        <ele>899</ele>
        <time>2025-07-20T16:09:03Z</time>
      </trkpt>
      <trkpt lat="45.72362" lon="6.57872">
        <ele>901</ele>
        <time>2025-07-20T16:09:10Z</time>
      </trkpt>
      <trkpt lat="45.72365" lon="6.5787">
        <ele>901</ele>
        <time>2025-07-20T16:09:10Z</time>
      </trkpt>
      <trkpt lat="45.7238" lon="6.57859">
        <ele>900</ele>
        <time>2025-07-20T16:09:13Z</time>
      </trkpt>
      <trkpt lat="45.72387" lon="6.57855">
        <ele>900</ele>
        <time>2025-07-20T16:09:15Z</time>
      </trkpt>
      <trkpt lat="45.72396" lon="6.57854">
        <ele>901</ele>
        <time>2025-07-20T16:09:16Z</time>
      </trkpt>
      <trkpt lat="45.72411" lon="6.57859">
        <ele>903</ele>
        <time>2025-07-20T16:09:19Z</time>
      </trkpt>
      <trkpt lat="45.72452" lon="6.57879">
        <ele>912</ele>
        <time>2025-07-20T16:09:27Z</time>
      </trkpt>
      <trkpt lat="45.72458" lon="6.57884">
        <ele>914</ele>
        <time>2025-07-20T16:09:28Z</time>
      </trkpt>
      <trkpt lat="45.72463" lon="6.57891">
        <ele>915</ele>
        <time>2025-07-20T16:09:29Z</time>
      </trkpt>
      <trkpt lat="45.72473" lon="6.57916">
        <ele>920</ele>
        <time>2025-07-20T16:09:33Z</time>
      </trkpt>
      <trkpt lat="45.72478" lon="6.57931">
        <ele>923</ele>
        <time>2025-07-20T16:09:35Z</time>
      </trkpt>
      <trkpt lat="45.72484" lon="6.57939">
        <ele>925</ele>
        <time>2025-07-20T16:09:36Z</time>
      </trkpt>
      <trkpt lat="45.7249" lon="6.57944">
        <ele>927</ele>
        <time>2025-07-20T16:09:37Z</time>
      </trkpt>
      <trkpt lat="45.72498" lon="6.57947">
        <ele>928</ele>
        <time>2025-07-20T16:09:39Z</time>
      </trkpt>
      <trkpt lat="45.72511" lon="6.57945">
        <ele>930</ele>
        <time>2025-07-20T16:09:41Z</time>
      </trkpt>
      <trkpt lat="45.72534" lon="6.57932">
        <ele>932</ele>
        <time>2025-07-20T16:09:46Z</time>
      </trkpt>
      <trkpt lat="45.72555" lon="6.57922">
        <ele>934</ele>
        <time>2025-07-20T16:09:50Z</time>
      </trkpt>
      <trkpt lat="45.72573" lon="6.57905">
        <ele>935</ele>
        <time>2025-07-20T16:09:53Z</time>
      </trkpt>
      <trkpt lat="45.72577" lon="6.57899">
        <ele>936</ele>
        <time>2025-07-20T16:09:54Z</time>
      </trkpt>
      <trkpt lat="45.7258" lon="6.57892">
        <ele>936</ele>
        <time>2025-07-20T16:09:55Z</time>
      </trkpt>
      <trkpt lat="45.72581" lon="6.57885">
        <ele>936</ele>
        <time>2025-07-20T16:09:56Z</time>
      </trkpt>
      <trkpt lat="45.7258" lon="6.57878">
        <ele>935</ele>
        <time>2025-07-20T16:09:57Z</time>
      </trkpt>
      <trkpt lat="45.72578" lon="6.57849">
        <ele>933</ele>
        <time>2025-07-20T16:10:01Z</time>
      </trkpt>
      <trkpt lat="45.72577" lon="6.57824">
        <ele>931</ele>
        <time>2025-07-20T16:10:04Z</time>
      </trkpt>
      <trkpt lat="45.72595" lon="6.5776">
        <ele>937</ele>
        <time>2025-07-20T16:10:12Z</time>
      </trkpt>
      <trkpt lat="45.72607" lon="6.57704">
        <ele>941</ele>
        <time>2025-07-20T16:10:20Z</time>
      </trkpt>
      <trkpt lat="45.72614" lon="6.57679">
        <ele>943</ele>
        <time>2025-07-20T16:10:23Z</time>
      </trkpt>
      <trkpt lat="45.7262" lon="6.57648">
        <ele>945</ele>
        <time>2025-07-20T16:10:27Z</time>
      </trkpt>
      <trkpt lat="45.72621" lon="6.57636">
        <ele>945</ele>
        <time>2025-07-20T16:10:29Z</time>
      </trkpt>
      <trkpt lat="45.72621" lon="6.57625">
        <ele>945</ele>
        <time>2025-07-20T16:10:30Z</time>
      </trkpt>
      <trkpt lat="45.72619" lon="6.5759">
        <ele>945</ele>
        <time>2025-07-20T16:10:34Z</time>
      </trkpt>
      <trkpt lat="45.72617" lon="6.57561">
        <ele>945</ele>
        <time>2025-07-20T16:10:38Z</time>
      </trkpt>
      <trkpt lat="45.72615" lon="6.57544">
        <ele>945</ele>
        <time>2025-07-20T16:10:40Z</time>
      </trkpt>
      <trkpt lat="45.72608" lon="6.57514">
        <ele>944</ele>
        <time>2025-07-20T16:10:44Z</time>
      </trkpt>
      <trkpt lat="45.72608" lon="6.57505">
        <ele>945</ele>
        <time>2025-07-20T16:10:45Z</time>
      </trkpt>
      <trkpt lat="45.72608" lon="6.57494">
        <ele>944</ele>
        <time>2025-07-20T16:10:46Z</time>
      </trkpt>
      <trkpt lat="45.7261" lon="6.57474">
        <ele>943</ele>
        <time>2025-07-20T16:10:49Z</time>
      </trkpt>
      <trkpt lat="45.72615" lon="6.57433">
        <ele>941</ele>
        <time>2025-07-20T16:10:54Z</time>
      </trkpt>
      <trkpt lat="45.72617" lon="6.57426">
        <ele>941</ele>
        <time>2025-07-20T16:10:55Z</time>
      </trkpt>
      <trkpt lat="45.72622" lon="6.5742">
        <ele>941</ele>
        <time>2025-07-20T16:10:56Z</time>
      </trkpt>
      <trkpt lat="45.72626" lon="6.57416">
        <ele>941</ele>
        <time>2025-07-20T16:10:57Z</time>
      </trkpt>
      <trkpt lat="45.72654" lon="6.57405">
        <ele>942</ele>
        <time>2025-07-20T16:11:02Z</time>
      </trkpt>
      <trkpt lat="45.7269" lon="6.57388">
        <ele>940</ele>
        <time>2025-07-20T16:11:09Z</time>
      </trkpt>
      <trkpt lat="45.72702" lon="6.57384">
        <ele>940</ele>
        <time>2025-07-20T16:11:11Z</time>
      </trkpt>
      <trkpt lat="45.72709" lon="6.57383">
        <ele>940</ele>
        <time>2025-07-20T16:11:12Z</time>
      </trkpt>
      <trkpt lat="45.72779" lon="6.57391">
        <ele>949</ele>
        <time>2025-07-20T16:11:25Z</time>
      </trkpt>
      <trkpt lat="45.72786" lon="6.5739">
        <ele>949</ele>
        <time>2025-07-20T16:11:26Z</time>
      </trkpt>
      <trkpt lat="45.72792" lon="6.57389">
        <ele>949</ele>
        <time>2025-07-20T16:11:27Z</time>
      </trkpt>
      <trkpt lat="45.72798" lon="6.57387">
        <ele>949</ele>
        <time>2025-07-20T16:11:28Z</time>
      </trkpt>
      <trkpt lat="45.72819" lon="6.57373">
        <ele>946</ele>
        <time>2025-07-20T16:11:33Z</time>
      </trkpt>
      <trkpt lat="45.72828" lon="6.57368">
        <ele>946</ele>
        <time>2025-07-20T16:11:34Z</time>
      </trkpt>
      <trkpt lat="45.72838" lon="6.57364">
        <ele>945</ele>
        <time>2025-07-20T16:11:36Z</time>
      </trkpt>
      <trkpt lat="45.72845" lon="6.57363">
        <ele>945</ele>
        <time>2025-07-20T16:11:37Z</time>
      </trkpt>
      <trkpt lat="45.72859" lon="6.57364">
        <ele>945</ele>
        <time>2025-07-20T16:11:40Z</time>
      </trkpt>
      <trkpt lat="45.72897" lon="6.57374">
        <ele>948</ele>
        <time>2025-07-20T16:11:47Z</time>
      </trkpt>
      <trkpt lat="45.72908" lon="6.57377">
        <ele>949</ele>
        <time>2025-07-20T16:11:49Z</time>
      </trkpt>
      <trkpt lat="45.72924" lon="6.57385">
        <ele>952</ele>
        <time>2025-07-20T16:11:52Z</time>
      </trkpt>
      <trkpt lat="45.72933" lon="6.57388">
        <ele>955</ele>
        <time>2025-07-20T16:11:53Z</time>
      </trkpt>
      <trkpt lat="45.72942" lon="6.57388">
        <ele>957</ele>
        <time>2025-07-20T16:11:55Z</time>
      </trkpt>
      <trkpt lat="45.72952" lon="6.57388">
        <ele>959</ele>
        <time>2025-07-20T16:11:57Z</time>
      </trkpt>
      <trkpt lat="45.72961" lon="6.57386">
        <ele>960</ele>
        <time>2025-07-20T16:11:58Z</time>
      </trkpt>
      <trkpt lat="45.7299" lon="6.57375">
        <ele>961</ele>
        <time>2025-07-20T16:12:04Z</time>
      </trkpt>
      <trkpt lat="45.73029" lon="6.57357">
        <ele>964</ele>
        <time>2025-07-20T16:12:11Z</time>
      </trkpt>
      <trkpt lat="45.73034" lon="6.57354">
        <ele>964</ele>
        <time>2025-07-20T16:12:12Z</time>
      </trkpt>
      <trkpt lat="45.73045" lon="6.57347">
        <ele>964</ele>
        <time>2025-07-20T16:12:14Z</time>
      </trkpt>
      <trkpt lat="45.7306" lon="6.57338">
        <ele>964</ele>
        <time>2025-07-20T16:12:17Z</time>
      </trkpt>
      <trkpt lat="45.73075" lon="6.57332">
        <ele>965</ele>
        <time>2025-07-20T16:12:20Z</time>
      </trkpt>
      <trkpt lat="45.7309" lon="6.57328">
        <ele>966</ele>
        <time>2025-07-20T16:12:22Z</time>
      </trkpt>
      <trkpt lat="45.73127" lon="6.57311">
        <ele>966</ele>
        <time>2025-07-20T16:12:29Z</time>
      </trkpt>
      <trkpt lat="45.73153" lon="6.57303">
        <ele>967</ele>
        <time>2025-07-20T16:12:34Z</time>
      </trkpt>
      <trkpt lat="45.73179" lon="6.57299">
        <ele>968</ele>
        <time>2025-07-20T16:12:39Z</time>
      </trkpt>
      <trkpt lat="45.73198" lon="6.57298">
        <ele>968</ele>
        <time>2025-07-20T16:12:42Z</time>
      </trkpt>
      <trkpt lat="45.73225" lon="6.573">
        <ele>970</ele>
        <time>2025-07-20T16:12:47Z</time>
      </trkpt>
      <trkpt lat="45.73249" lon="6.57305">
        <ele>973</ele>
        <time>2025-07-20T16:12:51Z</time>
      </trkpt>
      <trkpt lat="45.73262" lon="6.57311">
        <ele>973</ele>
        <time>2025-07-20T16:12:54Z</time>
      </trkpt>
      <trkpt lat="45.733" lon="6.57335">
        <ele>971</ele>
        <time>2025-07-20T16:13:01Z</time>
      </trkpt>
      <trkpt lat="45.73321" lon="6.57351">
        <ele>972</ele>
        <time>2025-07-20T16:13:05Z</time>
      </trkpt>
      <trkpt lat="45.73331" lon="6.5736">
        <ele>973</ele>
        <time>2025-07-20T16:13:07Z</time>
      </trkpt>
      <trkpt lat="45.7334" lon="6.57372">
        <ele>975</ele>
        <time>2025-07-20T16:13:10Z</time>
      </trkpt>
      <trkpt lat="45.73383" lon="6.57441">
        <ele>979</ele>
        <time>2025-07-20T16:13:21Z</time>
      </trkpt>
      <trkpt lat="45.73396" lon="6.57459">
        <ele>976</ele>
        <time>2025-07-20T16:13:24Z</time>
      </trkpt>
      <trkpt lat="45.73427" lon="6.57492">
        <ele>969</ele>
        <time>2025-07-20T16:13:31Z</time>
      </trkpt>
      <trkpt lat="45.73443" lon="6.57511">
        <ele>969</ele>
        <time>2025-07-20T16:13:35Z</time>
      </trkpt>
      <trkpt lat="45.73459" lon="6.57534">
        <ele>971</ele>
        <time>2025-07-20T16:13:39Z</time>
      </trkpt>
      <trkpt lat="45.73467" lon="6.57548">
        <ele>972</ele>
        <time>2025-07-20T16:13:41Z</time>
      </trkpt>
      <trkpt lat="45.73482" lon="6.57578">
        <ele>975</ele>
        <time>2025-07-20T16:13:46Z</time>
      </trkpt>
      <trkpt lat="45.73489" lon="6.57591">
        <ele>976</ele>
        <time>2025-07-20T16:13:48Z</time>
      </trkpt>
      <trkpt lat="45.73498" lon="6.57604">
        <ele>976</ele>
        <time>2025-07-20T16:13:50Z</time>
      </trkpt>
      <trkpt lat="45.73558" lon="6.5768">
        <ele>986</ele>
        <time>2025-07-20T16:14:04Z</time>
      </trkpt>
      <trkpt lat="45.73567" lon="6.57691">
        <ele>988</ele>
        <time>2025-07-20T16:14:06Z</time>
      </trkpt>
      <trkpt lat="45.73576" lon="6.577">
        <ele>989</ele>
        <time>2025-07-20T16:14:08Z</time>
      </trkpt>
      <trkpt lat="45.73595" lon="6.57711">
        <ele>990</ele>
        <time>2025-07-20T16:14:12Z</time>
      </trkpt>
      <trkpt lat="45.73605" lon="6.57714">
        <ele>990</ele>
        <time>2025-07-20T16:14:14Z</time>
      </trkpt>
      <trkpt lat="45.73623" lon="6.57716">
        <ele>990</ele>
        <time>2025-07-20T16:14:17Z</time>
      </trkpt>
      <trkpt lat="45.73641" lon="6.5772">
        <ele>990</ele>
        <time>2025-07-20T16:14:20Z</time>
      </trkpt>
      <trkpt lat="45.73655" lon="6.57725">
        <ele>991</ele>
        <time>2025-07-20T16:14:23Z</time>
      </trkpt>
      <trkpt lat="45.73669" lon="6.57731">
        <ele>993</ele>
        <time>2025-07-20T16:14:25Z</time>
      </trkpt>
      <trkpt lat="45.73685" lon="6.57736">
        <ele>992</ele>
        <time>2025-07-20T16:14:28Z</time>
      </trkpt>
      <trkpt lat="45.73704" lon="6.57742">
        <ele>992</ele>
        <time>2025-07-20T16:14:32Z</time>
      </trkpt>
      <trkpt lat="45.73725" lon="6.57752">
        <ele>993</ele>
        <time>2025-07-20T16:14:36Z</time>
      </trkpt>
      <trkpt lat="45.73747" lon="6.5777">
        <ele>997</ele>
        <time>2025-07-20T16:14:40Z</time>
      </trkpt>
      <trkpt lat="45.73778" lon="6.57792">
        <ele>995</ele>
        <time>2025-07-20T16:14:46Z</time>
      </trkpt>
      <trkpt lat="45.73785" lon="6.578">
        <ele>996</ele>
        <time>2025-07-20T16:14:48Z</time>
      </trkpt>
      <trkpt lat="45.738" lon="6.5782">
        <ele>999</ele>
        <time>2025-07-20T16:14:52Z</time>
      </trkpt>
      <trkpt lat="45.73823" lon="6.57846">
        <ele>999</ele>
        <time>2025-07-20T16:14:57Z</time>
      </trkpt>
      <trkpt lat="45.73843" lon="6.57881">
        <ele>1001</ele>
        <time>2025-07-20T16:15:03Z</time>
      </trkpt>
      <trkpt lat="45.7387" lon="6.57908">
        <ele>999</ele>
        <time>2025-07-20T16:15:08Z</time>
      </trkpt>
      <trkpt lat="45.73877" lon="6.57921">
        <ele>1000</ele>
        <time>2025-07-20T16:15:10Z</time>
      </trkpt>
      <trkpt lat="45.73895" lon="6.57967">
        <ele>1005</ele>
        <time>2025-07-20T16:15:17Z</time>
      </trkpt>
      <trkpt lat="45.73896" lon="6.57977">
        <ele>1008</ele>
        <time>2025-07-20T16:15:18Z</time>
      </trkpt>
      <trkpt lat="45.73897" lon="6.58005">
        <ele>1014</ele>
        <time>2025-07-20T16:15:22Z</time>
      </trkpt>
      <trkpt lat="45.73899" lon="6.58016">
        <ele>1016</ele>
        <time>2025-07-20T16:15:23Z</time>
      </trkpt>
      <trkpt lat="45.73906" lon="6.58034">
        <ele>1017</ele>
        <time>2025-07-20T16:15:26Z</time>
      </trkpt>
      <trkpt lat="45.73911" lon="6.58041">
        <ele>1017</ele>
        <time>2025-07-20T16:15:27Z</time>
      </trkpt>
      <trkpt lat="45.73916" lon="6.58048">
        <ele>1016</ele>
        <time>2025-07-20T16:15:28Z</time>
      </trkpt>
      <trkpt lat="45.73926" lon="6.58054">
        <ele>1014</ele>
        <time>2025-07-20T16:15:30Z</time>
      </trkpt>
      <trkpt lat="45.73962" lon="6.58072">
        <ele>1006</ele>
        <time>2025-07-20T16:15:37Z</time>
      </trkpt>
      <trkpt lat="45.7397" lon="6.58081">
        <ele>1006</ele>
        <time>2025-07-20T16:15:39Z</time>
      </trkpt>
      <trkpt lat="45.73975" lon="6.5809">
        <ele>1007</ele>
        <time>2025-07-20T16:15:40Z</time>
      </trkpt>
      <trkpt lat="45.73979" lon="6.58103">
        <ele>1008</ele>
        <time>2025-07-20T16:15:42Z</time>
      </trkpt>
      <trkpt lat="45.7398" lon="6.58116">
        <ele>1010</ele>
        <time>2025-07-20T16:15:44Z</time>
      </trkpt>
      <trkpt lat="45.73982" lon="6.58136">
        <ele>1013</ele>
        <time>2025-07-20T16:15:46Z</time>
      </trkpt>
      <trkpt lat="45.73981" lon="6.58179">
        <ele>1023</ele>
        <time>2025-07-20T16:15:51Z</time>
      </trkpt>
      <trkpt lat="45.73982" lon="6.58186">
        <ele>1024</ele>
        <time>2025-07-20T16:15:52Z</time>
      </trkpt>
      <trkpt lat="45.73988" lon="6.58196">
        <ele>1024</ele>
        <time>2025-07-20T16:15:54Z</time>
      </trkpt>
      <trkpt lat="45.74005" lon="6.5822">
        <ele>1023</ele>
        <time>2025-07-20T16:15:58Z</time>
      </trkpt>
      <trkpt lat="45.74024" lon="6.58258">
        <ele>1027</ele>
        <time>2025-07-20T16:16:04Z</time>
      </trkpt>
      <trkpt lat="45.74032" lon="6.5827">
        <ele>1029</ele>
        <time>2025-07-20T16:16:06Z</time>
      </trkpt>
      <trkpt lat="45.74039" lon="6.5828">
        <ele>1030</ele>
        <time>2025-07-20T16:16:08Z</time>
      </trkpt>
      <trkpt lat="45.74046" lon="6.58286">
        <ele>1030</ele>
        <time>2025-07-20T16:16:09Z</time>
      </trkpt>
      <trkpt lat="45.74051" lon="6.58289">
        <ele>1029</ele>
        <time>2025-07-20T16:16:10Z</time>
      </trkpt>
      <trkpt lat="45.74076" lon="6.58287">
        <ele>1022</ele>
        <time>2025-07-20T16:16:15Z</time>
      </trkpt>
      <trkpt lat="45.74086" lon="6.58289">
        <ele>1021</ele>
        <time>2025-07-20T16:16:16Z</time>
      </trkpt>
      <trkpt lat="45.74138" lon="6.58307">
        <ele>1017</ele>
        <time>2025-07-20T16:16:26Z</time>
      </trkpt>
      <trkpt lat="45.74145" lon="6.58308">
        <ele>1016</ele>
        <time>2025-07-20T16:16:27Z</time>
      </trkpt>
      <trkpt lat="45.74152" lon="6.58307">
        <ele>1014</ele>
        <time>2025-07-20T16:16:28Z</time>
      </trkpt>
      <trkpt lat="45.74164" lon="6.58303">
        <ele>1010</ele>
        <time>2025-07-20T16:16:31Z</time>
      </trkpt>
      <trkpt lat="45.74172" lon="6.58303">
        <ele>1009</ele>
        <time>2025-07-20T16:16:32Z</time>
      </trkpt>
      <trkpt lat="45.74177" lon="6.58304">
        <ele>1009</ele>
        <time>2025-07-20T16:16:33Z</time>
      </trkpt>
      <trkpt lat="45.74187" lon="6.5831">
        <ele>1010</ele>
        <time>2025-07-20T16:16:35Z</time>
      </trkpt>
      <trkpt lat="45.74212" lon="6.58333">
        <ele>1017</ele>
        <time>2025-07-20T16:16:40Z</time>
      </trkpt>
      <trkpt lat="45.74223" lon="6.58338">
        <ele>1017</ele>
        <time>2025-07-20T16:16:42Z</time>
      </trkpt>
      <trkpt lat="45.74251" lon="6.58348">
        <ele>1017</ele>
        <time>2025-07-20T16:16:47Z</time>
      </trkpt>
      <trkpt lat="45.74259" lon="6.58353">
        <ele>1016</ele>
        <time>2025-07-20T16:16:49Z</time>
      </trkpt>
      <trkpt lat="45.74264" lon="6.58359">
        <ele>1016</ele>
        <time>2025-07-20T16:16:50Z</time>
      </trkpt>
      <trkpt lat="45.74267" lon="6.58368">
        <ele>1018</ele>
        <time>2025-07-20T16:16:51Z</time>
      </trkpt>
      <trkpt lat="45.7427" lon="6.58381">
        <ele>1020</ele>
        <time>2025-07-20T16:16:53Z</time>
      </trkpt>
      <trkpt lat="45.74272" lon="6.58412">
        <ele>1028</ele>
        <time>2025-07-20T16:16:57Z</time>
      </trkpt>
      <trkpt lat="45.74272" lon="6.58424">
        <ele>1031</ele>
        <time>2025-07-20T16:16:58Z</time>
      </trkpt>
      <trkpt lat="45.7427" lon="6.58436">
        <ele>1034</ele>
        <time>2025-07-20T16:17:00Z</time>
      </trkpt>
      <trkpt lat="45.74254" lon="6.58513">
        <ele>1056</ele>
        <time>2025-07-20T16:17:10Z</time>
      </trkpt>
      <trkpt lat="45.74254" lon="6.5853">
        <ele>1061</ele>
        <time>2025-07-20T16:17:12Z</time>
      </trkpt>
      <trkpt lat="45.74256" lon="6.58537">
        <ele>1062</ele>
        <time>2025-07-20T16:17:13Z</time>
      </trkpt>
      <trkpt lat="45.74263" lon="6.58544">
        <ele>1063</ele>
        <time>2025-07-20T16:17:14Z</time>
      </trkpt>
      <trkpt lat="45.74268" lon="6.58545">
        <ele>1062</ele>
        <time>2025-07-20T16:17:15Z</time>
      </trkpt>
      <trkpt lat="45.74274" lon="6.58543">
        <ele>1060</ele>
        <time>2025-07-20T16:17:16Z</time>
      </trkpt>
      <trkpt lat="45.74279" lon="6.5854">
        <ele>1058</ele>
        <time>2025-07-20T16:17:17Z</time>
      </trkpt>
      <trkpt lat="45.74286" lon="6.58532">
        <ele>1055</ele>
        <time>2025-07-20T16:17:19Z</time>
      </trkpt>
      <trkpt lat="45.74293" lon="6.58522">
        <ele>1050</ele>
        <time>2025-07-20T16:17:21Z</time>
      </trkpt>
      <trkpt lat="45.74299" lon="6.5851">
        <ele>1046</ele>
        <time>2025-07-20T16:17:23Z</time>
      </trkpt>
      <trkpt lat="45.74305" lon="6.585">
        <ele>1041</ele>
        <time>2025-07-20T16:17:24Z</time>
      </trkpt>
      <trkpt lat="45.74312" lon="6.58493">
        <ele>1038</ele>
        <time>2025-07-20T16:17:26Z</time>
      </trkpt>
      <trkpt lat="45.74321" lon="6.58489">
        <ele>1035</ele>
        <time>2025-07-20T16:17:27Z</time>
      </trkpt>
      <trkpt lat="45.7433" lon="6.58486">
        <ele>1032</ele>
        <time>2025-07-20T16:17:29Z</time>
      </trkpt>
      <trkpt lat="45.7434" lon="6.58486">
        <ele>1030</ele>
        <time>2025-07-20T16:17:31Z</time>
      </trkpt>
      <trkpt lat="45.74391" lon="6.58496">
        <ele>1026</ele>
        <time>2025-07-20T16:17:40Z</time>
      </trkpt>
      <trkpt lat="45.74404" lon="6.585">
        <ele>1026</ele>
        <time>2025-07-20T16:17:42Z</time>
      </trkpt>
      <trkpt lat="45.74409" lon="6.58504">
        <ele>1026</ele>
        <time>2025-07-20T16:17:43Z</time>
      </trkpt>
      <trkpt lat="45.74413" lon="6.58512">
        <ele>1027</ele>
        <time>2025-07-20T16:17:45Z</time>
      </trkpt>
      <trkpt lat="45.74417" lon="6.58524">
        <ele>1029</ele>
        <time>2025-07-20T16:17:46Z</time>
      </trkpt>
      <trkpt lat="45.74421" lon="6.58566">
        <ele>1036</ele>
        <time>2025-07-20T16:17:52Z</time>
      </trkpt>
      <trkpt lat="45.74425" lon="6.5858">
        <ele>1037</ele>
        <time>2025-07-20T16:17:53Z</time>
      </trkpt>
      <trkpt lat="45.74431" lon="6.58587">
        <ele>1037</ele>
        <time>2025-07-20T16:17:55Z</time>
      </trkpt>
      <trkpt lat="45.74438" lon="6.58591">
        <ele>1036</ele>
        <time>2025-07-20T16:17:56Z</time>
      </trkpt>
      <trkpt lat="45.74447" lon="6.58593">
        <ele>1034</ele>
        <time>2025-07-20T16:17:58Z</time>
      </trkpt>
      <trkpt lat="45.74466" lon="6.5859">
        <ele>1029</ele>
        <time>2025-07-20T16:18:01Z</time>
      </trkpt>
      <trkpt lat="45.74473" lon="6.58593">
        <ele>1027</ele>
        <time>2025-07-20T16:18:02Z</time>
      </trkpt>
      <trkpt lat="45.74479" lon="6.58599">
        <ele>1027</ele>
        <time>2025-07-20T16:18:04Z</time>
      </trkpt>
      <trkpt lat="45.74484" lon="6.58607">
        <ele>1027</ele>
        <time>2025-07-20T16:18:05Z</time>
      </trkpt>
      <trkpt lat="45.74487" lon="6.58623">
        <ele>1028</ele>
        <time>2025-07-20T16:18:07Z</time>
      </trkpt>
      <trkpt lat="45.7449" lon="6.58666">
        <ele>1034</ele>
        <time>2025-07-20T16:18:12Z</time>
      </trkpt>
      <trkpt lat="45.7449" lon="6.58694">
        <ele>1037</ele>
        <time>2025-07-20T16:18:16Z</time>
      </trkpt>
      <trkpt lat="45.74482" lon="6.58754">
        <ele>1049</ele>
        <time>2025-07-20T16:18:24Z</time>
      </trkpt>
      <trkpt lat="45.74479" lon="6.58779">
        <ele>1055</ele>
        <time>2025-07-20T16:18:27Z</time>
      </trkpt>
      <trkpt lat="45.74472" lon="6.5881">
        <ele>1063</ele>
        <time>2025-07-20T16:18:31Z</time>
      </trkpt>
      <trkpt lat="45.74472" lon="6.58818">
        <ele>1064</ele>
        <time>2025-07-20T16:18:32Z</time>
      </trkpt>
      <trkpt lat="45.74473" lon="6.58826">
        <ele>1065</ele>
        <time>2025-07-20T16:18:33Z</time>
      </trkpt>
      <trkpt lat="45.74477" lon="6.58833">
        <ele>1065</ele>
        <time>2025-07-20T16:18:34Z</time>
      </trkpt>
      <trkpt lat="45.74483" lon="6.58838">
        <ele>1064</ele>
        <time>2025-07-20T16:18:35Z</time>
      </trkpt>
      <trkpt lat="45.7449" lon="6.5884">
        <ele>1062</ele>
        <time>2025-07-20T16:18:36Z</time>
      </trkpt>
      <trkpt lat="45.74498" lon="6.58838">
        <ele>1058</ele>
        <time>2025-07-20T16:18:38Z</time>
      </trkpt>
      <trkpt lat="45.74509" lon="6.5883">
        <ele>1053</ele>
        <time>2025-07-20T16:18:40Z</time>
      </trkpt>
      <trkpt lat="45.74525" lon="6.58814">
        <ele>1046</ele>
        <time>2025-07-20T16:18:43Z</time>
      </trkpt>
      <trkpt lat="45.74543" lon="6.58793">
        <ele>1038</ele>
        <time>2025-07-20T16:18:48Z</time>
      </trkpt>
      <trkpt lat="45.74548" lon="6.58791">
        <ele>1037</ele>
        <time>2025-07-20T16:18:49Z</time>
      </trkpt>
      <trkpt lat="45.74554" lon="6.58791">
        <ele>1036</ele>
        <time>2025-07-20T16:18:50Z</time>
      </trkpt>
      <trkpt lat="45.7456" lon="6.58793">
        <ele>1035</ele>
        <time>2025-07-20T16:18:51Z</time>
      </trkpt>
      <trkpt lat="45.74589" lon="6.58818">
        <ele>1034</ele>
        <time>2025-07-20T16:18:57Z</time>
      </trkpt>
      <trkpt lat="45.74659" lon="6.58867">
        <ele>1037</ele>
        <time>2025-07-20T16:19:11Z</time>
      </trkpt>
      <trkpt lat="45.74673" lon="6.58878">
        <ele>1037</ele>
        <time>2025-07-20T16:19:13Z</time>
      </trkpt>
      <trkpt lat="45.74681" lon="6.58889">
        <ele>1036</ele>
        <time>2025-07-20T16:19:15Z</time>
      </trkpt>
      <trkpt lat="45.74685" lon="6.58899">
        <ele>1037</ele>
        <time>2025-07-20T16:19:17Z</time>
      </trkpt>
      <trkpt lat="45.74688" lon="6.58911">
        <ele>1037</ele>
        <time>2025-07-20T16:19:18Z</time>
      </trkpt>
      <trkpt lat="45.74688" lon="6.58922">
        <ele>1039</ele>
        <time>2025-07-20T16:19:20Z</time>
      </trkpt>
      <trkpt lat="45.74684" lon="6.58956">
        <ele>1047</ele>
        <time>2025-07-20T16:19:24Z</time>
      </trkpt>
      <trkpt lat="45.74683" lon="6.5897">
        <ele>1050</ele>
        <time>2025-07-20T16:19:26Z</time>
      </trkpt>
      <trkpt lat="45.74684" lon="6.58983">
        <ele>1052</ele>
        <time>2025-07-20T16:19:27Z</time>
      </trkpt>
      <trkpt lat="45.74687" lon="6.58994">
        <ele>1053</ele>
        <time>2025-07-20T16:19:29Z</time>
      </trkpt>
      <trkpt lat="45.7469" lon="6.58999">
        <ele>1053</ele>
        <time>2025-07-20T16:19:30Z</time>
      </trkpt>
      <trkpt lat="45.74694" lon="6.59003">
        <ele>1052</ele>
        <time>2025-07-20T16:19:31Z</time>
      </trkpt>
      <trkpt lat="45.74715" lon="6.5901">
        <ele>1046</ele>
        <time>2025-07-20T16:19:34Z</time>
      </trkpt>
      <trkpt lat="45.74719" lon="6.59016">
        <ele>1046</ele>
        <time>2025-07-20T16:19:35Z</time>
      </trkpt>
      <trkpt lat="45.74733" lon="6.59048">
        <ele>1047</ele>
        <time>2025-07-20T16:19:40Z</time>
      </trkpt>
      <trkpt lat="45.74744" lon="6.59068">
        <ele>1047</ele>
        <time>2025-07-20T16:19:43Z</time>
      </trkpt>
      <trkpt lat="45.74751" lon="6.59085">
        <ele>1048</ele>
        <time>2025-07-20T16:19:46Z</time>
      </trkpt>
      <trkpt lat="45.74757" lon="6.59093">
        <ele>1048</ele>
        <time>2025-07-20T16:19:47Z</time>
      </trkpt>
      <trkpt lat="45.74777" lon="6.59114">
        <ele>1049</ele>
        <time>2025-07-20T16:19:52Z</time>
      </trkpt>
      <trkpt lat="45.74783" lon="6.59123">
        <ele>1049</ele>
        <time>2025-07-20T16:19:53Z</time>
      </trkpt>
      <trkpt lat="45.74787" lon="6.59135">
        <ele>1050</ele>
        <time>2025-07-20T16:19:55Z</time>
      </trkpt>
      <trkpt lat="45.7479" lon="6.59148">
        <ele>1052</ele>
        <time>2025-07-20T16:19:57Z</time>
      </trkpt>
      <trkpt lat="45.74795" lon="6.59193">
        <ele>1060</ele>
        <time>2025-07-20T16:20:02Z</time>
      </trkpt>
      <trkpt lat="45.74797" lon="6.59201">
        <ele>1061</ele>
        <time>2025-07-20T16:20:03Z</time>
      </trkpt>
      <trkpt lat="45.74801" lon="6.59207">
        <ele>1062</ele>
        <time>2025-07-20T16:20:04Z</time>
      </trkpt>
      <trkpt lat="45.74806" lon="6.59209">
        <ele>1062</ele>
        <time>2025-07-20T16:20:05Z</time>
      </trkpt>
      <trkpt lat="45.74812" lon="6.5921">
        <ele>1061</ele>
        <time>2025-07-20T16:20:06Z</time>
      </trkpt>
      <trkpt lat="45.74817" lon="6.59208">
        <ele>1060</ele>
        <time>2025-07-20T16:20:07Z</time>
      </trkpt>
      <trkpt lat="45.74822" lon="6.59204">
        <ele>1059</ele>
        <time>2025-07-20T16:20:08Z</time>
      </trkpt>
      <trkpt lat="45.74827" lon="6.59197">
        <ele>1057</ele>
        <time>2025-07-20T16:20:09Z</time>
      </trkpt>
      <trkpt lat="45.74838" lon="6.59176">
        <ele>1052</ele>
        <time>2025-07-20T16:20:13Z</time>
      </trkpt>
      <trkpt lat="45.7485" lon="6.59147">
        <ele>1046</ele>
        <time>2025-07-20T16:20:17Z</time>
      </trkpt>
      <trkpt lat="45.74854" lon="6.59141">
        <ele>1045</ele>
        <time>2025-07-20T16:20:18Z</time>
      </trkpt>
      <trkpt lat="45.74859" lon="6.59137">
        <ele>1045</ele>
        <time>2025-07-20T16:20:19Z</time>
      </trkpt>
      <trkpt lat="45.74865" lon="6.59133">
        <ele>1044</ele>
        <time>2025-07-20T16:20:20Z</time>
      </trkpt>
      <trkpt lat="45.74874" lon="6.59131">
        <ele>1044</ele>
        <time>2025-07-20T16:20:22Z</time>
      </trkpt>
      <trkpt lat="45.74902" lon="6.59126">
        <ele>1043</ele>
        <time>2025-07-20T16:20:27Z</time>
      </trkpt>
      <trkpt lat="45.74958" lon="6.59113">
        <ele>1041</ele>
        <time>2025-07-20T16:20:37Z</time>
      </trkpt>
      <trkpt lat="45.74969" lon="6.59114">
        <ele>1041</ele>
        <time>2025-07-20T16:20:39Z</time>
      </trkpt>
      <trkpt lat="45.74978" lon="6.59116">
        <ele>1040</ele>
        <time>2025-07-20T16:20:40Z</time>
      </trkpt>
      <trkpt lat="45.74986" lon="6.59122">
        <ele>1040</ele>
        <time>2025-07-20T16:20:42Z</time>
      </trkpt>
      <trkpt lat="45.75003" lon="6.59139">
        <ele>1041</ele>
        <time>2025-07-20T16:20:46Z</time>
      </trkpt>
      <trkpt lat="45.7501" lon="6.59145">
        <ele>1040</ele>
        <time>2025-07-20T16:20:47Z</time>
      </trkpt>
      <trkpt lat="45.75021" lon="6.59148">
        <ele>1040</ele>
        <time>2025-07-20T16:20:49Z</time>
      </trkpt>
      <trkpt lat="45.75029" lon="6.59147">
        <ele>1039</ele>
        <time>2025-07-20T16:20:51Z</time>
      </trkpt>
      <trkpt lat="45.75055" lon="6.59138">
        <ele>1038</ele>
        <time>2025-07-20T16:20:55Z</time>
      </trkpt>
      <trkpt lat="45.75065" lon="6.59136">
        <ele>1038</ele>
        <time>2025-07-20T16:20:57Z</time>
      </trkpt>
      <trkpt lat="45.75073" lon="6.59137">
        <ele>1037</ele>
        <time>2025-07-20T16:20:59Z</time>
      </trkpt>
      <trkpt lat="45.7511" lon="6.5915">
        <ele>1040</ele>
        <time>2025-07-20T16:21:05Z</time>
      </trkpt>
      <trkpt lat="45.75122" lon="6.59157">
        <ele>1042</ele>
        <time>2025-07-20T16:21:08Z</time>
      </trkpt>
      <trkpt lat="45.75134" lon="6.59169">
        <ele>1043</ele>
        <time>2025-07-20T16:21:10Z</time>
      </trkpt>
      <trkpt lat="45.75164" lon="6.592">
        <ele>1047</ele>
        <time>2025-07-20T16:21:17Z</time>
      </trkpt>
      <trkpt lat="45.7517" lon="6.59208">
        <ele>1048</ele>
        <time>2025-07-20T16:21:18Z</time>
      </trkpt>
      <trkpt lat="45.75182" lon="6.5924">
        <ele>1048</ele>
        <time>2025-07-20T16:21:23Z</time>
      </trkpt>
      <trkpt lat="45.75184" lon="6.59245">
        <ele>1048</ele>
        <time>2025-07-20T16:21:24Z</time>
      </trkpt>
      <trkpt lat="45.75189" lon="6.5925">
        <ele>1048</ele>
        <time>2025-07-20T16:21:25Z</time>
      </trkpt>
      <trkpt lat="45.75193" lon="6.59252">
        <ele>1049</ele>
        <time>2025-07-20T16:21:25Z</time>
      </trkpt>
      <trkpt lat="45.75198" lon="6.59253">
        <ele>1050</ele>
        <time>2025-07-20T16:21:26Z</time>
      </trkpt>
      <trkpt lat="45.75202" lon="6.5925">
        <ele>1051</ele>
        <time>2025-07-20T16:21:27Z</time>
      </trkpt>
      <trkpt lat="45.75205" lon="6.59247">
        <ele>1051</ele>
        <time>2025-07-20T16:21:28Z</time>
      </trkpt>
      <trkpt lat="45.75207" lon="6.59241">
        <ele>1052</ele>
        <time>2025-07-20T16:21:29Z</time>
      </trkpt>
      <trkpt lat="45.75207" lon="6.59235">
        <ele>1053</ele>
        <time>2025-07-20T16:21:29Z</time>
      </trkpt>
      <trkpt lat="45.75207" lon="6.59228">
        <ele>1053</ele>
        <time>2025-07-20T16:21:30Z</time>
      </trkpt>
      <trkpt lat="45.75204" lon="6.59222">
        <ele>1053</ele>
        <time>2025-07-20T16:21:31Z</time>
      </trkpt>
      <trkpt lat="45.75192" lon="6.59202">
        <ele>1052</ele>
        <time>2025-07-20T16:21:34Z</time>
      </trkpt>
      <trkpt lat="45.75189" lon="6.59192">
        <ele>1053</ele>
        <time>2025-07-20T16:21:36Z</time>
      </trkpt>
      <trkpt lat="45.7518" lon="6.59149">
        <ele>1055</ele>
        <time>2025-07-20T16:21:41Z</time>
      </trkpt>
      <trkpt lat="45.75176" lon="6.59108">
        <ele>1059</ele>
        <time>2025-07-20T16:21:46Z</time>
      </trkpt>
      <trkpt lat="45.7517" lon="6.59082">
        <ele>1060</ele>
        <time>2025-07-20T16:21:50Z</time>
      </trkpt>
      <trkpt lat="45.75154" lon="6.59041">
        <ele>1068</ele>
        <time>2025-07-20T16:21:56Z</time>
      </trkpt>
      <trkpt lat="45.75147" lon="6.59026">
        <ele>1070</ele>
        <time>2025-07-20T16:21:58Z</time>
      </trkpt>
      <trkpt lat="45.75141" lon="6.59017">
        <ele>1070</ele>
        <time>2025-07-20T16:21:59Z</time>
      </trkpt>
      <trkpt lat="45.75136" lon="6.5901">
        <ele>1070</ele>
        <time>2025-07-20T16:22:01Z</time>
      </trkpt>
      <trkpt lat="45.75126" lon="6.59001">
        <ele>1070</ele>
        <time>2025-07-20T16:22:03Z</time>
      </trkpt>
      <trkpt lat="45.75123" lon="6.58996">
        <ele>1070</ele>
        <time>2025-07-20T16:22:04Z</time>
      </trkpt>
      <trkpt lat="45.75122" lon="6.58992">
        <ele>1070</ele>
        <time>2025-07-20T16:22:04Z</time>
      </trkpt>
      <trkpt lat="45.75121" lon="6.58988">
        <ele>1071</ele>
        <time>2025-07-20T16:22:05Z</time>
      </trkpt>
      <trkpt lat="45.75122" lon="6.58984">
        <ele>1072</ele>
        <time>2025-07-20T16:22:05Z</time>
      </trkpt>
      <trkpt lat="45.75124" lon="6.58981">
        <ele>1074</ele>
        <time>2025-07-20T16:22:06Z</time>
      </trkpt>
      <trkpt lat="45.75127" lon="6.5898">
        <ele>1075</ele>
        <time>2025-07-20T16:22:06Z</time>
      </trkpt>
      <trkpt lat="45.75132" lon="6.5898">
        <ele>1076</ele>
        <time>2025-07-20T16:22:07Z</time>
      </trkpt>
      <trkpt lat="45.75135" lon="6.58982">
        <ele>1077</ele>
        <time>2025-07-20T16:22:08Z</time>
      </trkpt>
      <trkpt lat="45.75162" lon="6.59012">
        <ele>1077</ele>
        <time>2025-07-20T16:22:14Z</time>
      </trkpt>
      <trkpt lat="45.75205" lon="6.59048">
        <ele>1081</ele>
        <time>2025-07-20T16:22:23Z</time>
      </trkpt>
      <trkpt lat="45.75242" lon="6.59088">
        <ele>1082</ele>
        <time>2025-07-20T16:22:31Z</time>
      </trkpt>
      <trkpt lat="45.7526" lon="6.59104">
        <ele>1084</ele>
        <time>2025-07-20T16:22:35Z</time>
      </trkpt>
      <trkpt lat="45.7528" lon="6.5912">
        <ele>1086</ele>
        <time>2025-07-20T16:22:39Z</time>
      </trkpt>
      <trkpt lat="45.75315" lon="6.59141">
        <ele>1091</ele>
        <time>2025-07-20T16:22:46Z</time>
      </trkpt>
      <trkpt lat="45.75363" lon="6.59163">
        <ele>1098</ele>
        <time>2025-07-20T16:22:54Z</time>
      </trkpt>
      <trkpt lat="45.75375" lon="6.59172">
        <ele>1099</ele>
        <time>2025-07-20T16:22:57Z</time>
      </trkpt>
      <trkpt lat="45.75385" lon="6.59181">
        <ele>1100</ele>
        <time>2025-07-20T16:22:59Z</time>
      </trkpt>
      <trkpt lat="45.75404" lon="6.59201">
        <ele>1101</ele>
        <time>2025-07-20T16:23:03Z</time>
      </trkpt>
      <trkpt lat="45.75413" lon="6.59213">
        <ele>1101</ele>
        <time>2025-07-20T16:23:05Z</time>
      </trkpt>
      <trkpt lat="45.75429" lon="6.59238">
        <ele>1101</ele>
        <time>2025-07-20T16:23:10Z</time>
      </trkpt>
      <trkpt lat="45.75432" lon="6.5924">
        <ele>1101</ele>
        <time>2025-07-20T16:23:10Z</time>
      </trkpt>
      <trkpt lat="45.75438" lon="6.59241">
        <ele>1102</ele>
        <time>2025-07-20T16:23:11Z</time>
      </trkpt>
      <trkpt lat="45.75441" lon="6.5924">
        <ele>1103</ele>
        <time>2025-07-20T16:23:12Z</time>
      </trkpt>
      <trkpt lat="45.75446" lon="6.59232">
        <ele>1106</ele>
        <time>2025-07-20T16:23:13Z</time>
      </trkpt>
      <trkpt lat="45.75442" lon="6.59224">
        <ele>1106</ele>
        <time>2025-07-20T16:23:14Z</time>
      </trkpt>
      <trkpt lat="45.75437" lon="6.59218">
        <ele>1106</ele>
        <time>2025-07-20T16:23:16Z</time>
      </trkpt>
      <trkpt lat="45.7543" lon="6.59209">
        <ele>1106</ele>
        <time>2025-07-20T16:23:17Z</time>
      </trkpt>
      <trkpt lat="45.75424" lon="6.59199">
        <ele>1106</ele>
        <time>2025-07-20T16:23:19Z</time>
      </trkpt>
      <trkpt lat="45.75402" lon="6.59155">
        <ele>1108</ele>
        <time>2025-07-20T16:23:26Z</time>
      </trkpt>
      <trkpt lat="45.75398" lon="6.59145">
        <ele>1109</ele>
        <time>2025-07-20T16:23:27Z</time>
      </trkpt>
      <trkpt lat="45.75394" lon="6.59121">
        <ele>1112</ele>
        <time>2025-07-20T16:23:30Z</time>
      </trkpt>
      <trkpt lat="45.75391" lon="6.59111">
        <ele>1114</ele>
        <time>2025-07-20T16:23:31Z</time>
      </trkpt>
      <trkpt lat="45.75387" lon="6.59102">
        <ele>1115</ele>
        <time>2025-07-20T16:23:33Z</time>
      </trkpt>
      <trkpt lat="45.7538" lon="6.59093">
        <ele>1115</ele>
        <time>2025-07-20T16:23:34Z</time>
      </trkpt>
      <trkpt lat="45.75346" lon="6.59057">
        <ele>1117</ele>
        <time>2025-07-20T16:23:42Z</time>
      </trkpt>
      <trkpt lat="45.75337" lon="6.59046">
        <ele>1118</ele>
        <time>2025-07-20T16:23:44Z</time>
      </trkpt>
      <trkpt lat="45.75327" lon="6.59029">
        <ele>1120</ele>
        <time>2025-07-20T16:23:47Z</time>
      </trkpt>
      <trkpt lat="45.75291" lon="6.58959">
        <ele>1129</ele>
        <time>2025-07-20T16:23:58Z</time>
      </trkpt>
      <trkpt lat="45.75256" lon="6.58895">
        <ele>1134</ele>
        <time>2025-07-20T16:24:08Z</time>
      </trkpt>
      <trkpt lat="45.75246" lon="6.58878">
        <ele>1134</ele>
        <time>2025-07-20T16:24:10Z</time>
      </trkpt>
      <trkpt lat="45.75234" lon="6.58857">
        <ele>1133</ele>
        <time>2025-07-20T16:24:14Z</time>
      </trkpt>
      <trkpt lat="45.75223" lon="6.5884">
        <ele>1133</ele>
        <time>2025-07-20T16:24:17Z</time>
      </trkpt>
      <trkpt lat="45.75218" lon="6.58836">
        <ele>1133</ele>
        <time>2025-07-20T16:24:18Z</time>
      </trkpt>
      <trkpt lat="45.7521" lon="6.58837">
        <ele>1131</ele>
        <time>2025-07-20T16:24:19Z</time>
      </trkpt>
      <trkpt lat="45.75204" lon="6.58835">
        <ele>1130</ele>
        <time>2025-07-20T16:24:20Z</time>
      </trkpt>
      <trkpt lat="45.75179" lon="6.58805">
        <ele>1130</ele>
        <time>2025-07-20T16:24:26Z</time>
      </trkpt>
      <trkpt lat="45.7516" lon="6.58788">
        <ele>1128</ele>
        <time>2025-07-20T16:24:30Z</time>
      </trkpt>
      <trkpt lat="45.75149" lon="6.58776">
        <ele>1127</ele>
        <time>2025-07-20T16:24:32Z</time>
      </trkpt>
      <trkpt lat="45.75095" lon="6.58714">
        <ele>1124</ele>
        <time>2025-07-20T16:24:45Z</time>
      </trkpt>
      <trkpt lat="45.7508" lon="6.58699">
        <ele>1123</ele>
        <time>2025-07-20T16:24:48Z</time>
      </trkpt>
      <trkpt lat="45.75068" lon="6.58688">
        <ele>1121</ele>
        <time>2025-07-20T16:24:51Z</time>
      </trkpt>
      <trkpt lat="45.7506" lon="6.58679">
        <ele>1121</ele>
        <time>2025-07-20T16:24:52Z</time>
      </trkpt>
      <trkpt lat="45.7503" lon="6.58633">
        <ele>1121</ele>
        <time>2025-07-20T16:25:00Z</time>
      </trkpt>
      <trkpt lat="45.75014" lon="6.58605">
        <ele>1122</ele>
        <time>2025-07-20T16:25:05Z</time>
      </trkpt>
      <trkpt lat="45.7499" lon="6.58569">
        <ele>1122</ele>
        <time>2025-07-20T16:25:11Z</time>
      </trkpt>
      <trkpt lat="45.74974" lon="6.58543">
        <ele>1120</ele>
        <time>2025-07-20T16:25:15Z</time>
      </trkpt>
      <trkpt lat="45.74956" lon="6.58509">
        <ele>1121</ele>
        <time>2025-07-20T16:25:20Z</time>
      </trkpt>
      <trkpt lat="45.7494" lon="6.58474">
        <ele>1122</ele>
        <time>2025-07-20T16:25:26Z</time>
      </trkpt>
      <trkpt lat="45.74926" lon="6.5844">
        <ele>1124</ele>
        <time>2025-07-20T16:25:31Z</time>
      </trkpt>
      <trkpt lat="45.74914" lon="6.58413">
        <ele>1126</ele>
        <time>2025-07-20T16:25:35Z</time>
      </trkpt>
      <trkpt lat="45.749" lon="6.5839">
        <ele>1125</ele>
        <time>2025-07-20T16:25:38Z</time>
      </trkpt>
      <trkpt lat="45.74863" lon="6.58333">
        <ele>1121</ele>
        <time>2025-07-20T16:25:48Z</time>
      </trkpt>
      <trkpt lat="45.74855" lon="6.5832">
        <ele>1121</ele>
        <time>2025-07-20T16:25:50Z</time>
      </trkpt>
      <trkpt lat="45.74849" lon="6.58309">
        <ele>1121</ele>
        <time>2025-07-20T16:25:52Z</time>
      </trkpt>
      <trkpt lat="45.74847" lon="6.58299">
        <ele>1123</ele>
        <time>2025-07-20T16:25:53Z</time>
      </trkpt>
      <trkpt lat="45.74847" lon="6.5829">
        <ele>1125</ele>
        <time>2025-07-20T16:25:54Z</time>
      </trkpt>
      <trkpt lat="45.7485" lon="6.58285">
        <ele>1126</ele>
        <time>2025-07-20T16:25:55Z</time>
      </trkpt>
      <trkpt lat="45.74854" lon="6.58281">
        <ele>1128</ele>
        <time>2025-07-20T16:25:56Z</time>
      </trkpt>
      <trkpt lat="45.74857" lon="6.5828">
        <ele>1129</ele>
        <time>2025-07-20T16:25:57Z</time>
      </trkpt>
      <trkpt lat="45.74861" lon="6.58282">
        <ele>1130</ele>
        <time>2025-07-20T16:25:57Z</time>
      </trkpt>
      <trkpt lat="45.74922" lon="6.58365">
        <ele>1135</ele>
        <time>2025-07-20T16:26:12Z</time>
      </trkpt>
      <trkpt lat="45.74953" lon="6.584">
        <ele>1137</ele>
        <time>2025-07-20T16:26:19Z</time>
      </trkpt>
      <trkpt lat="45.74962" lon="6.58409">
        <ele>1138</ele>
        <time>2025-07-20T16:26:21Z</time>
      </trkpt>
      <trkpt lat="45.74969" lon="6.58411">
        <ele>1139</ele>
        <time>2025-07-20T16:26:23Z</time>
      </trkpt>
      <trkpt lat="45.74975" lon="6.58411">
        <ele>1141</ele>
        <time>2025-07-20T16:26:24Z</time>
      </trkpt>
      <trkpt lat="45.74976" lon="6.58405">
        <ele>1142</ele>
        <time>2025-07-20T16:26:24Z</time>
      </trkpt>
      <trkpt lat="45.74975" lon="6.58401">
        <ele>1142</ele>
        <time>2025-07-20T16:26:25Z</time>
      </trkpt>
      <trkpt lat="45.74974" lon="6.58394">
        <ele>1143</ele>
        <time>2025-07-20T16:26:26Z</time>
      </trkpt>
      <trkpt lat="45.74971" lon="6.58391">
        <ele>1143</ele>
        <time>2025-07-20T16:26:26Z</time>
      </trkpt>
      <trkpt lat="45.74958" lon="6.58382">
        <ele>1141</ele>
        <time>2025-07-20T16:26:29Z</time>
      </trkpt>
      <trkpt lat="45.74949" lon="6.58375">
        <ele>1140</ele>
        <time>2025-07-20T16:26:31Z</time>
      </trkpt>
      <trkpt lat="45.74943" lon="6.58368">
        <ele>1140</ele>
        <time>2025-07-20T16:26:32Z</time>
      </trkpt>
      <trkpt lat="45.74934" lon="6.58355">
        <ele>1139</ele>
        <time>2025-07-20T16:26:34Z</time>
      </trkpt>
      <trkpt lat="45.74922" lon="6.58333">
        <ele>1139</ele>
        <time>2025-07-20T16:26:38Z</time>
      </trkpt>
      <trkpt lat="45.74912" lon="6.58307">
        <ele>1140</ele>
        <time>2025-07-20T16:26:42Z</time>
      </trkpt>
      <trkpt lat="45.74901" lon="6.58264">
        <ele>1143</ele>
        <time>2025-07-20T16:26:47Z</time>
      </trkpt>
      <trkpt lat="45.74894" lon="6.58232">
        <ele>1144</ele>
        <time>2025-07-20T16:26:51Z</time>
      </trkpt>
      <trkpt lat="45.74888" lon="6.582">
        <ele>1145</ele>
        <time>2025-07-20T16:26:56Z</time>
      </trkpt>
      <trkpt lat="45.74885" lon="6.58184">
        <ele>1145</ele>
        <time>2025-07-20T16:26:58Z</time>
      </trkpt>
      <trkpt lat="45.74881" lon="6.58131">
        <ele>1149</ele>
        <time>2025-07-20T16:27:04Z</time>
      </trkpt>
      <trkpt lat="45.74877" lon="6.58096">
        <ele>1152</ele>
        <time>2025-07-20T16:27:09Z</time>
      </trkpt>
      <trkpt lat="45.74875" lon="6.58083">
        <ele>1153</ele>
        <time>2025-07-20T16:27:10Z</time>
      </trkpt>
      <trkpt lat="45.74863" lon="6.5805">
        <ele>1152</ele>
        <time>2025-07-20T16:27:15Z</time>
      </trkpt>
      <trkpt lat="45.74858" lon="6.58032">
        <ele>1152</ele>
        <time>2025-07-20T16:27:17Z</time>
      </trkpt>
      <trkpt lat="45.74854" lon="6.58014">
        <ele>1152</ele>
        <time>2025-07-20T16:27:20Z</time>
      </trkpt>
      <trkpt lat="45.74853" lon="6.57987">
        <ele>1153</ele>
        <time>2025-07-20T16:27:23Z</time>
      </trkpt>
      <trkpt lat="45.74855" lon="6.57969">
        <ele>1154</ele>
        <time>2025-07-20T16:27:25Z</time>
      </trkpt>
      <trkpt lat="45.74857" lon="6.57959">
        <ele>1155</ele>
        <time>2025-07-20T16:27:27Z</time>
      </trkpt>
      <trkpt lat="45.74862" lon="6.5795">
        <ele>1156</ele>
        <time>2025-07-20T16:27:28Z</time>
      </trkpt>
      <trkpt lat="45.74867" lon="6.57944">
        <ele>1157</ele>
        <time>2025-07-20T16:27:29Z</time>
      </trkpt>
      <trkpt lat="45.74876" lon="6.57939">
        <ele>1158</ele>
        <time>2025-07-20T16:27:31Z</time>
      </trkpt>
      <trkpt lat="45.74896" lon="6.57934">
        <ele>1162</ele>
        <time>2025-07-20T16:27:34Z</time>
      </trkpt>
      <trkpt lat="45.749" lon="6.57929">
        <ele>1163</ele>
        <time>2025-07-20T16:27:35Z</time>
      </trkpt>
      <trkpt lat="45.74904" lon="6.57921">
        <ele>1163</ele>
        <time>2025-07-20T16:27:37Z</time>
      </trkpt>
      <trkpt lat="45.74905" lon="6.57916">
        <ele>1163</ele>
        <time>2025-07-20T16:27:37Z</time>
      </trkpt>
      <trkpt lat="45.74905" lon="6.5791">
        <ele>1164</ele>
        <time>2025-07-20T16:27:38Z</time>
      </trkpt>
      <trkpt lat="45.74899" lon="6.57897">
        <ele>1165</ele>
        <time>2025-07-20T16:27:40Z</time>
      </trkpt>
      <trkpt lat="45.74894" lon="6.57892">
        <ele>1164</ele>
        <time>2025-07-20T16:27:41Z</time>
      </trkpt>
      <trkpt lat="45.74889" lon="6.57889">
        <ele>1164</ele>
        <time>2025-07-20T16:27:42Z</time>
      </trkpt>
      <trkpt lat="45.74873" lon="6.57881">
        <ele>1163</ele>
        <time>2025-07-20T16:27:45Z</time>
      </trkpt>
      <trkpt lat="45.74845" lon="6.5787">
        <ele>1161</ele>
        <time>2025-07-20T16:27:50Z</time>
      </trkpt>
      <trkpt lat="45.74842" lon="6.57868">
        <ele>1161</ele>
        <time>2025-07-20T16:27:51Z</time>
      </trkpt>
      <trkpt lat="45.7483" lon="6.57867">
        <ele>1159</ele>
        <time>2025-07-20T16:27:53Z</time>
      </trkpt>
      <trkpt lat="45.74814" lon="6.57864">
        <ele>1158</ele>
        <time>2025-07-20T16:27:56Z</time>
      </trkpt>
      <trkpt lat="45.74804" lon="6.57859">
        <ele>1158</ele>
        <time>2025-07-20T16:27:58Z</time>
      </trkpt>
      <trkpt lat="45.74796" lon="6.57853">
        <ele>1158</ele>
        <time>2025-07-20T16:27:59Z</time>
      </trkpt>
      <trkpt lat="45.74789" lon="6.57843">
        <ele>1159</ele>
        <time>2025-07-20T16:28:01Z</time>
      </trkpt>
      <trkpt lat="45.74783" lon="6.57833">
        <ele>1159</ele>
        <time>2025-07-20T16:28:03Z</time>
      </trkpt>
      <trkpt lat="45.74778" lon="6.57821">
        <ele>1160</ele>
        <time>2025-07-20T16:28:04Z</time>
      </trkpt>
      <trkpt lat="45.74775" lon="6.57811">
        <ele>1161</ele>
        <time>2025-07-20T16:28:06Z</time>
      </trkpt>
      <trkpt lat="45.74772" lon="6.57795">
        <ele>1162</ele>
        <time>2025-07-20T16:28:08Z</time>
      </trkpt>
      <trkpt lat="45.74767" lon="6.5775">
        <ele>1166</ele>
        <time>2025-07-20T16:28:14Z</time>
      </trkpt>
      <trkpt lat="45.74765" lon="6.57741">
        <ele>1167</ele>
        <time>2025-07-20T16:28:15Z</time>
      </trkpt>
      <trkpt lat="45.74762" lon="6.57728">
        <ele>1168</ele>
        <time>2025-07-20T16:28:16Z</time>
      </trkpt>
      <trkpt lat="45.74755" lon="6.57712">
        <ele>1169</ele>
        <time>2025-07-20T16:28:19Z</time>
      </trkpt>
      <trkpt lat="45.74729" lon="6.57662">
        <ele>1171</ele>
        <time>2025-07-20T16:28:26Z</time>
      </trkpt>
      <trkpt lat="45.74706" lon="6.57618">
        <ele>1176</ele>
        <time>2025-07-20T16:28:33Z</time>
      </trkpt>
      <trkpt lat="45.74698" lon="6.57603">
        <ele>1177</ele>
        <time>2025-07-20T16:28:36Z</time>
      </trkpt>
      <trkpt lat="45.74658" lon="6.57522">
        <ele>1183</ele>
        <time>2025-07-20T16:28:48Z</time>
      </trkpt>
      <trkpt lat="45.74637" lon="6.5747">
        <ele>1189</ele>
        <time>2025-07-20T16:28:55Z</time>
      </trkpt>
      <trkpt lat="45.74624" lon="6.57437">
        <ele>1193</ele>
        <time>2025-07-20T16:29:00Z</time>
      </trkpt>
      <trkpt lat="45.74623" lon="6.5743">
        <ele>1194</ele>
        <time>2025-07-20T16:29:01Z</time>
      </trkpt>
      <trkpt lat="45.74622" lon="6.57427">
        <ele>1194</ele>
        <time>2025-07-20T16:29:01Z</time>
      </trkpt>
      <trkpt lat="45.74629" lon="6.57425">
        <ele>1196</ele>
        <time>2025-07-20T16:29:03Z</time>
      </trkpt>
      <trkpt lat="45.74634" lon="6.57426">
        <ele>1197</ele>
        <time>2025-07-20T16:29:04Z</time>
      </trkpt>
      <trkpt lat="45.74638" lon="6.57429">
        <ele>1198</ele>
        <time>2025-07-20T16:29:04Z</time>
      </trkpt>
      <trkpt lat="45.74642" lon="6.57434">
        <ele>1198</ele>
        <time>2025-07-20T16:29:05Z</time>
      </trkpt>
      <trkpt lat="45.74655" lon="6.57461">
        <ele>1195</ele>
        <time>2025-07-20T16:29:09Z</time>
      </trkpt>
      <trkpt lat="45.74662" lon="6.57473">
        <ele>1194</ele>
        <time>2025-07-20T16:29:11Z</time>
      </trkpt>
      <trkpt lat="45.74669" lon="6.57482">
        <ele>1194</ele>
        <time>2025-07-20T16:29:13Z</time>
      </trkpt>
      <trkpt lat="45.74681" lon="6.57492">
        <ele>1195</ele>
        <time>2025-07-20T16:29:15Z</time>
      </trkpt>
      <trkpt lat="45.74739" lon="6.57526">
        <ele>1204</ele>
        <time>2025-07-20T16:29:27Z</time>
      </trkpt>
      <trkpt lat="45.74748" lon="6.57532">
        <ele>1205</ele>
        <time>2025-07-20T16:29:28Z</time>
      </trkpt>
      <trkpt lat="45.74768" lon="6.5754">
        <ele>1209</ele>
        <time>2025-07-20T16:29:32Z</time>
      </trkpt>
      <trkpt lat="45.74826" lon="6.5756">
        <ele>1218</ele>
        <time>2025-07-20T16:29:43Z</time>
      </trkpt>
      <trkpt lat="45.74838" lon="6.57566">
        <ele>1219</ele>
        <time>2025-07-20T16:29:45Z</time>
      </trkpt>
      <trkpt lat="45.74848" lon="6.57572">
        <ele>1219</ele>
        <time>2025-07-20T16:29:47Z</time>
      </trkpt>
      <trkpt lat="45.74856" lon="6.5758">
        <ele>1218</ele>
        <time>2025-07-20T16:29:49Z</time>
      </trkpt>
      <trkpt lat="45.74867" lon="6.57594">
        <ele>1217</ele>
        <time>2025-07-20T16:29:51Z</time>
      </trkpt>
      <trkpt lat="45.74875" lon="6.57602">
        <ele>1217</ele>
        <time>2025-07-20T16:29:53Z</time>
      </trkpt>
      <trkpt lat="45.74895" lon="6.57615">
        <ele>1218</ele>
        <time>2025-07-20T16:29:57Z</time>
      </trkpt>
      <trkpt lat="45.7492" lon="6.57627">
        <ele>1221</ele>
        <time>2025-07-20T16:30:02Z</time>
      </trkpt>
      <trkpt lat="45.74934" lon="6.57632">
        <ele>1222</ele>
        <time>2025-07-20T16:30:04Z</time>
      </trkpt>
      <trkpt lat="45.74948" lon="6.57635">
        <ele>1224</ele>
        <time>2025-07-20T16:30:07Z</time>
      </trkpt>
      <trkpt lat="45.74965" lon="6.57639">
        <ele>1226</ele>
        <time>2025-07-20T16:30:10Z</time>
      </trkpt>
      <trkpt lat="45.75013" lon="6.57663">
        <ele>1229</ele>
        <time>2025-07-20T16:30:19Z</time>
      </trkpt>
      <trkpt lat="45.75032" lon="6.5767">
        <ele>1231</ele>
        <time>2025-07-20T16:30:22Z</time>
      </trkpt>
      <trkpt lat="45.75052" lon="6.57676">
        <ele>1233</ele>
        <time>2025-07-20T16:30:26Z</time>
      </trkpt>
      <trkpt lat="45.75059" lon="6.57675">
        <ele>1235</ele>
        <time>2025-07-20T16:30:27Z</time>
      </trkpt>
      <trkpt lat="45.75076" lon="6.57669">
        <ele>1240</ele>
        <time>2025-07-20T16:30:30Z</time>
      </trkpt>
      <trkpt lat="45.75084" lon="6.57669">
        <ele>1242</ele>
        <time>2025-07-20T16:30:32Z</time>
      </trkpt>
      <trkpt lat="45.75093" lon="6.57673">
        <ele>1243</ele>
        <time>2025-07-20T16:30:33Z</time>
      </trkpt>
      <trkpt lat="45.75123" lon="6.57702">
        <ele>1245</ele>
        <time>2025-07-20T16:30:40Z</time>
      </trkpt>
      <trkpt lat="45.75128" lon="6.57712">
        <ele>1244</ele>
        <time>2025-07-20T16:30:41Z</time>
      </trkpt>
      <trkpt lat="45.75132" lon="6.57722">
        <ele>1243</ele>
        <time>2025-07-20T16:30:43Z</time>
      </trkpt>
      <trkpt lat="45.75139" lon="6.57749">
        <ele>1239</ele>
        <time>2025-07-20T16:30:46Z</time>
      </trkpt>
      <trkpt lat="45.75142" lon="6.57758">
        <ele>1239</ele>
        <time>2025-07-20T16:30:48Z</time>
      </trkpt>
      <trkpt lat="45.75147" lon="6.57765">
        <ele>1239</ele>
        <time>2025-07-20T16:30:49Z</time>
      </trkpt>
      <trkpt lat="45.75152" lon="6.5777">
        <ele>1240</ele>
        <time>2025-07-20T16:30:50Z</time>
      </trkpt>
      <trkpt lat="45.75166" lon="6.57777">
        <ele>1243</ele>
        <time>2025-07-20T16:30:53Z</time>
      </trkpt>
      <trkpt lat="45.75178" lon="6.57782">
        <ele>1246</ele>
        <time>2025-07-20T16:30:55Z</time>
      </trkpt>
      <trkpt lat="45.75185" lon="6.57782">
        <ele>1249</ele>
        <time>2025-07-20T16:30:56Z</time>
      </trkpt>
      <trkpt lat="45.75188" lon="6.57781">
        <ele>1250</ele>
        <time>2025-07-20T16:30:57Z</time>
      </trkpt>
      <trkpt lat="45.75191" lon="6.57776">
        <ele>1252</ele>
        <time>2025-07-20T16:30:57Z</time>
      </trkpt>
      <trkpt lat="45.75191" lon="6.57771">
        <ele>1253</ele>
        <time>2025-07-20T16:30:58Z</time>
      </trkpt>
      <trkpt lat="45.7519" lon="6.57766">
        <ele>1253</ele>
        <time>2025-07-20T16:30:59Z</time>
      </trkpt>
      <trkpt lat="45.75187" lon="6.57762">
        <ele>1253</ele>
        <time>2025-07-20T16:30:59Z</time>
      </trkpt>
      <trkpt lat="45.75182" lon="6.57759">
        <ele>1252</ele>
        <time>2025-07-20T16:31:00Z</time>
      </trkpt>
      <trkpt lat="45.75172" lon="6.57757">
        <ele>1249</ele>
        <time>2025-07-20T16:31:02Z</time>
      </trkpt>
      <trkpt lat="45.75166" lon="6.57755">
        <ele>1247</ele>
        <time>2025-07-20T16:31:03Z</time>
      </trkpt>
      <trkpt lat="45.75163" lon="6.57751">
        <ele>1247</ele>
        <time>2025-07-20T16:31:04Z</time>
      </trkpt>
      <trkpt lat="45.7516" lon="6.57744">
        <ele>1247</ele>
        <time>2025-07-20T16:31:05Z</time>
      </trkpt>
      <trkpt lat="45.75159" lon="6.57732">
        <ele>1249</ele>
        <time>2025-07-20T16:31:07Z</time>
      </trkpt>
      <trkpt lat="45.75159" lon="6.57699">
        <ele>1256</ele>
        <time>2025-07-20T16:31:11Z</time>
      </trkpt>
      <trkpt lat="45.75157" lon="6.57688">
        <ele>1258</ele>
        <time>2025-07-20T16:31:12Z</time>
      </trkpt>
      <trkpt lat="45.75153" lon="6.57676">
        <ele>1259</ele>
        <time>2025-07-20T16:31:14Z</time>
      </trkpt>
      <trkpt lat="45.75144" lon="6.57662">
        <ele>1260</ele>
        <time>2025-07-20T16:31:16Z</time>
      </trkpt>
      <trkpt lat="45.75134" lon="6.57651">
        <ele>1260</ele>
        <time>2025-07-20T16:31:18Z</time>
      </trkpt>
      <trkpt lat="45.75107" lon="6.57611">
        <ele>1266</ele>
        <time>2025-07-20T16:31:25Z</time>
      </trkpt>
      <trkpt lat="45.75098" lon="6.57602">
        <ele>1266</ele>
        <time>2025-07-20T16:31:27Z</time>
      </trkpt>
      <trkpt lat="45.7509" lon="6.57598">
        <ele>1266</ele>
        <time>2025-07-20T16:31:29Z</time>
      </trkpt>
      <trkpt lat="45.7507" lon="6.57594">
        <ele>1262</ele>
        <time>2025-07-20T16:31:32Z</time>
      </trkpt>
      <trkpt lat="45.75063" lon="6.5759">
        <ele>1262</ele>
        <time>2025-07-20T16:31:34Z</time>
      </trkpt>
      <trkpt lat="45.75055" lon="6.57583">
        <ele>1262</ele>
        <time>2025-07-20T16:31:35Z</time>
      </trkpt>
      <trkpt lat="45.75029" lon="6.57551">
        <ele>1267</ele>
        <time>2025-07-20T16:31:41Z</time>
      </trkpt>
      <trkpt lat="45.75021" lon="6.57534">
        <ele>1271</ele>
        <time>2025-07-20T16:31:44Z</time>
      </trkpt>
      <trkpt lat="45.75013" lon="6.57516">
        <ele>1275</ele>
        <time>2025-07-20T16:31:47Z</time>
      </trkpt>
      <trkpt lat="45.75004" lon="6.57505">
        <ele>1276</ele>
        <time>2025-07-20T16:31:49Z</time>
      </trkpt>
      <trkpt lat="45.74993" lon="6.57497">
        <ele>1277</ele>
        <time>2025-07-20T16:31:51Z</time>
      </trkpt>
      <trkpt lat="45.74979" lon="6.57491">
        <ele>1277</ele>
        <time>2025-07-20T16:31:53Z</time>
      </trkpt>
      <trkpt lat="45.7497" lon="6.57486">
        <ele>1277</ele>
        <time>2025-07-20T16:31:55Z</time>
      </trkpt>
      <trkpt lat="45.74964" lon="6.5748">
        <ele>1279</ele>
        <time>2025-07-20T16:31:56Z</time>
      </trkpt>
      <trkpt lat="45.74952" lon="6.57462">
        <ele>1285</ele>
        <time>2025-07-20T16:32:00Z</time>
      </trkpt>
      <trkpt lat="45.74943" lon="6.57448">
        <ele>1289</ele>
        <time>2025-07-20T16:32:02Z</time>
      </trkpt>
      <trkpt lat="45.74935" lon="6.57437">
        <ele>1292</ele>
        <time>2025-07-20T16:32:04Z</time>
      </trkpt>
      <trkpt lat="45.74885" lon="6.57387">
        <ele>1299</ele>
        <time>2025-07-20T16:32:15Z</time>
      </trkpt>
      <trkpt lat="45.74865" lon="6.57365">
        <ele>1301</ele>
        <time>2025-07-20T16:32:19Z</time>
      </trkpt>
      <trkpt lat="45.74843" lon="6.57338">
        <ele>1302</ele>
        <time>2025-07-20T16:32:24Z</time>
      </trkpt>
      <trkpt lat="45.74818" lon="6.5731">
        <ele>1304</ele>
        <time>2025-07-20T16:32:30Z</time>
      </trkpt>
      <trkpt lat="45.74794" lon="6.57279">
        <ele>1307</ele>
        <time>2025-07-20T16:32:36Z</time>
      </trkpt>
      <trkpt lat="45.74781" lon="6.57259">
        <ele>1310</ele>
        <time>2025-07-20T16:32:39Z</time>
      </trkpt>
      <trkpt lat="45.74772" lon="6.57242">
        <ele>1313</ele>
        <time>2025-07-20T16:32:42Z</time>
      </trkpt>
      <trkpt lat="45.74766" lon="6.57231">
        <ele>1315</ele>
        <time>2025-07-20T16:32:44Z</time>
      </trkpt>
      <trkpt lat="45.74756" lon="6.57203">
        <ele>1322</ele>
        <time>2025-07-20T16:32:47Z</time>
      </trkpt>
      <trkpt lat="45.74751" lon="6.57197">
        <ele>1323</ele>
        <time>2025-07-20T16:32:49Z</time>
      </trkpt>
      <trkpt lat="45.74747" lon="6.57193">
        <ele>1323</ele>
        <time>2025-07-20T16:32:49Z</time>
      </trkpt>
      <trkpt lat="45.74698" lon="6.57159">
        <ele>1324</ele>
        <time>2025-07-20T16:32:59Z</time>
      </trkpt>
      <trkpt lat="45.74655" lon="6.57122">
        <ele>1326</ele>
        <time>2025-07-20T16:33:08Z</time>
      </trkpt>
      <trkpt lat="45.74622" lon="6.571">
        <ele>1326</ele>
        <time>2025-07-20T16:33:15Z</time>
      </trkpt>
      <trkpt lat="45.74589" lon="6.57071">
        <ele>1327</ele>
        <time>2025-07-20T16:33:21Z</time>
      </trkpt>
      <trkpt lat="45.7456" lon="6.57055">
        <ele>1325</ele>
        <time>2025-07-20T16:33:27Z</time>
      </trkpt>
      <trkpt lat="45.74541" lon="6.57041">
        <ele>1325</ele>
        <time>2025-07-20T16:33:31Z</time>
      </trkpt>
      <trkpt lat="45.74523" lon="6.5703">
        <ele>1324</ele>
        <time>2025-07-20T16:33:34Z</time>
      </trkpt>
      <trkpt lat="45.7451" lon="6.57017">
        <ele>1325</ele>
        <time>2025-07-20T16:33:37Z</time>
      </trkpt>
      <trkpt lat="45.74495" lon="6.56998">
        <ele>1326</ele>
        <time>2025-07-20T16:33:41Z</time>
      </trkpt>
      <trkpt lat="45.7446" lon="6.56942">
        <ele>1327</ele>
        <time>2025-07-20T16:33:50Z</time>
      </trkpt>
      <trkpt lat="45.74455" lon="6.5693">
        <ele>1328</ele>
        <time>2025-07-20T16:33:52Z</time>
      </trkpt>
      <trkpt lat="45.74453" lon="6.56917">
        <ele>1330</ele>
        <time>2025-07-20T16:33:53Z</time>
      </trkpt>
      <trkpt lat="45.74452" lon="6.56901">
        <ele>1332</ele>
        <time>2025-07-20T16:33:55Z</time>
      </trkpt>
      <trkpt lat="45.74458" lon="6.56872">
        <ele>1337</ele>
        <time>2025-07-20T16:33:59Z</time>
      </trkpt>
      <trkpt lat="45.74463" lon="6.56845">
        <ele>1342</ele>
        <time>2025-07-20T16:34:03Z</time>
      </trkpt>
      <trkpt lat="45.74463" lon="6.56828">
        <ele>1344</ele>
        <time>2025-07-20T16:34:05Z</time>
      </trkpt>
      <trkpt lat="45.74462" lon="6.56812">
        <ele>1345</ele>
        <time>2025-07-20T16:34:07Z</time>
      </trkpt>
      <trkpt lat="45.7446" lon="6.568">
        <ele>1345</ele>
        <time>2025-07-20T16:34:08Z</time>
      </trkpt>
      <trkpt lat="45.74454" lon="6.56784">
        <ele>1346</ele>
        <time>2025-07-20T16:34:10Z</time>
      </trkpt>
      <trkpt lat="45.74445" lon="6.56766">
        <ele>1346</ele>
        <time>2025-07-20T16:34:13Z</time>
      </trkpt>
      <trkpt lat="45.74442" lon="6.56759">
        <ele>1346</ele>
        <time>2025-07-20T16:34:14Z</time>
      </trkpt>
      <trkpt lat="45.7443" lon="6.56736">
        <ele>1348</ele>
        <time>2025-07-20T16:34:18Z</time>
      </trkpt>
      <trkpt lat="45.74419" lon="6.56719">
        <ele>1349</ele>
        <time>2025-07-20T16:34:21Z</time>
      </trkpt>
      <trkpt lat="45.74401" lon="6.56697">
        <ele>1348</ele>
        <time>2025-07-20T16:34:25Z</time>
      </trkpt>
      <trkpt lat="45.74382" lon="6.56672">
        <ele>1348</ele>
        <time>2025-07-20T16:34:29Z</time>
      </trkpt>
      <trkpt lat="45.74372" lon="6.56654">
        <ele>1348</ele>
        <time>2025-07-20T16:34:32Z</time>
      </trkpt>
      <trkpt lat="45.74365" lon="6.56641">
        <ele>1349</ele>
        <time>2025-07-20T16:34:34Z</time>
      </trkpt>
      <trkpt lat="45.74358" lon="6.56623">
        <ele>1350</ele>
        <time>2025-07-20T16:34:37Z</time>
      </trkpt>
      <trkpt lat="45.74348" lon="6.56593">
        <ele>1353</ele>
        <time>2025-07-20T16:34:41Z</time>
      </trkpt>
      <trkpt lat="45.74306" lon="6.5651">
        <ele>1360</ele>
        <time>2025-07-20T16:34:54Z</time>
      </trkpt>
      <trkpt lat="45.74271" lon="6.56437">
        <ele>1366</ele>
        <time>2025-07-20T16:35:05Z</time>
      </trkpt>
      <trkpt lat="45.74263" lon="6.56413">
        <ele>1368</ele>
        <time>2025-07-20T16:35:08Z</time>
      </trkpt>
      <trkpt lat="45.74262" lon="6.56401">
        <ele>1368</ele>
        <time>2025-07-20T16:35:10Z</time>
      </trkpt>
      <trkpt lat="45.74263" lon="6.56391">
        <ele>1368</ele>
        <time>2025-07-20T16:35:11Z</time>
      </trkpt>
      <trkpt lat="45.74264" lon="6.5638">
        <ele>1369</ele>
        <time>2025-07-20T16:35:12Z</time>
      </trkpt>
      <trkpt lat="45.74267" lon="6.56372">
        <ele>1369</ele>
        <time>2025-07-20T16:35:13Z</time>
      </trkpt>
      <trkpt lat="45.74275" lon="6.56362">
        <ele>1370</ele>
        <time>2025-07-20T16:35:15Z</time>
      </trkpt>
      <trkpt lat="45.74313" lon="6.56334">
        <ele>1374</ele>
        <time>2025-07-20T16:35:23Z</time>
      </trkpt>
      <trkpt lat="45.74322" lon="6.56326">
        <ele>1375</ele>
        <time>2025-07-20T16:35:25Z</time>
      </trkpt>
      <trkpt lat="45.74332" lon="6.56309">
        <ele>1378</ele>
        <time>2025-07-20T16:35:28Z</time>
      </trkpt>
      <trkpt lat="45.74336" lon="6.56295">
        <ele>1380</ele>
        <time>2025-07-20T16:35:29Z</time>
      </trkpt>
      <trkpt lat="45.74336" lon="6.56281">
        <ele>1382</ele>
        <time>2025-07-20T16:35:31Z</time>
      </trkpt>
      <trkpt lat="45.74331" lon="6.5626">
        <ele>1383</ele>
        <time>2025-07-20T16:35:34Z</time>
      </trkpt>
      <trkpt lat="45.74303" lon="6.56169">
        <ele>1384</ele>
        <time>2025-07-20T16:35:46Z</time>
      </trkpt>
      <trkpt lat="45.74301" lon="6.56153">
        <ele>1385</ele>
        <time>2025-07-20T16:35:48Z</time>
      </trkpt>
      <trkpt lat="45.74299" lon="6.56132">
        <ele>1387</ele>
        <time>2025-07-20T16:35:51Z</time>
      </trkpt>
      <trkpt lat="45.74298" lon="6.56108">
        <ele>1389</ele>
        <time>2025-07-20T16:35:54Z</time>
      </trkpt>
      <trkpt lat="45.74295" lon="6.5609">
        <ele>1391</ele>
        <time>2025-07-20T16:35:56Z</time>
      </trkpt>
      <trkpt lat="45.74292" lon="6.56076">
        <ele>1392</ele>
        <time>2025-07-20T16:35:58Z</time>
      </trkpt>
      <trkpt lat="45.74284" lon="6.56059">
        <ele>1393</ele>
        <time>2025-07-20T16:36:01Z</time>
      </trkpt>
      <trkpt lat="45.7427" lon="6.56039">
        <ele>1393</ele>
        <time>2025-07-20T16:36:04Z</time>
      </trkpt>
      <trkpt lat="45.74251" lon="6.56015">
        <ele>1392</ele>
        <time>2025-07-20T16:36:09Z</time>
      </trkpt>
      <trkpt lat="45.74237" lon="6.55997">
        <ele>1393</ele>
        <time>2025-07-20T16:36:12Z</time>
      </trkpt>
      <trkpt lat="45.74226" lon="6.55976">
        <ele>1395</ele>
        <time>2025-07-20T16:36:15Z</time>
      </trkpt>
      <trkpt lat="45.74215" lon="6.5595">
        <ele>1397</ele>
        <time>2025-07-20T16:36:19Z</time>
      </trkpt>
      <trkpt lat="45.74209" lon="6.55933">
        <ele>1399</ele>
        <time>2025-07-20T16:36:21Z</time>
      </trkpt>
      <trkpt lat="45.74209" lon="6.55924">
        <ele>1400</ele>
        <time>2025-07-20T16:36:22Z</time>
      </trkpt>
      <trkpt lat="45.74209" lon="6.55903">
        <ele>1402</ele>
        <time>2025-07-20T16:36:25Z</time>
      </trkpt>
      <trkpt lat="45.74209" lon="6.55895">
        <ele>1403</ele>
        <time>2025-07-20T16:36:26Z</time>
      </trkpt>
      <trkpt lat="45.74204" lon="6.55875">
        <ele>1405</ele>
        <time>2025-07-20T16:36:29Z</time>
      </trkpt>
      <trkpt lat="45.74202" lon="6.55845">
        <ele>1407</ele>
        <time>2025-07-20T16:36:32Z</time>
      </trkpt>
      <trkpt lat="45.74201" lon="6.55836">
        <ele>1408</ele>
        <time>2025-07-20T16:36:34Z</time>
      </trkpt>
      <trkpt lat="45.74194" lon="6.55818">
        <ele>1408</ele>
        <time>2025-07-20T16:36:36Z</time>
      </trkpt>
      <trkpt lat="45.74179" lon="6.55788">
        <ele>1408</ele>
        <time>2025-07-20T16:36:41Z</time>
      </trkpt>
      <trkpt lat="45.74175" lon="6.55776">
        <ele>1408</ele>
        <time>2025-07-20T16:36:42Z</time>
      </trkpt>
      <trkpt lat="45.74172" lon="6.55762">
        <ele>1408</ele>
        <time>2025-07-20T16:36:44Z</time>
      </trkpt>
      <trkpt lat="45.74167" lon="6.55699">
        <ele>1414</ele>
        <time>2025-07-20T16:36:52Z</time>
      </trkpt>
      <trkpt lat="45.74166" lon="6.55682">
        <ele>1416</ele>
        <time>2025-07-20T16:36:54Z</time>
      </trkpt>
      <trkpt lat="45.74163" lon="6.55667">
        <ele>1418</ele>
        <time>2025-07-20T16:36:56Z</time>
      </trkpt>
      <trkpt lat="45.74157" lon="6.55648">
        <ele>1418</ele>
        <time>2025-07-20T16:36:59Z</time>
      </trkpt>
      <trkpt lat="45.74156" lon="6.55643">
        <ele>1419</ele>
        <time>2025-07-20T16:36:59Z</time>
      </trkpt>
      <trkpt lat="45.74157" lon="6.55638">
        <ele>1419</ele>
        <time>2025-07-20T16:37:00Z</time>
      </trkpt>
      <trkpt lat="45.74159" lon="6.55635">
        <ele>1420</ele>
        <time>2025-07-20T16:37:00Z</time>
      </trkpt>
      <trkpt lat="45.74161" lon="6.55632">
        <ele>1420</ele>
        <time>2025-07-20T16:37:01Z</time>
      </trkpt>
      <trkpt lat="45.74165" lon="6.55632">
        <ele>1421</ele>
        <time>2025-07-20T16:37:02Z</time>
      </trkpt>
      <trkpt lat="45.74168" lon="6.55633">
        <ele>1421</ele>
        <time>2025-07-20T16:37:02Z</time>
      </trkpt>
      <trkpt lat="45.7417" lon="6.55636">
        <ele>1422</ele>
        <time>2025-07-20T16:37:03Z</time>
      </trkpt>
      <trkpt lat="45.74173" lon="6.55643">
        <ele>1422</ele>
        <time>2025-07-20T16:37:04Z</time>
      </trkpt>
      <trkpt lat="45.74186" lon="6.55684">
        <ele>1422</ele>
        <time>2025-07-20T16:37:09Z</time>
      </trkpt>
      <trkpt lat="45.74197" lon="6.55712">
        <ele>1421</ele>
        <time>2025-07-20T16:37:13Z</time>
      </trkpt>
      <trkpt lat="45.74207" lon="6.55731">
        <ele>1421</ele>
        <time>2025-07-20T16:37:16Z</time>
      </trkpt>
      <trkpt lat="45.74214" lon="6.55741">
        <ele>1421</ele>
        <time>2025-07-20T16:37:18Z</time>
      </trkpt>
      <trkpt lat="45.74221" lon="6.55748">
        <ele>1421</ele>
        <time>2025-07-20T16:37:20Z</time>
      </trkpt>
      <trkpt lat="45.74228" lon="6.55753">
        <ele>1422</ele>
        <time>2025-07-20T16:37:21Z</time>
      </trkpt>
      <trkpt lat="45.74252" lon="6.55765">
        <ele>1427</ele>
        <time>2025-07-20T16:37:25Z</time>
      </trkpt>
      <trkpt lat="45.74258" lon="6.55771">
        <ele>1427</ele>
        <time>2025-07-20T16:37:27Z</time>
      </trkpt>
      <trkpt lat="45.74275" lon="6.55793">
        <ele>1428</ele>
        <time>2025-07-20T16:37:31Z</time>
      </trkpt>
      <trkpt lat="45.74279" lon="6.55797">
        <ele>1429</ele>
        <time>2025-07-20T16:37:32Z</time>
      </trkpt>
      <trkpt lat="45.74285" lon="6.558">
        <ele>1429</ele>
        <time>2025-07-20T16:37:33Z</time>
      </trkpt>
      <trkpt lat="45.74296" lon="6.55803">
        <ele>1432</ele>
        <time>2025-07-20T16:37:35Z</time>
      </trkpt>
      <trkpt lat="45.74352" lon="6.55814">
        <ele>1443</ele>
        <time>2025-07-20T16:37:45Z</time>
      </trkpt>
      <trkpt lat="45.74361" lon="6.55818">
        <ele>1444</ele>
        <time>2025-07-20T16:37:47Z</time>
      </trkpt>
      <trkpt lat="45.74366" lon="6.55822">
        <ele>1445</ele>
        <time>2025-07-20T16:37:48Z</time>
      </trkpt>
      <trkpt lat="45.74371" lon="6.55829">
        <ele>1445</ele>
        <time>2025-07-20T16:37:49Z</time>
      </trkpt>
      <trkpt lat="45.74388" lon="6.55883">
        <ele>1441</ele>
        <time>2025-07-20T16:37:56Z</time>
      </trkpt>
      <trkpt lat="45.74401" lon="6.5592">
        <ele>1439</ele>
        <time>2025-07-20T16:38:01Z</time>
      </trkpt>
      <trkpt lat="45.74405" lon="6.55929">
        <ele>1439</ele>
        <time>2025-07-20T16:38:03Z</time>
      </trkpt>
      <trkpt lat="45.74409" lon="6.55933">
        <ele>1439</ele>
        <time>2025-07-20T16:38:04Z</time>
      </trkpt>
      <trkpt lat="45.74414" lon="6.55936">
        <ele>1440</ele>
        <time>2025-07-20T16:38:05Z</time>
      </trkpt>
      <trkpt lat="45.74417" lon="6.55935">
        <ele>1441</ele>
        <time>2025-07-20T16:38:05Z</time>
      </trkpt>
      <trkpt lat="45.7442" lon="6.55933">
        <ele>1442</ele>
        <time>2025-07-20T16:38:06Z</time>
      </trkpt>
      <trkpt lat="45.74421" lon="6.55929">
        <ele>1442</ele>
        <time>2025-07-20T16:38:06Z</time>
      </trkpt>
      <trkpt lat="45.74422" lon="6.55924">
        <ele>1443</ele>
        <time>2025-07-20T16:38:07Z</time>
      </trkpt>
      <trkpt lat="45.74421" lon="6.55919">
        <ele>1443</ele>
        <time>2025-07-20T16:38:07Z</time>
      </trkpt>
      <trkpt lat="45.7442" lon="6.55916">
        <ele>1444</ele>
        <time>2025-07-20T16:38:08Z</time>
      </trkpt>
      <trkpt lat="45.74406" lon="6.55898">
        <ele>1443</ele>
        <time>2025-07-20T16:38:11Z</time>
      </trkpt>
      <trkpt lat="45.74403" lon="6.55891">
        <ele>1444</ele>
        <time>2025-07-20T16:38:12Z</time>
      </trkpt>
      <trkpt lat="45.744" lon="6.55876">
        <ele>1445</ele>
        <time>2025-07-20T16:38:14Z</time>
      </trkpt>
      <trkpt lat="45.74399" lon="6.55865">
        <ele>1446</ele>
        <time>2025-07-20T16:38:16Z</time>
      </trkpt>
      <trkpt lat="45.74402" lon="6.55821">
        <ele>1453</ele>
        <time>2025-07-20T16:38:21Z</time>
      </trkpt>
      <trkpt lat="45.744" lon="6.55803">
        <ele>1456</ele>
        <time>2025-07-20T16:38:23Z</time>
      </trkpt>
      <trkpt lat="45.74397" lon="6.55793">
        <ele>1457</ele>
        <time>2025-07-20T16:38:25Z</time>
      </trkpt>
      <trkpt lat="45.74393" lon="6.55785">
        <ele>1457</ele>
        <time>2025-07-20T16:38:26Z</time>
      </trkpt>
      <trkpt lat="45.74376" lon="6.55761">
        <ele>1457</ele>
        <time>2025-07-20T16:38:30Z</time>
      </trkpt>
      <trkpt lat="45.7437" lon="6.55748">
        <ele>1458</ele>
        <time>2025-07-20T16:38:32Z</time>
      </trkpt>
      <trkpt lat="45.74367" lon="6.55738">
        <ele>1459</ele>
        <time>2025-07-20T16:38:33Z</time>
      </trkpt>
      <trkpt lat="45.74363" lon="6.55715">
        <ele>1462</ele>
        <time>2025-07-20T16:38:36Z</time>
      </trkpt>
      <trkpt lat="45.74357" lon="6.55698">
        <ele>1463</ele>
        <time>2025-07-20T16:38:39Z</time>
      </trkpt>
      <trkpt lat="45.7435" lon="6.55685">
        <ele>1464</ele>
        <time>2025-07-20T16:38:41Z</time>
      </trkpt>
      <trkpt lat="45.74334" lon="6.55664">
        <ele>1463</ele>
        <time>2025-07-20T16:38:45Z</time>
      </trkpt>
      <trkpt lat="45.74326" lon="6.5565">
        <ele>1463</ele>
        <time>2025-07-20T16:38:47Z</time>
      </trkpt>
      <trkpt lat="45.74323" lon="6.55639">
        <ele>1464</ele>
        <time>2025-07-20T16:38:48Z</time>
      </trkpt>
      <trkpt lat="45.74319" lon="6.55622">
        <ele>1465</ele>
        <time>2025-07-20T16:38:51Z</time>
      </trkpt>
      <trkpt lat="45.74318" lon="6.55605">
        <ele>1466</ele>
        <time>2025-07-20T16:38:53Z</time>
      </trkpt>
      <trkpt lat="45.74318" lon="6.55579">
        <ele>1469</ele>
        <time>2025-07-20T16:38:56Z</time>
      </trkpt>
      <trkpt lat="45.74313" lon="6.55545">
        <ele>1471</ele>
        <time>2025-07-20T16:39:00Z</time>
      </trkpt>
      <trkpt lat="45.74307" lon="6.55522">
        <ele>1471</ele>
        <time>2025-07-20T16:39:03Z</time>
      </trkpt>
      <trkpt lat="45.74297" lon="6.55484">
        <ele>1471</ele>
        <time>2025-07-20T16:39:08Z</time>
      </trkpt>
      <trkpt lat="45.74295" lon="6.55468">
        <ele>1471</ele>
        <time>2025-07-20T16:39:10Z</time>
      </trkpt>
      <trkpt lat="45.74295" lon="6.55449">
        <ele>1472</ele>
        <time>2025-07-20T16:39:13Z</time>
      </trkpt>
      <trkpt lat="45.74304" lon="6.55394">
        <ele>1477</ele>
        <time>2025-07-20T16:39:20Z</time>
      </trkpt>
      <trkpt lat="45.74314" lon="6.55336">
        <ele>1481</ele>
        <time>2025-07-20T16:39:27Z</time>
      </trkpt>
      <trkpt lat="45.74316" lon="6.55312">
        <ele>1484</ele>
        <time>2025-07-20T16:39:30Z</time>
      </trkpt>
      <trkpt lat="45.74314" lon="6.55299">
        <ele>1484</ele>
        <time>2025-07-20T16:39:32Z</time>
      </trkpt>
      <trkpt lat="45.74309" lon="6.5527">
        <ele>1486</ele>
        <time>2025-07-20T16:39:36Z</time>
      </trkpt>
      <trkpt lat="45.74293" lon="6.55197">
        <ele>1487</ele>
        <time>2025-07-20T16:39:45Z</time>
      </trkpt>
      <trkpt lat="45.74292" lon="6.5518">
        <ele>1488</ele>
        <time>2025-07-20T16:39:47Z</time>
      </trkpt>
      <trkpt lat="45.74294" lon="6.55161">
        <ele>1489</ele>
        <time>2025-07-20T16:39:50Z</time>
      </trkpt>
      <trkpt lat="45.74301" lon="6.55122">
        <ele>1491</ele>
        <time>2025-07-20T16:39:55Z</time>
      </trkpt>
      <trkpt lat="45.74305" lon="6.55104">
        <ele>1492</ele>
        <time>2025-07-20T16:39:57Z</time>
      </trkpt>
      <trkpt lat="45.7431" lon="6.55091">
        <ele>1493</ele>
        <time>2025-07-20T16:39:59Z</time>
      </trkpt>
      <trkpt lat="45.74316" lon="6.5508">
        <ele>1494</ele>
        <time>2025-07-20T16:40:00Z</time>
      </trkpt>
      <trkpt lat="45.74322" lon="6.55072">
        <ele>1495</ele>
        <time>2025-07-20T16:40:02Z</time>
      </trkpt>
      <trkpt lat="45.74425" lon="6.54944">
        <ele>1515</ele>
        <time>2025-07-20T16:40:26Z</time>
      </trkpt>
      <trkpt lat="45.74436" lon="6.54932">
        <ele>1515</ele>
        <time>2025-07-20T16:40:29Z</time>
      </trkpt>
      <trkpt lat="45.74445" lon="6.54926">
        <ele>1515</ele>
        <time>2025-07-20T16:40:30Z</time>
      </trkpt>
      <trkpt lat="45.74452" lon="6.54924">
        <ele>1515</ele>
        <time>2025-07-20T16:40:32Z</time>
      </trkpt>
      <trkpt lat="45.7446" lon="6.54923">
        <ele>1516</ele>
        <time>2025-07-20T16:40:33Z</time>
      </trkpt>
      <trkpt lat="45.74478" lon="6.54925">
        <ele>1516</ele>
        <time>2025-07-20T16:40:36Z</time>
      </trkpt>
      <trkpt lat="45.74488" lon="6.54929">
        <ele>1516</ele>
        <time>2025-07-20T16:40:38Z</time>
      </trkpt>
      <trkpt lat="45.74495" lon="6.54933">
        <ele>1516</ele>
        <time>2025-07-20T16:40:39Z</time>
      </trkpt>
      <trkpt lat="45.74516" lon="6.54953">
        <ele>1519</ele>
        <time>2025-07-20T16:40:44Z</time>
      </trkpt>
      <trkpt lat="45.74521" lon="6.54956">
        <ele>1519</ele>
        <time>2025-07-20T16:40:45Z</time>
      </trkpt>
      <trkpt lat="45.74527" lon="6.54956">
        <ele>1520</ele>
        <time>2025-07-20T16:40:46Z</time>
      </trkpt>
      <trkpt lat="45.74541" lon="6.54951">
        <ele>1520</ele>
        <time>2025-07-20T16:40:49Z</time>
      </trkpt>
      <trkpt lat="45.74585" lon="6.54928">
        <ele>1523</ele>
        <time>2025-07-20T16:40:57Z</time>
      </trkpt>
      <trkpt lat="45.74613" lon="6.54915">
        <ele>1525</ele>
        <time>2025-07-20T16:41:02Z</time>
      </trkpt>
      <trkpt lat="45.74638" lon="6.54908">
        <ele>1526</ele>
        <time>2025-07-20T16:41:07Z</time>
      </trkpt>
      <trkpt lat="45.74658" lon="6.54905">
        <ele>1527</ele>
        <time>2025-07-20T16:41:10Z</time>
      </trkpt>
      <trkpt lat="45.74686" lon="6.54903">
        <ele>1530</ele>
        <time>2025-07-20T16:41:15Z</time>
      </trkpt>
      <trkpt lat="45.747" lon="6.54897">
        <ele>1532</ele>
        <time>2025-07-20T16:41:18Z</time>
      </trkpt>
      <trkpt lat="45.74707" lon="6.54893">
        <ele>1533</ele>
        <time>2025-07-20T16:41:19Z</time>
      </trkpt>
      <trkpt lat="45.74715" lon="6.54884">
        <ele>1534</ele>
        <time>2025-07-20T16:41:21Z</time>
      </trkpt>
      <trkpt lat="45.74725" lon="6.54871">
        <ele>1536</ele>
        <time>2025-07-20T16:41:23Z</time>
      </trkpt>
      <trkpt lat="45.7473" lon="6.54861">
        <ele>1537</ele>
        <time>2025-07-20T16:41:25Z</time>
      </trkpt>
      <trkpt lat="45.74734" lon="6.54852">
        <ele>1537</ele>
        <time>2025-07-20T16:41:26Z</time>
      </trkpt>
      <trkpt lat="45.74741" lon="6.54828">
        <ele>1539</ele>
        <time>2025-07-20T16:41:29Z</time>
      </trkpt>
      <trkpt lat="45.74743" lon="6.54804">
        <ele>1539</ele>
        <time>2025-07-20T16:41:32Z</time>
      </trkpt>
      <trkpt lat="45.74746" lon="6.54793">
        <ele>1539</ele>
        <time>2025-07-20T16:41:34Z</time>
      </trkpt>
      <trkpt lat="45.74751" lon="6.54779">
        <ele>1539</ele>
        <time>2025-07-20T16:41:36Z</time>
      </trkpt>
      <trkpt lat="45.74759" lon="6.5477">
        <ele>1540</ele>
        <time>2025-07-20T16:41:38Z</time>
      </trkpt>
      <trkpt lat="45.74768" lon="6.54761">
        <ele>1541</ele>
        <time>2025-07-20T16:41:40Z</time>
      </trkpt>
      <trkpt lat="45.74778" lon="6.54754">
        <ele>1542</ele>
        <time>2025-07-20T16:41:42Z</time>
      </trkpt>
      <trkpt lat="45.74788" lon="6.54749">
        <ele>1543</ele>
        <time>2025-07-20T16:41:44Z</time>
      </trkpt>
      <trkpt lat="45.74799" lon="6.54747">
        <ele>1545</ele>
        <time>2025-07-20T16:41:45Z</time>
      </trkpt>
      <trkpt lat="45.74814" lon="6.54748">
        <ele>1547</ele>
        <time>2025-07-20T16:41:48Z</time>
      </trkpt>
      <trkpt lat="45.74824" lon="6.54752">
        <ele>1548</ele>
        <time>2025-07-20T16:41:50Z</time>
      </trkpt>
      <trkpt lat="45.74834" lon="6.54759">
        <ele>1549</ele>
        <time>2025-07-20T16:41:52Z</time>
      </trkpt>
      <trkpt lat="45.74846" lon="6.54766">
        <ele>1550</ele>
        <time>2025-07-20T16:41:54Z</time>
      </trkpt>
      <trkpt lat="45.74852" lon="6.54769">
        <ele>1551</ele>
        <time>2025-07-20T16:41:55Z</time>
      </trkpt>
      <trkpt lat="45.74861" lon="6.54771">
        <ele>1552</ele>
        <time>2025-07-20T16:41:57Z</time>
      </trkpt>
      <trkpt lat="45.74868" lon="6.54771">
        <ele>1552</ele>
        <time>2025-07-20T16:41:58Z</time>
      </trkpt>
      <trkpt lat="45.74885" lon="6.54767">
        <ele>1553</ele>
        <time>2025-07-20T16:42:01Z</time>
      </trkpt>
      <trkpt lat="45.7496" lon="6.54746">
        <ele>1559</ele>
        <time>2025-07-20T16:42:15Z</time>
      </trkpt>
      <trkpt lat="45.75035" lon="6.54733">
        <ele>1565</ele>
        <time>2025-07-20T16:42:28Z</time>
      </trkpt>
      <trkpt lat="45.75057" lon="6.54728">
        <ele>1567</ele>
        <time>2025-07-20T16:42:32Z</time>
      </trkpt>
      <trkpt lat="45.75106" lon="6.54709">
        <ele>1570</ele>
        <time>2025-07-20T16:42:41Z</time>
      </trkpt>
      <trkpt lat="45.75161" lon="6.54687">
        <ele>1573</ele>
        <time>2025-07-20T16:42:52Z</time>
      </trkpt>
      <trkpt lat="45.75206" lon="6.54668">
        <ele>1576</ele>
        <time>2025-07-20T16:43:00Z</time>
      </trkpt>
      <trkpt lat="45.75249" lon="6.54653">
        <ele>1579</ele>
        <time>2025-07-20T16:43:08Z</time>
      </trkpt>
      <trkpt lat="45.75263" lon="6.54647">
        <ele>1580</ele>
        <time>2025-07-20T16:43:10Z</time>
      </trkpt>
      <trkpt lat="45.75278" lon="6.54641">
        <ele>1582</ele>
        <time>2025-07-20T16:43:13Z</time>
      </trkpt>
      <trkpt lat="45.7528" lon="6.5464">
        <ele>1582</ele>
        <time>2025-07-20T16:43:14Z</time>
      </trkpt>
      <trkpt lat="45.7529" lon="6.54636">
        <ele>1583</ele>
        <time>2025-07-20T16:43:15Z</time>
      </trkpt>
      <trkpt lat="45.7529" lon="6.5462">
        <ele>1582</ele>
        <time>2025-07-20T16:43:17Z</time>
      </trkpt>
      <trkpt lat="45.75299" lon="6.546">
        <ele>1581</ele>
        <time>2025-07-20T16:43:20Z</time>
      </trkpt>
      <trkpt lat="45.75315" lon="6.5457">
        <ele>1581</ele>
        <time>2025-07-20T16:43:25Z</time>
      </trkpt>
      <trkpt lat="45.75321" lon="6.54553">
        <ele>1580</ele>
        <time>2025-07-20T16:43:27Z</time>
      </trkpt>
      <trkpt lat="45.75323" lon="6.54518">
        <ele>1579</ele>
        <time>2025-07-20T16:43:32Z</time>
      </trkpt>
      <trkpt lat="45.75323" lon="6.54509">
        <ele>1579</ele>
        <time>2025-07-20T16:43:33Z</time>
      </trkpt>
      <trkpt lat="45.75322" lon="6.54503">
        <ele>1578</ele>
        <time>2025-07-20T16:43:34Z</time>
      </trkpt>
      <trkpt lat="45.75322" lon="6.54491">
        <ele>1578</ele>
        <time>2025-07-20T16:43:35Z</time>
      </trkpt>
      <trkpt lat="45.75321" lon="6.54482">
        <ele>1578</ele>
        <time>2025-07-20T16:43:36Z</time>
      </trkpt>
      <trkpt lat="45.75319" lon="6.54464">
        <ele>1577</ele>
        <time>2025-07-20T16:43:38Z</time>
      </trkpt>
      <trkpt lat="45.7531" lon="6.54451">
        <ele>1576</ele>
        <time>2025-07-20T16:43:41Z</time>
      </trkpt>
      <trkpt lat="45.75291" lon="6.54431">
        <ele>1575</ele>
        <time>2025-07-20T16:43:45Z</time>
      </trkpt>
      <trkpt lat="45.75281" lon="6.54415">
        <ele>1574</ele>
        <time>2025-07-20T16:43:48Z</time>
      </trkpt>
      <trkpt lat="45.75272" lon="6.54399">
        <ele>1573</ele>
        <time>2025-07-20T16:43:50Z</time>
      </trkpt>
      <trkpt lat="45.7527" lon="6.54394">
        <ele>1573</ele>
        <time>2025-07-20T16:43:51Z</time>
      </trkpt>
      <trkpt lat="45.75267" lon="6.54387">
        <ele>1573</ele>
        <time>2025-07-20T16:43:52Z</time>
      </trkpt>
      <trkpt lat="45.75261" lon="6.54368">
        <ele>1573</ele>
        <time>2025-07-20T16:43:54Z</time>
      </trkpt>
      <trkpt lat="45.75251" lon="6.54355">
        <ele>1573</ele>
        <time>2025-07-20T16:43:57Z</time>
      </trkpt>
      <trkpt lat="45.75248" lon="6.54354">
        <ele>1573</ele>
        <time>2025-07-20T16:43:57Z</time>
      </trkpt>
      <trkpt lat="45.75218" lon="6.54339">
        <ele>1573</ele>
        <time>2025-07-20T16:44:03Z</time>
      </trkpt>
      <trkpt lat="45.7519" lon="6.54321">
        <ele>1574</ele>
        <time>2025-07-20T16:44:09Z</time>
      </trkpt>
      <trkpt lat="45.75178" lon="6.54311">
        <ele>1574</ele>
        <time>2025-07-20T16:44:11Z</time>
      </trkpt>
      <trkpt lat="45.75137" lon="6.54277">
        <ele>1575</ele>
        <time>2025-07-20T16:44:19Z</time>
      </trkpt>
      <trkpt lat="45.75091" lon="6.5422">
        <ele>1580</ele>
        <time>2025-07-20T16:44:30Z</time>
      </trkpt>
      <trkpt lat="45.75045" lon="6.54168">
        <ele>1586</ele>
        <time>2025-07-20T16:44:41Z</time>
      </trkpt>
      <trkpt lat="45.75027" lon="6.54148">
        <ele>1588</ele>
        <time>2025-07-20T16:44:45Z</time>
      </trkpt>
      <trkpt lat="45.75012" lon="6.54131">
        <ele>1590</ele>
        <time>2025-07-20T16:44:48Z</time>
      </trkpt>
      <trkpt lat="45.75" lon="6.54121">
        <ele>1591</ele>
        <time>2025-07-20T16:44:51Z</time>
      </trkpt>
      <trkpt lat="45.74991" lon="6.54115">
        <ele>1593</ele>
        <time>2025-07-20T16:44:52Z</time>
      </trkpt>
      <trkpt lat="45.74981" lon="6.54111">
        <ele>1595</ele>
        <time>2025-07-20T16:44:54Z</time>
      </trkpt>
      <trkpt lat="45.7497" lon="6.5411">
        <ele>1597</ele>
        <time>2025-07-20T16:44:56Z</time>
      </trkpt>
      <trkpt lat="45.74943" lon="6.54117">
        <ele>1599</ele>
        <time>2025-07-20T16:45:01Z</time>
      </trkpt>
      <trkpt lat="45.74922" lon="6.5413">
        <ele>1600</ele>
        <time>2025-07-20T16:45:05Z</time>
      </trkpt>
      <trkpt lat="45.74911" lon="6.54138">
        <ele>1601</ele>
        <time>2025-07-20T16:45:07Z</time>
      </trkpt>
      <trkpt lat="45.74902" lon="6.54148">
        <ele>1601</ele>
        <time>2025-07-20T16:45:09Z</time>
      </trkpt>
      <trkpt lat="45.74872" lon="6.54184">
        <ele>1603</ele>
        <time>2025-07-20T16:45:16Z</time>
      </trkpt>
      <trkpt lat="45.74865" lon="6.54189">
        <ele>1604</ele>
        <time>2025-07-20T16:45:18Z</time>
      </trkpt>
      <trkpt lat="45.74837" lon="6.54204">
        <ele>1608</ele>
        <time>2025-07-20T16:45:23Z</time>
      </trkpt>
      <trkpt lat="45.74787" lon="6.54229">
        <ele>1613</ele>
        <time>2025-07-20T16:45:32Z</time>
      </trkpt>
      <trkpt lat="45.74745" lon="6.54252">
        <ele>1617</ele>
        <time>2025-07-20T16:45:40Z</time>
      </trkpt>
      <trkpt lat="45.74731" lon="6.54257">
        <ele>1617</ele>
        <time>2025-07-20T16:45:43Z</time>
      </trkpt>
      <trkpt lat="45.74722" lon="6.54259">
        <ele>1618</ele>
        <time>2025-07-20T16:45:45Z</time>
      </trkpt>
      <trkpt lat="45.74714" lon="6.54257">
        <ele>1619</ele>
        <time>2025-07-20T16:45:46Z</time>
      </trkpt>
      <trkpt lat="45.74708" lon="6.54255">
        <ele>1620</ele>
        <time>2025-07-20T16:45:47Z</time>
      </trkpt>
      <trkpt lat="45.74701" lon="6.54251">
        <ele>1621</ele>
        <time>2025-07-20T16:45:49Z</time>
      </trkpt>
      <trkpt lat="45.74694" lon="6.54245">
        <ele>1622</ele>
        <time>2025-07-20T16:45:50Z</time>
      </trkpt>
      <trkpt lat="45.74687" lon="6.54234">
        <ele>1624</ele>
        <time>2025-07-20T16:45:52Z</time>
      </trkpt>
      <trkpt lat="45.74666" lon="6.54188">
        <ele>1629</ele>
        <time>2025-07-20T16:45:59Z</time>
      </trkpt>
      <trkpt lat="45.74655" lon="6.54169">
        <ele>1631</ele>
        <time>2025-07-20T16:46:02Z</time>
      </trkpt>
      <trkpt lat="45.74643" lon="6.54155">
        <ele>1632</ele>
        <time>2025-07-20T16:46:04Z</time>
      </trkpt>
      <trkpt lat="45.74588" lon="6.54099">
        <ele>1641</ele>
        <time>2025-07-20T16:46:16Z</time>
      </trkpt>
      <trkpt lat="45.74559" lon="6.54071">
        <ele>1645</ele>
        <time>2025-07-20T16:46:23Z</time>
      </trkpt>
      <trkpt lat="45.74547" lon="6.54055">
        <ele>1645</ele>
        <time>2025-07-20T16:46:26Z</time>
      </trkpt>
      <trkpt lat="45.74525" lon="6.54014">
        <ele>1648</ele>
        <time>2025-07-20T16:46:32Z</time>
      </trkpt>
      <trkpt lat="45.7452" lon="6.53993">
        <ele>1649</ele>
        <time>2025-07-20T16:46:35Z</time>
      </trkpt>
      <trkpt lat="45.74519" lon="6.53977">
        <ele>1650</ele>
        <time>2025-07-20T16:46:37Z</time>
      </trkpt>
      <trkpt lat="45.74519" lon="6.5396">
        <ele>1650</ele>
        <time>2025-07-20T16:46:39Z</time>
      </trkpt>
      <trkpt lat="45.74521" lon="6.53938">
        <ele>1651</ele>
        <time>2025-07-20T16:46:42Z</time>
      </trkpt>
      <trkpt lat="45.74543" lon="6.53817">
        <ele>1658</ele>
        <time>2025-07-20T16:46:57Z</time>
      </trkpt>
      <trkpt lat="45.74548" lon="6.53799">
        <ele>1660</ele>
        <time>2025-07-20T16:47:00Z</time>
      </trkpt>
      <trkpt lat="45.74558" lon="6.53779">
        <ele>1662</ele>
        <time>2025-07-20T16:47:03Z</time>
      </trkpt>
      <trkpt lat="45.74607" lon="6.53711">
        <ele>1669</ele>
        <time>2025-07-20T16:47:15Z</time>
      </trkpt>
      <trkpt lat="45.74619" lon="6.53681">
        <ele>1670</ele>
        <time>2025-07-20T16:47:19Z</time>
      </trkpt>
      <trkpt lat="45.74626" lon="6.53655">
        <ele>1671</ele>
        <time>2025-07-20T16:47:23Z</time>
      </trkpt>
      <trkpt lat="45.74629" lon="6.53646">
        <ele>1671</ele>
        <time>2025-07-20T16:47:24Z</time>
      </trkpt>
      <trkpt lat="45.74634" lon="6.53628">
        <ele>1672</ele>
        <time>2025-07-20T16:47:26Z</time>
      </trkpt>
      <trkpt lat="45.74649" lon="6.53598">
        <ele>1674</ele>
        <time>2025-07-20T16:47:31Z</time>
      </trkpt>
      <trkpt lat="45.74665" lon="6.53575">
        <ele>1677</ele>
        <time>2025-07-20T16:47:35Z</time>
      </trkpt>
      <trkpt lat="45.74679" lon="6.53559">
        <ele>1677</ele>
        <time>2025-07-20T16:47:38Z</time>
      </trkpt>
      <trkpt lat="45.74697" lon="6.5355">
        <ele>1676</ele>
        <time>2025-07-20T16:47:41Z</time>
      </trkpt>
      <trkpt lat="45.74701" lon="6.53547">
        <ele>1675</ele>
        <time>2025-07-20T16:47:42Z</time>
      </trkpt>
      <trkpt lat="45.7472" lon="6.53532">
        <ele>1675</ele>
        <time>2025-07-20T16:47:46Z</time>
      </trkpt>
      <trkpt lat="45.74724" lon="6.53523">
        <ele>1675</ele>
        <time>2025-07-20T16:47:47Z</time>
      </trkpt>
      <trkpt lat="45.74725" lon="6.53513">
        <ele>1676</ele>
        <time>2025-07-20T16:47:49Z</time>
      </trkpt>
      <trkpt lat="45.74724" lon="6.53505">
        <ele>1677</ele>
        <time>2025-07-20T16:47:50Z</time>
      </trkpt>
      <trkpt lat="45.74721" lon="6.53497">
        <ele>1678</ele>
        <time>2025-07-20T16:47:51Z</time>
      </trkpt>
      <trkpt lat="45.74717" lon="6.53492">
        <ele>1678</ele>
        <time>2025-07-20T16:47:52Z</time>
      </trkpt>
      <trkpt lat="45.74711" lon="6.5349">
        <ele>1679</ele>
        <time>2025-07-20T16:47:53Z</time>
      </trkpt>
      <trkpt lat="45.74698" lon="6.5349">
        <ele>1680</ele>
        <time>2025-07-20T16:47:55Z</time>
      </trkpt>
      <trkpt lat="45.74677" lon="6.53498">
        <ele>1681</ele>
        <time>2025-07-20T16:47:59Z</time>
      </trkpt>
      <trkpt lat="45.74663" lon="6.53498">
        <ele>1682</ele>
        <time>2025-07-20T16:48:01Z</time>
      </trkpt>
      <trkpt lat="45.74653" lon="6.53494">
        <ele>1681</ele>
        <time>2025-07-20T16:48:03Z</time>
      </trkpt>
      <trkpt lat="45.74645" lon="6.53487">
        <ele>1680</ele>
        <time>2025-07-20T16:48:05Z</time>
      </trkpt>
      <trkpt lat="45.74638" lon="6.53479">
        <ele>1679</ele>
        <time>2025-07-20T16:48:07Z</time>
      </trkpt>
      <trkpt lat="45.74631" lon="6.53469">
        <ele>1678</ele>
        <time>2025-07-20T16:48:08Z</time>
      </trkpt>
      <trkpt lat="45.74628" lon="6.53456">
        <ele>1678</ele>
        <time>2025-07-20T16:48:10Z</time>
      </trkpt>
      <trkpt lat="45.74626" lon="6.53446">
        <ele>1677</ele>
        <time>2025-07-20T16:48:11Z</time>
      </trkpt>
      <trkpt lat="45.74626" lon="6.5343">
        <ele>1677</ele>
        <time>2025-07-20T16:48:13Z</time>
      </trkpt>
      <trkpt lat="45.74628" lon="6.53406">
        <ele>1678</ele>
        <time>2025-07-20T16:48:16Z</time>
      </trkpt>
      <trkpt lat="45.74626" lon="6.53387">
        <ele>1679</ele>
        <time>2025-07-20T16:48:19Z</time>
      </trkpt>
      <trkpt lat="45.7462" lon="6.53351">
        <ele>1679</ele>
        <time>2025-07-20T16:48:23Z</time>
      </trkpt>
      <trkpt lat="45.74616" lon="6.53293">
        <ele>1685</ele>
        <time>2025-07-20T16:48:31Z</time>
      </trkpt>
      <trkpt lat="45.74611" lon="6.5325">
        <ele>1691</ele>
        <time>2025-07-20T16:48:36Z</time>
      </trkpt>
      <trkpt lat="45.74611" lon="6.53224">
        <ele>1689</ele>
        <time>2025-07-20T16:48:39Z</time>
      </trkpt>
      <trkpt lat="45.74614" lon="6.5321">
        <ele>1689</ele>
        <time>2025-07-20T16:48:41Z</time>
      </trkpt>
      <trkpt lat="45.7463" lon="6.53176">
        <ele>1692</ele>
        <time>2025-07-20T16:48:46Z</time>
      </trkpt>
      <trkpt lat="45.74634" lon="6.53165">
        <ele>1693</ele>
        <time>2025-07-20T16:48:48Z</time>
      </trkpt>
      <trkpt lat="45.74636" lon="6.53152">
        <ele>1694</ele>
        <time>2025-07-20T16:48:49Z</time>
      </trkpt>
      <trkpt lat="45.74638" lon="6.53132">
        <ele>1695</ele>
        <time>2025-07-20T16:48:52Z</time>
      </trkpt>
      <trkpt lat="45.74645" lon="6.53077">
        <ele>1699</ele>
        <time>2025-07-20T16:48:59Z</time>
      </trkpt>
      <trkpt lat="45.74654" lon="6.53027">
        <ele>1708</ele>
        <time>2025-07-20T16:49:05Z</time>
      </trkpt>
      <trkpt lat="45.74663" lon="6.5299">
        <ele>1718</ele>
        <time>2025-07-20T16:49:10Z</time>
      </trkpt>
      <trkpt lat="45.74663" lon="6.52971">
        <ele>1720</ele>
        <time>2025-07-20T16:49:12Z</time>
      </trkpt>
      <trkpt lat="45.74663" lon="6.52949">
        <ele>1723</ele>
        <time>2025-07-20T16:49:15Z</time>
      </trkpt>
      <trkpt lat="45.74652" lon="6.5289">
        <ele>1723</ele>
        <time>2025-07-20T16:49:23Z</time>
      </trkpt>
      <trkpt lat="45.74649" lon="6.52861">
        <ele>1724</ele>
        <time>2025-07-20T16:49:26Z</time>
      </trkpt>
      <trkpt lat="45.74645" lon="6.52834">
        <ele>1724</ele>
        <time>2025-07-20T16:49:30Z</time>
      </trkpt>
      <trkpt lat="45.74641" lon="6.52815">
        <ele>1723</ele>
        <time>2025-07-20T16:49:32Z</time>
      </trkpt>
      <trkpt lat="45.74634" lon="6.52796">
        <ele>1721</ele>
        <time>2025-07-20T16:49:35Z</time>
      </trkpt>
      <trkpt lat="45.74629" lon="6.52787">
        <ele>1720</ele>
        <time>2025-07-20T16:49:36Z</time>
      </trkpt>
      <trkpt lat="45.74624" lon="6.52778">
        <ele>1719</ele>
        <time>2025-07-20T16:49:38Z</time>
      </trkpt>
      <trkpt lat="45.7461" lon="6.52761">
        <ele>1716</ele>
        <time>2025-07-20T16:49:41Z</time>
      </trkpt>
      <trkpt lat="45.74604" lon="6.5275">
        <ele>1716</ele>
        <time>2025-07-20T16:49:43Z</time>
      </trkpt>
      <trkpt lat="45.74601" lon="6.52736">
        <ele>1715</ele>
        <time>2025-07-20T16:49:45Z</time>
      </trkpt>
      <trkpt lat="45.74598" lon="6.52717">
        <ele>1713</ele>
        <time>2025-07-20T16:49:47Z</time>
      </trkpt>
      <trkpt lat="45.74589" lon="6.52676">
        <ele>1709</ele>
        <time>2025-07-20T16:49:52Z</time>
      </trkpt>
      <trkpt lat="45.74588" lon="6.52665">
        <ele>1709</ele>
        <time>2025-07-20T16:49:54Z</time>
      </trkpt>
      <trkpt lat="45.74589" lon="6.52653">
        <ele>1708</ele>
        <time>2025-07-20T16:49:55Z</time>
      </trkpt>
      <trkpt lat="45.7459" lon="6.52641">
        <ele>1707</ele>
        <time>2025-07-20T16:49:57Z</time>
      </trkpt>
      <trkpt lat="45.7461" lon="6.52531">
        <ele>1697</ele>
        <time>2025-07-20T16:50:11Z</time>
      </trkpt>
      <trkpt lat="45.74613" lon="6.52524">
        <ele>1697</ele>
        <time>2025-07-20T16:50:12Z</time>
      </trkpt>
      <trkpt lat="45.74618" lon="6.52517">
        <ele>1698</ele>
        <time>2025-07-20T16:50:13Z</time>
      </trkpt>
      <trkpt lat="45.74631" lon="6.52502">
        <ele>1702</ele>
        <time>2025-07-20T16:50:16Z</time>
      </trkpt>
      <trkpt lat="45.74634" lon="6.52497">
        <ele>1703</ele>
        <time>2025-07-20T16:50:17Z</time>
      </trkpt>
      <trkpt lat="45.74638" lon="6.52485">
        <ele>1704</ele>
        <time>2025-07-20T16:50:19Z</time>
      </trkpt>
      <trkpt lat="45.7464" lon="6.52473">
        <ele>1704</ele>
        <time>2025-07-20T16:50:20Z</time>
      </trkpt>
      <trkpt lat="45.7464" lon="6.52459">
        <ele>1702</ele>
        <time>2025-07-20T16:50:22Z</time>
      </trkpt>
      <trkpt lat="45.74639" lon="6.52447">
        <ele>1700</ele>
        <time>2025-07-20T16:50:23Z</time>
      </trkpt>
      <trkpt lat="45.74636" lon="6.52428">
        <ele>1696</ele>
        <time>2025-07-20T16:50:26Z</time>
      </trkpt>
      <trkpt lat="45.74634" lon="6.52414">
        <ele>1693</ele>
        <time>2025-07-20T16:50:27Z</time>
      </trkpt>
      <trkpt lat="45.74635" lon="6.52402">
        <ele>1693</ele>
        <time>2025-07-20T16:50:29Z</time>
      </trkpt>
      <trkpt lat="45.74642" lon="6.52359">
        <ele>1696</ele>
        <time>2025-07-20T16:50:34Z</time>
      </trkpt>
      <trkpt lat="45.74653" lon="6.52309">
        <ele>1700</ele>
        <time>2025-07-20T16:50:41Z</time>
      </trkpt>
      <trkpt lat="45.74655" lon="6.52295">
        <ele>1700</ele>
        <time>2025-07-20T16:50:43Z</time>
      </trkpt>
      <trkpt lat="45.74655" lon="6.5228">
        <ele>1698</ele>
        <time>2025-07-20T16:50:45Z</time>
      </trkpt>
      <trkpt lat="45.74652" lon="6.52237">
        <ele>1692</ele>
        <time>2025-07-20T16:50:50Z</time>
      </trkpt>
      <trkpt lat="45.74652" lon="6.52222">
        <ele>1691</ele>
        <time>2025-07-20T16:50:52Z</time>
      </trkpt>
      <trkpt lat="45.74654" lon="6.52182">
        <ele>1689</ele>
        <time>2025-07-20T16:50:57Z</time>
      </trkpt>
      <trkpt lat="45.74652" lon="6.52164">
        <ele>1687</ele>
        <time>2025-07-20T16:50:59Z</time>
      </trkpt>
      <trkpt lat="45.74648" lon="6.52149">
        <ele>1686</ele>
        <time>2025-07-20T16:51:01Z</time>
      </trkpt>
      <trkpt lat="45.74639" lon="6.52131">
        <ele>1681</ele>
        <time>2025-07-20T16:51:04Z</time>
      </trkpt>
      <trkpt lat="45.74633" lon="6.52116">
        <ele>1678</ele>
        <time>2025-07-20T16:51:06Z</time>
      </trkpt>
      <trkpt lat="45.74629" lon="6.52101">
        <ele>1677</ele>
        <time>2025-07-20T16:51:08Z</time>
      </trkpt>
      <trkpt lat="45.74627" lon="6.52086">
        <ele>1676</ele>
        <time>2025-07-20T16:51:10Z</time>
      </trkpt>
      <trkpt lat="45.74626" lon="6.52061">
        <ele>1679</ele>
        <time>2025-07-20T16:51:13Z</time>
      </trkpt>
      <trkpt lat="45.74625" lon="6.52049">
        <ele>1680</ele>
        <time>2025-07-20T16:51:14Z</time>
      </trkpt>
      <trkpt lat="45.7462" lon="6.52037">
        <ele>1678</ele>
        <time>2025-07-20T16:51:16Z</time>
      </trkpt>
      <trkpt lat="45.74606" lon="6.52013">
        <ele>1672</ele>
        <time>2025-07-20T16:51:20Z</time>
      </trkpt>
      <trkpt lat="45.74598" lon="6.51995">
        <ele>1669</ele>
        <time>2025-07-20T16:51:23Z</time>
      </trkpt>
      <trkpt lat="45.74589" lon="6.51961">
        <ele>1667</ele>
        <time>2025-07-20T16:51:27Z</time>
      </trkpt>
      <trkpt lat="45.74584" lon="6.51949">
        <ele>1666</ele>
        <time>2025-07-20T16:51:29Z</time>
      </trkpt>
      <trkpt lat="45.74573" lon="6.51931">
        <ele>1662</ele>
        <time>2025-07-20T16:51:32Z</time>
      </trkpt>
      <trkpt lat="45.74562" lon="6.5192">
        <ele>1658</ele>
        <time>2025-07-20T16:51:34Z</time>
      </trkpt>
      <trkpt lat="45.74541" lon="6.51904">
        <ele>1650</ele>
        <time>2025-07-20T16:51:39Z</time>
      </trkpt>
      <trkpt lat="45.74525" lon="6.51888">
        <ele>1645</ele>
        <time>2025-07-20T16:51:42Z</time>
      </trkpt>
      <trkpt lat="45.74512" lon="6.51874">
        <ele>1640</ele>
        <time>2025-07-20T16:51:45Z</time>
      </trkpt>
      <trkpt lat="45.74505" lon="6.51865">
        <ele>1638</ele>
        <time>2025-07-20T16:51:47Z</time>
      </trkpt>
      <trkpt lat="45.74499" lon="6.51855">
        <ele>1637</ele>
        <time>2025-07-20T16:51:48Z</time>
      </trkpt>
      <trkpt lat="45.74484" lon="6.51821">
        <ele>1636</ele>
        <time>2025-07-20T16:51:53Z</time>
      </trkpt>
      <trkpt lat="45.74462" lon="6.51786">
        <ele>1633</ele>
        <time>2025-07-20T16:51:59Z</time>
      </trkpt>
      <trkpt lat="45.74456" lon="6.51774">
        <ele>1633</ele>
        <time>2025-07-20T16:52:01Z</time>
      </trkpt>
      <trkpt lat="45.74451" lon="6.51758">
        <ele>1633</ele>
        <time>2025-07-20T16:52:03Z</time>
      </trkpt>
      <trkpt lat="45.74432" lon="6.51694">
        <ele>1636</ele>
        <time>2025-07-20T16:52:12Z</time>
      </trkpt>
      <trkpt lat="45.74425" lon="6.51677">
        <ele>1635</ele>
        <time>2025-07-20T16:52:14Z</time>
      </trkpt>
      <trkpt lat="45.74414" lon="6.51658">
        <ele>1634</ele>
        <time>2025-07-20T16:52:17Z</time>
      </trkpt>
      <trkpt lat="45.744" lon="6.51635">
        <ele>1635</ele>
        <time>2025-07-20T16:52:21Z</time>
      </trkpt>
      <trkpt lat="45.74397" lon="6.51632">
        <ele>1634</ele>
        <time>2025-07-20T16:52:22Z</time>
      </trkpt>
      <trkpt lat="45.74389" lon="6.51621">
        <ele>1634</ele>
        <time>2025-07-20T16:52:24Z</time>
      </trkpt>
      <trkpt lat="45.74378" lon="6.51609">
        <ele>1632</ele>
        <time>2025-07-20T16:52:26Z</time>
      </trkpt>
      <trkpt lat="45.74369" lon="6.51601">
        <ele>1631</ele>
        <time>2025-07-20T16:52:28Z</time>
      </trkpt>
      <trkpt lat="45.74336" lon="6.51582">
        <ele>1622</ele>
        <time>2025-07-20T16:52:34Z</time>
      </trkpt>
      <trkpt lat="45.74319" lon="6.5157">
        <ele>1618</ele>
        <time>2025-07-20T16:52:38Z</time>
      </trkpt>
      <trkpt lat="45.74309" lon="6.51562">
        <ele>1616</ele>
        <time>2025-07-20T16:52:40Z</time>
      </trkpt>
      <trkpt lat="45.74297" lon="6.5155">
        <ele>1613</ele>
        <time>2025-07-20T16:52:42Z</time>
      </trkpt>
      <trkpt lat="45.74286" lon="6.51538">
        <ele>1611</ele>
        <time>2025-07-20T16:52:45Z</time>
      </trkpt>
      <trkpt lat="45.7428" lon="6.51529">
        <ele>1610</ele>
        <time>2025-07-20T16:52:46Z</time>
      </trkpt>
      <trkpt lat="45.7427" lon="6.51498">
        <ele>1611</ele>
        <time>2025-07-20T16:52:51Z</time>
      </trkpt>
      <trkpt lat="45.74267" lon="6.51492">
        <ele>1610</ele>
        <time>2025-07-20T16:52:52Z</time>
      </trkpt>
      <trkpt lat="45.7426" lon="6.51481">
        <ele>1609</ele>
        <time>2025-07-20T16:52:53Z</time>
      </trkpt>
      <trkpt lat="45.7425" lon="6.51471">
        <ele>1607</ele>
        <time>2025-07-20T16:52:56Z</time>
      </trkpt>
      <trkpt lat="45.74227" lon="6.51451">
        <ele>1602</ele>
        <time>2025-07-20T16:53:00Z</time>
      </trkpt>
      <trkpt lat="45.74205" lon="6.51423">
        <ele>1600</ele>
        <time>2025-07-20T16:53:06Z</time>
      </trkpt>
      <trkpt lat="45.74198" lon="6.51415">
        <ele>1599</ele>
        <time>2025-07-20T16:53:07Z</time>
      </trkpt>
      <trkpt lat="45.74185" lon="6.51407">
        <ele>1595</ele>
        <time>2025-07-20T16:53:10Z</time>
      </trkpt>
      <trkpt lat="45.74166" lon="6.51397">
        <ele>1589</ele>
        <time>2025-07-20T16:53:13Z</time>
      </trkpt>
      <trkpt lat="45.74146" lon="6.51389">
        <ele>1584</ele>
        <time>2025-07-20T16:53:17Z</time>
      </trkpt>
      <trkpt lat="45.74136" lon="6.51383">
        <ele>1582</ele>
        <time>2025-07-20T16:53:19Z</time>
      </trkpt>
      <trkpt lat="45.74129" lon="6.51377">
        <ele>1580</ele>
        <time>2025-07-20T16:53:20Z</time>
      </trkpt>
      <trkpt lat="45.74122" lon="6.51365">
        <ele>1580</ele>
        <time>2025-07-20T16:53:22Z</time>
      </trkpt>
      <trkpt lat="45.74109" lon="6.51334">
        <ele>1580</ele>
        <time>2025-07-20T16:53:27Z</time>
      </trkpt>
      <trkpt lat="45.74094" lon="6.51302">
        <ele>1579</ele>
        <time>2025-07-20T16:53:32Z</time>
      </trkpt>
      <trkpt lat="45.74086" lon="6.51284">
        <ele>1578</ele>
        <time>2025-07-20T16:53:34Z</time>
      </trkpt>
      <trkpt lat="45.74078" lon="6.51266">
        <ele>1577</ele>
        <time>2025-07-20T16:53:37Z</time>
      </trkpt>
      <trkpt lat="45.74072" lon="6.51255">
        <ele>1576</ele>
        <time>2025-07-20T16:53:39Z</time>
      </trkpt>
      <trkpt lat="45.74047" lon="6.51217">
        <ele>1570</ele>
        <time>2025-07-20T16:53:45Z</time>
      </trkpt>
      <trkpt lat="45.74041" lon="6.51205">
        <ele>1568</ele>
        <time>2025-07-20T16:53:47Z</time>
      </trkpt>
      <trkpt lat="45.74035" lon="6.51188">
        <ele>1567</ele>
        <time>2025-07-20T16:53:49Z</time>
      </trkpt>
      <trkpt lat="45.74018" lon="6.51137">
        <ele>1562</ele>
        <time>2025-07-20T16:53:56Z</time>
      </trkpt>
      <trkpt lat="45.74013" lon="6.51121">
        <ele>1561</ele>
        <time>2025-07-20T16:53:58Z</time>
      </trkpt>
      <trkpt lat="45.74004" lon="6.51097">
        <ele>1557</ele>
        <time>2025-07-20T16:54:02Z</time>
      </trkpt>
      <trkpt lat="45.74" lon="6.51082">
        <ele>1556</ele>
        <time>2025-07-20T16:54:04Z</time>
      </trkpt>
      <trkpt lat="45.73998" lon="6.51067">
        <ele>1555</ele>
        <time>2025-07-20T16:54:06Z</time>
      </trkpt>
      <trkpt lat="45.73992" lon="6.51007">
        <ele>1553</ele>
        <time>2025-07-20T16:54:13Z</time>
      </trkpt>
      <trkpt lat="45.73987" lon="6.50963">
        <ele>1549</ele>
        <time>2025-07-20T16:54:19Z</time>
      </trkpt>
      <trkpt lat="45.73986" lon="6.50944">
        <ele>1547</ele>
        <time>2025-07-20T16:54:21Z</time>
      </trkpt>
      <trkpt lat="45.73987" lon="6.50926">
        <ele>1546</ele>
        <time>2025-07-20T16:54:23Z</time>
      </trkpt>
      <trkpt lat="45.73989" lon="6.509">
        <ele>1546</ele>
        <time>2025-07-20T16:54:27Z</time>
      </trkpt>
      <trkpt lat="45.73987" lon="6.5089">
        <ele>1545</ele>
        <time>2025-07-20T16:54:28Z</time>
      </trkpt>
      <trkpt lat="45.73975" lon="6.50849">
        <ele>1540</ele>
        <time>2025-07-20T16:54:33Z</time>
      </trkpt>
      <trkpt lat="45.73971" lon="6.5083">
        <ele>1538</ele>
        <time>2025-07-20T16:54:36Z</time>
      </trkpt>
      <trkpt lat="45.73969" lon="6.50812">
        <ele>1539</ele>
        <time>2025-07-20T16:54:38Z</time>
      </trkpt>
      <trkpt lat="45.73967" lon="6.50795">
        <ele>1540</ele>
        <time>2025-07-20T16:54:40Z</time>
      </trkpt>
      <trkpt lat="45.73963" lon="6.50783">
        <ele>1539</ele>
        <time>2025-07-20T16:54:42Z</time>
      </trkpt>
      <trkpt lat="45.7396" lon="6.50777">
        <ele>1539</ele>
        <time>2025-07-20T16:54:43Z</time>
      </trkpt>
      <trkpt lat="45.73953" lon="6.50772">
        <ele>1538</ele>
        <time>2025-07-20T16:54:44Z</time>
      </trkpt>
      <trkpt lat="45.73936" lon="6.50765">
        <ele>1534</ele>
        <time>2025-07-20T16:54:47Z</time>
      </trkpt>
      <trkpt lat="45.7393" lon="6.5076">
        <ele>1533</ele>
        <time>2025-07-20T16:54:49Z</time>
      </trkpt>
      <trkpt lat="45.73926" lon="6.50754">
        <ele>1533</ele>
        <time>2025-07-20T16:54:50Z</time>
      </trkpt>
      <trkpt lat="45.73921" lon="6.50744">
        <ele>1532</ele>
        <time>2025-07-20T16:54:51Z</time>
      </trkpt>
      <trkpt lat="45.73914" lon="6.50724">
        <ele>1532</ele>
        <time>2025-07-20T16:54:54Z</time>
      </trkpt>
      <trkpt lat="45.73907" lon="6.5071">
        <ele>1531</ele>
        <time>2025-07-20T16:54:56Z</time>
      </trkpt>
      <trkpt lat="45.73901" lon="6.507">
        <ele>1530</ele>
        <time>2025-07-20T16:54:58Z</time>
      </trkpt>
      <trkpt lat="45.73894" lon="6.50692">
        <ele>1529</ele>
        <time>2025-07-20T16:54:59Z</time>
      </trkpt>
      <trkpt lat="45.73887" lon="6.50686">
        <ele>1528</ele>
        <time>2025-07-20T16:55:01Z</time>
      </trkpt>
      <trkpt lat="45.73877" lon="6.50678">
        <ele>1526</ele>
        <time>2025-07-20T16:55:03Z</time>
      </trkpt>
      <trkpt lat="45.73861" lon="6.50672">
        <ele>1523</ele>
        <time>2025-07-20T16:55:06Z</time>
      </trkpt>
      <trkpt lat="45.73853" lon="6.50667">
        <ele>1522</ele>
        <time>2025-07-20T16:55:07Z</time>
      </trkpt>
      <trkpt lat="45.73843" lon="6.50658">
        <ele>1520</ele>
        <time>2025-07-20T16:55:09Z</time>
      </trkpt>
      <trkpt lat="45.73837" lon="6.50651">
        <ele>1519</ele>
        <time>2025-07-20T16:55:11Z</time>
      </trkpt>
      <trkpt lat="45.73834" lon="6.50646">
        <ele>1518</ele>
        <time>2025-07-20T16:55:12Z</time>
      </trkpt>
      <trkpt lat="45.7382" lon="6.50622">
        <ele>1516</ele>
        <time>2025-07-20T16:55:16Z</time>
      </trkpt>
      <trkpt lat="45.7381" lon="6.50599">
        <ele>1516</ele>
        <time>2025-07-20T16:55:19Z</time>
      </trkpt>
      <trkpt lat="45.73804" lon="6.50591">
        <ele>1515</ele>
        <time>2025-07-20T16:55:20Z</time>
      </trkpt>
      <trkpt lat="45.73799" lon="6.50587">
        <ele>1514</ele>
        <time>2025-07-20T16:55:21Z</time>
      </trkpt>
      <trkpt lat="45.73794" lon="6.50587">
        <ele>1513</ele>
        <time>2025-07-20T16:55:22Z</time>
      </trkpt>
      <trkpt lat="45.73787" lon="6.5059">
        <ele>1511</ele>
        <time>2025-07-20T16:55:24Z</time>
      </trkpt>
      <trkpt lat="45.73783" lon="6.50596">
        <ele>1509</ele>
        <time>2025-07-20T16:55:25Z</time>
      </trkpt>
      <trkpt lat="45.73781" lon="6.50606">
        <ele>1508</ele>
        <time>2025-07-20T16:55:26Z</time>
      </trkpt>
      <trkpt lat="45.7378" lon="6.50619">
        <ele>1507</ele>
        <time>2025-07-20T16:55:28Z</time>
      </trkpt>
      <trkpt lat="45.73781" lon="6.50638">
        <ele>1506</ele>
        <time>2025-07-20T16:55:30Z</time>
      </trkpt>
      <trkpt lat="45.73784" lon="6.50663">
        <ele>1504</ele>
        <time>2025-07-20T16:55:33Z</time>
      </trkpt>
      <trkpt lat="45.73788" lon="6.50675">
        <ele>1504</ele>
        <time>2025-07-20T16:55:35Z</time>
      </trkpt>
      <trkpt lat="45.73792" lon="6.50685">
        <ele>1503</ele>
        <time>2025-07-20T16:55:36Z</time>
      </trkpt>
      <trkpt lat="45.738" lon="6.50697">
        <ele>1504</ele>
        <time>2025-07-20T16:55:38Z</time>
      </trkpt>
      <trkpt lat="45.73803" lon="6.50704">
        <ele>1504</ele>
        <time>2025-07-20T16:55:39Z</time>
      </trkpt>
      <trkpt lat="45.73804" lon="6.50713">
        <ele>1503</ele>
        <time>2025-07-20T16:55:40Z</time>
      </trkpt>
      <trkpt lat="45.73804" lon="6.50725">
        <ele>1501</ele>
        <time>2025-07-20T16:55:42Z</time>
      </trkpt>
      <trkpt lat="45.73796" lon="6.50767">
        <ele>1493</ele>
        <time>2025-07-20T16:55:47Z</time>
      </trkpt>
      <trkpt lat="45.73794" lon="6.50792">
        <ele>1489</ele>
        <time>2025-07-20T16:55:50Z</time>
      </trkpt>
      <trkpt lat="45.73795" lon="6.50803">
        <ele>1488</ele>
        <time>2025-07-20T16:55:52Z</time>
      </trkpt>
      <trkpt lat="45.73798" lon="6.50813">
        <ele>1488</ele>
        <time>2025-07-20T16:55:53Z</time>
      </trkpt>
      <trkpt lat="45.73815" lon="6.50844">
        <ele>1489</ele>
        <time>2025-07-20T16:55:58Z</time>
      </trkpt>
      <trkpt lat="45.73834" lon="6.50867">
        <ele>1493</ele>
        <time>2025-07-20T16:56:02Z</time>
      </trkpt>
      <trkpt lat="45.73841" lon="6.50877">
        <ele>1495</ele>
        <time>2025-07-20T16:56:04Z</time>
      </trkpt>
      <trkpt lat="45.73844" lon="6.50883">
        <ele>1495</ele>
        <time>2025-07-20T16:56:05Z</time>
      </trkpt>
      <trkpt lat="45.73845" lon="6.50888">
        <ele>1495</ele>
        <time>2025-07-20T16:56:06Z</time>
      </trkpt>
      <trkpt lat="45.73845" lon="6.50895">
        <ele>1495</ele>
        <time>2025-07-20T16:56:07Z</time>
      </trkpt>
      <trkpt lat="45.73844" lon="6.509">
        <ele>1495</ele>
        <time>2025-07-20T16:56:07Z</time>
      </trkpt>
      <trkpt lat="45.73843" lon="6.50904">
        <ele>1494</ele>
        <time>2025-07-20T16:56:08Z</time>
      </trkpt>
      <trkpt lat="45.73838" lon="6.50908">
        <ele>1492</ele>
        <time>2025-07-20T16:56:09Z</time>
      </trkpt>
      <trkpt lat="45.73828" lon="6.50914">
        <ele>1489</ele>
        <time>2025-07-20T16:56:11Z</time>
      </trkpt>
      <trkpt lat="45.73819" lon="6.50921">
        <ele>1486</ele>
        <time>2025-07-20T16:56:13Z</time>
      </trkpt>
      <trkpt lat="45.73809" lon="6.50931">
        <ele>1484</ele>
        <time>2025-07-20T16:56:15Z</time>
      </trkpt>
      <trkpt lat="45.73797" lon="6.50947">
        <ele>1482</ele>
        <time>2025-07-20T16:56:18Z</time>
      </trkpt>
      <trkpt lat="45.7379" lon="6.50959">
        <ele>1480</ele>
        <time>2025-07-20T16:56:20Z</time>
      </trkpt>
      <trkpt lat="45.7376" lon="6.5103">
        <ele>1472</ele>
        <time>2025-07-20T16:56:30Z</time>
      </trkpt>
      <trkpt lat="45.73751" lon="6.5106">
        <ele>1469</ele>
        <time>2025-07-20T16:56:34Z</time>
      </trkpt>
      <trkpt lat="45.73738" lon="6.51103">
        <ele>1463</ele>
        <time>2025-07-20T16:56:40Z</time>
      </trkpt>
      <trkpt lat="45.73732" lon="6.51125">
        <ele>1460</ele>
        <time>2025-07-20T16:56:43Z</time>
      </trkpt>
      <trkpt lat="45.7373" lon="6.51144">
        <ele>1459</ele>
        <time>2025-07-20T16:56:45Z</time>
      </trkpt>
      <trkpt lat="45.73728" lon="6.51198">
        <ele>1456</ele>
        <time>2025-07-20T16:56:52Z</time>
      </trkpt>
      <trkpt lat="45.73728" lon="6.51241">
        <ele>1455</ele>
        <time>2025-07-20T16:56:57Z</time>
      </trkpt>
      <trkpt lat="45.73728" lon="6.51314">
        <ele>1453</ele>
        <time>2025-07-20T16:57:06Z</time>
      </trkpt>
      <trkpt lat="45.73729" lon="6.51347">
        <ele>1452</ele>
        <time>2025-07-20T16:57:10Z</time>
      </trkpt>
      <trkpt lat="45.7373" lon="6.51371">
        <ele>1451</ele>
        <time>2025-07-20T16:57:13Z</time>
      </trkpt>
      <trkpt lat="45.73737" lon="6.51425">
        <ele>1449</ele>
        <time>2025-07-20T16:57:20Z</time>
      </trkpt>
      <trkpt lat="45.73744" lon="6.51484">
        <ele>1442</ele>
        <time>2025-07-20T16:57:28Z</time>
      </trkpt>
      <trkpt lat="45.73748" lon="6.51509">
        <ele>1439</ele>
        <time>2025-07-20T16:57:31Z</time>
      </trkpt>
      <trkpt lat="45.73752" lon="6.51528">
        <ele>1438</ele>
        <time>2025-07-20T16:57:33Z</time>
      </trkpt>
      <trkpt lat="45.73755" lon="6.51536">
        <ele>1438</ele>
        <time>2025-07-20T16:57:34Z</time>
      </trkpt>
      <trkpt lat="45.73759" lon="6.51544">
        <ele>1438</ele>
        <time>2025-07-20T16:57:36Z</time>
      </trkpt>
      <trkpt lat="45.73763" lon="6.5155">
        <ele>1438</ele>
        <time>2025-07-20T16:57:37Z</time>
      </trkpt>
      <trkpt lat="45.73768" lon="6.51553">
        <ele>1439</ele>
        <time>2025-07-20T16:57:38Z</time>
      </trkpt>
      <trkpt lat="45.73792" lon="6.51562">
        <ele>1442</ele>
        <time>2025-07-20T16:57:42Z</time>
      </trkpt>
      <trkpt lat="45.738" lon="6.51569">
        <ele>1443</ele>
        <time>2025-07-20T16:57:44Z</time>
      </trkpt>
      <trkpt lat="45.7381" lon="6.51583">
        <ele>1442</ele>
        <time>2025-07-20T16:57:46Z</time>
      </trkpt>
      <trkpt lat="45.73851" lon="6.51667">
        <ele>1436</ele>
        <time>2025-07-20T16:57:59Z</time>
      </trkpt>
      <trkpt lat="45.73868" lon="6.51709">
        <ele>1433</ele>
        <time>2025-07-20T16:58:05Z</time>
      </trkpt>
      <trkpt lat="45.73882" lon="6.51764">
        <ele>1426</ele>
        <time>2025-07-20T16:58:12Z</time>
      </trkpt>
      <trkpt lat="45.73885" lon="6.51782">
        <ele>1423</ele>
        <time>2025-07-20T16:58:14Z</time>
      </trkpt>
      <trkpt lat="45.7389" lon="6.51808">
        <ele>1419</ele>
        <time>2025-07-20T16:58:18Z</time>
      </trkpt>
      <trkpt lat="45.739" lon="6.51853">
        <ele>1412</ele>
        <time>2025-07-20T16:58:24Z</time>
      </trkpt>
      <trkpt lat="45.73909" lon="6.51885">
        <ele>1409</ele>
        <time>2025-07-20T16:58:28Z</time>
      </trkpt>
      <trkpt lat="45.73924" lon="6.51923">
        <ele>1406</ele>
        <time>2025-07-20T16:58:33Z</time>
      </trkpt>
      <trkpt lat="45.73961" lon="6.52008">
        <ele>1406</ele>
        <time>2025-07-20T16:58:46Z</time>
      </trkpt>
      <trkpt lat="45.73984" lon="6.52054">
        <ele>1402</ele>
        <time>2025-07-20T16:58:53Z</time>
      </trkpt>
      <trkpt lat="45.74003" lon="6.52094">
        <ele>1399</ele>
        <time>2025-07-20T16:58:59Z</time>
      </trkpt>
      <trkpt lat="45.74026" lon="6.52145">
        <ele>1403</ele>
        <time>2025-07-20T16:59:06Z</time>
      </trkpt>
      <trkpt lat="45.74033" lon="6.52165">
        <ele>1403</ele>
        <time>2025-07-20T16:59:09Z</time>
      </trkpt>
      <trkpt lat="45.74036" lon="6.52177">
        <ele>1404</ele>
        <time>2025-07-20T16:59:11Z</time>
      </trkpt>
      <trkpt lat="45.74037" lon="6.5219">
        <ele>1404</ele>
        <time>2025-07-20T16:59:12Z</time>
      </trkpt>
      <trkpt lat="45.74035" lon="6.52201">
        <ele>1403</ele>
        <time>2025-07-20T16:59:14Z</time>
      </trkpt>
      <trkpt lat="45.74028" lon="6.52227">
        <ele>1399</ele>
        <time>2025-07-20T16:59:17Z</time>
      </trkpt>
      <trkpt lat="45.74016" lon="6.52291">
        <ele>1390</ele>
        <time>2025-07-20T16:59:25Z</time>
      </trkpt>
      <trkpt lat="45.7401" lon="6.52339">
        <ele>1385</ele>
        <time>2025-07-20T16:59:32Z</time>
      </trkpt>
      <trkpt lat="45.73996" lon="6.52412">
        <ele>1380</ele>
        <time>2025-07-20T16:59:41Z</time>
      </trkpt>
      <trkpt lat="45.73993" lon="6.52427">
        <ele>1379</ele>
        <time>2025-07-20T16:59:43Z</time>
      </trkpt>
      <trkpt lat="45.73987" lon="6.52445">
        <ele>1376</ele>
        <time>2025-07-20T16:59:45Z</time>
      </trkpt>
      <trkpt lat="45.73978" lon="6.52471">
        <ele>1371</ele>
        <time>2025-07-20T16:59:49Z</time>
      </trkpt>
      <trkpt lat="45.73973" lon="6.52489">
        <ele>1368</ele>
        <time>2025-07-20T16:59:51Z</time>
      </trkpt>
      <trkpt lat="45.7397" lon="6.52511">
        <ele>1366</ele>
        <time>2025-07-20T16:59:54Z</time>
      </trkpt>
      <trkpt lat="45.73968" lon="6.52532">
        <ele>1364</ele>
        <time>2025-07-20T16:59:57Z</time>
      </trkpt>
      <trkpt lat="45.73968" lon="6.52571">
        <ele>1363</ele>
        <time>2025-07-20T17:00:02Z</time>
      </trkpt>
      <trkpt lat="45.7397" lon="6.5259">
        <ele>1363</ele>
        <time>2025-07-20T17:00:04Z</time>
      </trkpt>
      <trkpt lat="45.73972" lon="6.52603">
        <ele>1362</ele>
        <time>2025-07-20T17:00:06Z</time>
      </trkpt>
      <trkpt lat="45.73982" lon="6.52631">
        <ele>1365</ele>
        <time>2025-07-20T17:00:10Z</time>
      </trkpt>
      <trkpt lat="45.73985" lon="6.52643">
        <ele>1365</ele>
        <time>2025-07-20T17:00:11Z</time>
      </trkpt>
      <trkpt lat="45.73983" lon="6.52679">
        <ele>1360</ele>
        <time>2025-07-20T17:00:16Z</time>
      </trkpt>
      <trkpt lat="45.73982" lon="6.52703">
        <ele>1356</ele>
        <time>2025-07-20T17:00:19Z</time>
      </trkpt>
      <trkpt lat="45.73982" lon="6.52723">
        <ele>1353</ele>
        <time>2025-07-20T17:00:21Z</time>
      </trkpt>
      <trkpt lat="45.73982" lon="6.52737">
        <ele>1351</ele>
        <time>2025-07-20T17:00:23Z</time>
      </trkpt>
      <trkpt lat="45.73978" lon="6.52779">
        <ele>1343</ele>
        <time>2025-07-20T17:00:28Z</time>
      </trkpt>
      <trkpt lat="45.73979" lon="6.52792">
        <ele>1341</ele>
        <time>2025-07-20T17:00:30Z</time>
      </trkpt>
      <trkpt lat="45.7399" lon="6.52837">
        <ele>1339</ele>
        <time>2025-07-20T17:00:36Z</time>
      </trkpt>
      <trkpt lat="45.73989" lon="6.52843">
        <ele>1337</ele>
        <time>2025-07-20T17:00:36Z</time>
      </trkpt>
      <trkpt lat="45.73987" lon="6.52847">
        <ele>1336</ele>
        <time>2025-07-20T17:00:37Z</time>
      </trkpt>
      <trkpt lat="45.73983" lon="6.52849">
        <ele>1334</ele>
        <time>2025-07-20T17:00:38Z</time>
      </trkpt>
      <trkpt lat="45.73981" lon="6.52848">
        <ele>1333</ele>
        <time>2025-07-20T17:00:38Z</time>
      </trkpt>
      <trkpt lat="45.73978" lon="6.52845">
        <ele>1332</ele>
        <time>2025-07-20T17:00:39Z</time>
      </trkpt>
      <trkpt lat="45.73975" lon="6.52839">
        <ele>1332</ele>
        <time>2025-07-20T17:00:40Z</time>
      </trkpt>
      <trkpt lat="45.73964" lon="6.528">
        <ele>1333</ele>
        <time>2025-07-20T17:00:45Z</time>
      </trkpt>
      <trkpt lat="45.73961" lon="6.52778">
        <ele>1334</ele>
        <time>2025-07-20T17:00:48Z</time>
      </trkpt>
      <trkpt lat="45.73963" lon="6.5275">
        <ele>1339</ele>
        <time>2025-07-20T17:00:51Z</time>
      </trkpt>
      <trkpt lat="45.73962" lon="6.52735">
        <ele>1341</ele>
        <time>2025-07-20T17:00:53Z</time>
      </trkpt>
      <trkpt lat="45.73961" lon="6.52726">
        <ele>1341</ele>
        <time>2025-07-20T17:00:54Z</time>
      </trkpt>
      <trkpt lat="45.73957" lon="6.52714">
        <ele>1341</ele>
        <time>2025-07-20T17:00:56Z</time>
      </trkpt>
      <trkpt lat="45.73952" lon="6.52702">
        <ele>1340</ele>
        <time>2025-07-20T17:00:58Z</time>
      </trkpt>
      <trkpt lat="45.73944" lon="6.52691">
        <ele>1337</ele>
        <time>2025-07-20T17:01:00Z</time>
      </trkpt>
      <trkpt lat="45.7393" lon="6.52677">
        <ele>1331</ele>
        <time>2025-07-20T17:01:03Z</time>
      </trkpt>
      <trkpt lat="45.73923" lon="6.52668">
        <ele>1328</ele>
        <time>2025-07-20T17:01:04Z</time>
      </trkpt>
      <trkpt lat="45.73915" lon="6.52653">
        <ele>1326</ele>
        <time>2025-07-20T17:01:07Z</time>
      </trkpt>
      <trkpt lat="45.73908" lon="6.52635">
        <ele>1324</ele>
        <time>2025-07-20T17:01:09Z</time>
      </trkpt>
      <trkpt lat="45.73903" lon="6.52618">
        <ele>1323</ele>
        <time>2025-07-20T17:01:11Z</time>
      </trkpt>
      <trkpt lat="45.739" lon="6.52603">
        <ele>1323</ele>
        <time>2025-07-20T17:01:13Z</time>
      </trkpt>
      <trkpt lat="45.73895" lon="6.52549">
        <ele>1324</ele>
        <time>2025-07-20T17:01:20Z</time>
      </trkpt>
      <trkpt lat="45.73892" lon="6.52486">
        <ele>1325</ele>
        <time>2025-07-20T17:01:28Z</time>
      </trkpt>
      <trkpt lat="45.73889" lon="6.5247">
        <ele>1323</ele>
        <time>2025-07-20T17:01:30Z</time>
      </trkpt>
      <trkpt lat="45.73883" lon="6.52458">
        <ele>1320</ele>
        <time>2025-07-20T17:01:32Z</time>
      </trkpt>
      <trkpt lat="45.73876" lon="6.52447">
        <ele>1317</ele>
        <time>2025-07-20T17:01:34Z</time>
      </trkpt>
      <trkpt lat="45.73837" lon="6.52394">
        <ele>1300</ele>
        <time>2025-07-20T17:01:43Z</time>
      </trkpt>
      <trkpt lat="45.73823" lon="6.52373">
        <ele>1296</ele>
        <time>2025-07-20T17:01:47Z</time>
      </trkpt>
      <trkpt lat="45.73817" lon="6.52361">
        <ele>1295</ele>
        <time>2025-07-20T17:01:49Z</time>
      </trkpt>
      <trkpt lat="45.7381" lon="6.52346">
        <ele>1293</ele>
        <time>2025-07-20T17:01:51Z</time>
      </trkpt>
      <trkpt lat="45.73807" lon="6.52333">
        <ele>1292</ele>
        <time>2025-07-20T17:01:53Z</time>
      </trkpt>
      <trkpt lat="45.73804" lon="6.52291">
        <ele>1295</ele>
        <time>2025-07-20T17:01:58Z</time>
      </trkpt>
      <trkpt lat="45.73798" lon="6.52271">
        <ele>1295</ele>
        <time>2025-07-20T17:02:01Z</time>
      </trkpt>
      <trkpt lat="45.73776" lon="6.52221">
        <ele>1293</ele>
        <time>2025-07-20T17:02:08Z</time>
      </trkpt>
      <trkpt lat="45.73769" lon="6.52211">
        <ele>1292</ele>
        <time>2025-07-20T17:02:10Z</time>
      </trkpt>
      <trkpt lat="45.73762" lon="6.52205">
        <ele>1290</ele>
        <time>2025-07-20T17:02:11Z</time>
      </trkpt>
      <trkpt lat="45.73743" lon="6.52192">
        <ele>1287</ele>
        <time>2025-07-20T17:02:15Z</time>
      </trkpt>
      <trkpt lat="45.73714" lon="6.52167">
        <ele>1283</ele>
        <time>2025-07-20T17:02:21Z</time>
      </trkpt>
      <trkpt lat="45.737" lon="6.52155">
        <ele>1282</ele>
        <time>2025-07-20T17:02:24Z</time>
      </trkpt>
      <trkpt lat="45.73684" lon="6.52146">
        <ele>1279</ele>
        <time>2025-07-20T17:02:27Z</time>
      </trkpt>
      <trkpt lat="45.73644" lon="6.52133">
        <ele>1269</ele>
        <time>2025-07-20T17:02:34Z</time>
      </trkpt>
      <trkpt lat="45.73632" lon="6.52126">
        <ele>1267</ele>
        <time>2025-07-20T17:02:37Z</time>
      </trkpt>
      <trkpt lat="45.736" lon="6.52103">
        <ele>1265</ele>
        <time>2025-07-20T17:02:43Z</time>
      </trkpt>
      <trkpt lat="45.73562" lon="6.52088">
        <ele>1263</ele>
        <time>2025-07-20T17:02:50Z</time>
      </trkpt>
      <trkpt lat="45.73551" lon="6.52081">
        <ele>1263</ele>
        <time>2025-07-20T17:02:52Z</time>
      </trkpt>
      <trkpt lat="45.73533" lon="6.52066">
        <ele>1264</ele>
        <time>2025-07-20T17:02:56Z</time>
      </trkpt>
      <trkpt lat="45.73525" lon="6.52061">
        <ele>1263</ele>
        <time>2025-07-20T17:02:57Z</time>
      </trkpt>
      <trkpt lat="45.73477" lon="6.52055">
        <ele>1253</ele>
        <time>2025-07-20T17:03:06Z</time>
      </trkpt>
      <trkpt lat="45.73455" lon="6.52053">
        <ele>1246</ele>
        <time>2025-07-20T17:03:10Z</time>
      </trkpt>
      <trkpt lat="45.73449" lon="6.52051">
        <ele>1244</ele>
        <time>2025-07-20T17:03:11Z</time>
      </trkpt>
      <trkpt lat="45.73445" lon="6.52046">
        <ele>1243</ele>
        <time>2025-07-20T17:03:12Z</time>
      </trkpt>
      <trkpt lat="45.73441" lon="6.52037">
        <ele>1244</ele>
        <time>2025-07-20T17:03:13Z</time>
      </trkpt>
      <trkpt lat="45.73438" lon="6.51998">
        <ele>1249</ele>
        <time>2025-07-20T17:03:18Z</time>
      </trkpt>
      <trkpt lat="45.73436" lon="6.51993">
        <ele>1250</ele>
        <time>2025-07-20T17:03:19Z</time>
      </trkpt>
      <trkpt lat="45.73433" lon="6.51991">
        <ele>1249</ele>
        <time>2025-07-20T17:03:19Z</time>
      </trkpt>
      <trkpt lat="45.73429" lon="6.51991">
        <ele>1247</ele>
        <time>2025-07-20T17:03:20Z</time>
      </trkpt>
      <trkpt lat="45.73426" lon="6.51997">
        <ele>1245</ele>
        <time>2025-07-20T17:03:21Z</time>
      </trkpt>
      <trkpt lat="45.73424" lon="6.52003">
        <ele>1243</ele>
        <time>2025-07-20T17:03:22Z</time>
      </trkpt>
      <trkpt lat="45.73429" lon="6.52069">
        <ele>1234</ele>
        <time>2025-07-20T17:03:30Z</time>
      </trkpt>
      <trkpt lat="45.73431" lon="6.52077">
        <ele>1233</ele>
        <time>2025-07-20T17:03:31Z</time>
      </trkpt>
      <trkpt lat="45.73435" lon="6.52084">
        <ele>1233</ele>
        <time>2025-07-20T17:03:32Z</time>
      </trkpt>
      <trkpt lat="45.73458" lon="6.521">
        <ele>1236</ele>
        <time>2025-07-20T17:03:37Z</time>
      </trkpt>
      <trkpt lat="45.73465" lon="6.52109">
        <ele>1235</ele>
        <time>2025-07-20T17:03:38Z</time>
      </trkpt>
      <trkpt lat="45.73474" lon="6.52124">
        <ele>1233</ele>
        <time>2025-07-20T17:03:41Z</time>
      </trkpt>
      <trkpt lat="45.73483" lon="6.52135">
        <ele>1232</ele>
        <time>2025-07-20T17:03:43Z</time>
      </trkpt>
      <trkpt lat="45.73492" lon="6.52144">
        <ele>1232</ele>
        <time>2025-07-20T17:03:45Z</time>
      </trkpt>
      <trkpt lat="45.73504" lon="6.52152">
        <ele>1232</ele>
        <time>2025-07-20T17:03:47Z</time>
      </trkpt>
      <trkpt lat="45.73514" lon="6.52158">
        <ele>1232</ele>
        <time>2025-07-20T17:03:49Z</time>
      </trkpt>
      <trkpt lat="45.73522" lon="6.52164">
        <ele>1232</ele>
        <time>2025-07-20T17:03:51Z</time>
      </trkpt>
      <trkpt lat="45.73528" lon="6.52172">
        <ele>1231</ele>
        <time>2025-07-20T17:03:52Z</time>
      </trkpt>
      <trkpt lat="45.73532" lon="6.52182">
        <ele>1230</ele>
        <time>2025-07-20T17:03:54Z</time>
      </trkpt>
      <trkpt lat="45.73533" lon="6.52193">
        <ele>1227</ele>
        <time>2025-07-20T17:03:55Z</time>
      </trkpt>
      <trkpt lat="45.73533" lon="6.52208">
        <ele>1224</ele>
        <time>2025-07-20T17:03:57Z</time>
      </trkpt>
      <trkpt lat="45.73535" lon="6.52223">
        <ele>1222</ele>
        <time>2025-07-20T17:03:59Z</time>
      </trkpt>
      <trkpt lat="45.73539" lon="6.52237">
        <ele>1220</ele>
        <time>2025-07-20T17:04:01Z</time>
      </trkpt>
      <trkpt lat="45.73543" lon="6.52246">
        <ele>1219</ele>
        <time>2025-07-20T17:04:02Z</time>
      </trkpt>
      <trkpt lat="45.73553" lon="6.52259">
        <ele>1220</ele>
        <time>2025-07-20T17:04:04Z</time>
      </trkpt>
      <trkpt lat="45.73576" lon="6.52284">
        <ele>1224</ele>
        <time>2025-07-20T17:04:10Z</time>
      </trkpt>
      <trkpt lat="45.73583" lon="6.52293">
        <ele>1225</ele>
        <time>2025-07-20T17:04:11Z</time>
      </trkpt>
      <trkpt lat="45.73587" lon="6.52304">
        <ele>1225</ele>
        <time>2025-07-20T17:04:13Z</time>
      </trkpt>
      <trkpt lat="45.73602" lon="6.52356">
        <ele>1221</ele>
        <time>2025-07-20T17:04:20Z</time>
      </trkpt>
      <trkpt lat="45.73612" lon="6.52401">
        <ele>1215</ele>
        <time>2025-07-20T17:04:26Z</time>
      </trkpt>
      <trkpt lat="45.73644" lon="6.52488">
        <ele>1213</ele>
        <time>2025-07-20T17:04:38Z</time>
      </trkpt>
      <trkpt lat="45.7365" lon="6.5251">
        <ele>1213</ele>
        <time>2025-07-20T17:04:41Z</time>
      </trkpt>
      <trkpt lat="45.73651" lon="6.52524">
        <ele>1211</ele>
        <time>2025-07-20T17:04:43Z</time>
      </trkpt>
      <trkpt lat="45.73651" lon="6.52542">
        <ele>1209</ele>
        <time>2025-07-20T17:04:45Z</time>
      </trkpt>
      <trkpt lat="45.73649" lon="6.52562">
        <ele>1205</ele>
        <time>2025-07-20T17:04:47Z</time>
      </trkpt>
      <trkpt lat="45.73646" lon="6.52577">
        <ele>1201</ele>
        <time>2025-07-20T17:04:49Z</time>
      </trkpt>
      <trkpt lat="45.73641" lon="6.52594">
        <ele>1197</ele>
        <time>2025-07-20T17:04:52Z</time>
      </trkpt>
      <trkpt lat="45.73639" lon="6.52606">
        <ele>1194</ele>
        <time>2025-07-20T17:04:53Z</time>
      </trkpt>
      <trkpt lat="45.73643" lon="6.52629">
        <ele>1193</ele>
        <time>2025-07-20T17:04:56Z</time>
      </trkpt>
      <trkpt lat="45.73644" lon="6.52642">
        <ele>1191</ele>
        <time>2025-07-20T17:04:58Z</time>
      </trkpt>
      <trkpt lat="45.73644" lon="6.5266">
        <ele>1189</ele>
        <time>2025-07-20T17:05:00Z</time>
      </trkpt>
      <trkpt lat="45.73642" lon="6.52679">
        <ele>1185</ele>
        <time>2025-07-20T17:05:02Z</time>
      </trkpt>
      <trkpt lat="45.73642" lon="6.52696">
        <ele>1182</ele>
        <time>2025-07-20T17:05:04Z</time>
      </trkpt>
      <trkpt lat="45.73643" lon="6.52714">
        <ele>1180</ele>
        <time>2025-07-20T17:05:07Z</time>
      </trkpt>
      <trkpt lat="45.73646" lon="6.52731">
        <ele>1178</ele>
        <time>2025-07-20T17:05:09Z</time>
      </trkpt>
      <trkpt lat="45.73651" lon="6.52744">
        <ele>1178</ele>
        <time>2025-07-20T17:05:11Z</time>
      </trkpt>
      <trkpt lat="45.73659" lon="6.52757">
        <ele>1179</ele>
        <time>2025-07-20T17:05:13Z</time>
      </trkpt>
      <trkpt lat="45.73677" lon="6.5278">
        <ele>1182</ele>
        <time>2025-07-20T17:05:17Z</time>
      </trkpt>
      <trkpt lat="45.73697" lon="6.52811">
        <ele>1187</ele>
        <time>2025-07-20T17:05:22Z</time>
      </trkpt>
      <trkpt lat="45.73712" lon="6.52837">
        <ele>1193</ele>
        <time>2025-07-20T17:05:27Z</time>
      </trkpt>
      <trkpt lat="45.73716" lon="6.52849">
        <ele>1194</ele>
        <time>2025-07-20T17:05:28Z</time>
      </trkpt>
      <trkpt lat="45.73719" lon="6.52864">
        <ele>1195</ele>
        <time>2025-07-20T17:05:30Z</time>
      </trkpt>
      <trkpt lat="45.73721" lon="6.52878">
        <ele>1194</ele>
        <time>2025-07-20T17:05:32Z</time>
      </trkpt>
      <trkpt lat="45.73721" lon="6.52895">
        <ele>1193</ele>
        <time>2025-07-20T17:05:34Z</time>
      </trkpt>
      <trkpt lat="45.73719" lon="6.52906">
        <ele>1191</ele>
        <time>2025-07-20T17:05:35Z</time>
      </trkpt>
      <trkpt lat="45.73717" lon="6.52915">
        <ele>1189</ele>
        <time>2025-07-20T17:05:37Z</time>
      </trkpt>
      <trkpt lat="45.73712" lon="6.52923">
        <ele>1185</ele>
        <time>2025-07-20T17:05:38Z</time>
      </trkpt>
      <trkpt lat="45.737" lon="6.52938">
        <ele>1178</ele>
        <time>2025-07-20T17:05:41Z</time>
      </trkpt>
      <trkpt lat="45.73695" lon="6.5295">
        <ele>1175</ele>
        <time>2025-07-20T17:05:42Z</time>
      </trkpt>
      <trkpt lat="45.73689" lon="6.52965">
        <ele>1172</ele>
        <time>2025-07-20T17:05:45Z</time>
      </trkpt>
      <trkpt lat="45.73687" lon="6.52974">
        <ele>1171</ele>
        <time>2025-07-20T17:05:46Z</time>
      </trkpt>
      <trkpt lat="45.73686" lon="6.53007">
        <ele>1172</ele>
        <time>2025-07-20T17:05:50Z</time>
      </trkpt>
      <trkpt lat="45.73682" lon="6.53017">
        <ele>1171</ele>
        <time>2025-07-20T17:05:51Z</time>
      </trkpt>
      <trkpt lat="45.73678" lon="6.53022">
        <ele>1170</ele>
        <time>2025-07-20T17:05:52Z</time>
      </trkpt>
      <trkpt lat="45.73671" lon="6.53028">
        <ele>1167</ele>
        <time>2025-07-20T17:05:54Z</time>
      </trkpt>
      <trkpt lat="45.73661" lon="6.53032">
        <ele>1164</ele>
        <time>2025-07-20T17:05:56Z</time>
      </trkpt>
      <trkpt lat="45.73654" lon="6.53033">
        <ele>1161</ele>
        <time>2025-07-20T17:05:57Z</time>
      </trkpt>
      <trkpt lat="45.73637" lon="6.5303">
        <ele>1155</ele>
        <time>2025-07-20T17:06:00Z</time>
      </trkpt>
      <trkpt lat="45.7363" lon="6.5303">
        <ele>1153</ele>
        <time>2025-07-20T17:06:01Z</time>
      </trkpt>
      <trkpt lat="45.7361" lon="6.53041">
        <ele>1148</ele>
        <time>2025-07-20T17:06:05Z</time>
      </trkpt>
      <trkpt lat="45.73581" lon="6.53054">
        <ele>1141</ele>
        <time>2025-07-20T17:06:10Z</time>
      </trkpt>
      <trkpt lat="45.73574" lon="6.53059">
        <ele>1139</ele>
        <time>2025-07-20T17:06:12Z</time>
      </trkpt>
      <trkpt lat="45.73568" lon="6.53065">
        <ele>1139</ele>
        <time>2025-07-20T17:06:13Z</time>
      </trkpt>
      <trkpt lat="45.73566" lon="6.53072">
        <ele>1139</ele>
        <time>2025-07-20T17:06:14Z</time>
      </trkpt>
      <trkpt lat="45.73564" lon="6.5308">
        <ele>1140</ele>
        <time>2025-07-20T17:06:15Z</time>
      </trkpt>
      <trkpt lat="45.73564" lon="6.53091">
        <ele>1140</ele>
        <time>2025-07-20T17:06:16Z</time>
      </trkpt>
      <trkpt lat="45.73565" lon="6.53103">
        <ele>1140</ele>
        <time>2025-07-20T17:06:18Z</time>
      </trkpt>
      <trkpt lat="45.73569" lon="6.53119">
        <ele>1141</ele>
        <time>2025-07-20T17:06:20Z</time>
      </trkpt>
      <trkpt lat="45.73571" lon="6.53127">
        <ele>1142</ele>
        <time>2025-07-20T17:06:21Z</time>
      </trkpt>
      <trkpt lat="45.7357" lon="6.53132">
        <ele>1141</ele>
        <time>2025-07-20T17:06:22Z</time>
      </trkpt>
      <trkpt lat="45.73569" lon="6.53136">
        <ele>1141</ele>
        <time>2025-07-20T17:06:22Z</time>
      </trkpt>
      <trkpt lat="45.73567" lon="6.53138">
        <ele>1140</ele>
        <time>2025-07-20T17:06:23Z</time>
      </trkpt>
      <trkpt lat="45.73565" lon="6.53139">
        <ele>1139</ele>
        <time>2025-07-20T17:06:23Z</time>
      </trkpt>
      <trkpt lat="45.73561" lon="6.53137">
        <ele>1138</ele>
        <time>2025-07-20T17:06:24Z</time>
      </trkpt>
      <trkpt lat="45.73558" lon="6.53133">
        <ele>1137</ele>
        <time>2025-07-20T17:06:25Z</time>
      </trkpt>
      <trkpt lat="45.73556" lon="6.53126">
        <ele>1137</ele>
        <time>2025-07-20T17:06:25Z</time>
      </trkpt>
      <trkpt lat="45.73551" lon="6.53093">
        <ele>1136</ele>
        <time>2025-07-20T17:06:30Z</time>
      </trkpt>
      <trkpt lat="45.73551" lon="6.53084">
        <ele>1136</ele>
        <time>2025-07-20T17:06:31Z</time>
      </trkpt>
      <trkpt lat="45.73551" lon="6.53072">
        <ele>1134</ele>
        <time>2025-07-20T17:06:32Z</time>
      </trkpt>
      <trkpt lat="45.73553" lon="6.53061">
        <ele>1133</ele>
        <time>2025-07-20T17:06:34Z</time>
      </trkpt>
      <trkpt lat="45.73557" lon="6.53049">
        <ele>1132</ele>
        <time>2025-07-20T17:06:35Z</time>
      </trkpt>
      <trkpt lat="45.73564" lon="6.53037">
        <ele>1132</ele>
        <time>2025-07-20T17:06:37Z</time>
      </trkpt>
      <trkpt lat="45.7357" lon="6.5303">
        <ele>1133</ele>
        <time>2025-07-20T17:06:39Z</time>
      </trkpt>
      <trkpt lat="45.73567" lon="6.53027">
        <ele>1131</ele>
        <time>2025-07-20T17:06:39Z</time>
      </trkpt>
      <trkpt lat="45.73562" lon="6.53025">
        <ele>1130</ele>
        <time>2025-07-20T17:06:40Z</time>
      </trkpt>
      <trkpt lat="45.7355" lon="6.53024">
        <ele>1126</ele>
        <time>2025-07-20T17:06:42Z</time>
      </trkpt>
      <trkpt lat="45.73544" lon="6.53024">
        <ele>1124</ele>
        <time>2025-07-20T17:06:43Z</time>
      </trkpt>
      <trkpt lat="45.73539" lon="6.53026">
        <ele>1123</ele>
        <time>2025-07-20T17:06:44Z</time>
      </trkpt>
      <trkpt lat="45.7353" lon="6.53032">
        <ele>1122</ele>
        <time>2025-07-20T17:06:46Z</time>
      </trkpt>
      <trkpt lat="45.73523" lon="6.5304">
        <ele>1121</ele>
        <time>2025-07-20T17:06:48Z</time>
      </trkpt>
      <trkpt lat="45.73517" lon="6.53049">
        <ele>1120</ele>
        <time>2025-07-20T17:06:49Z</time>
      </trkpt>
      <trkpt lat="45.73512" lon="6.5306">
        <ele>1120</ele>
        <time>2025-07-20T17:06:51Z</time>
      </trkpt>
      <trkpt lat="45.73508" lon="6.5307">
        <ele>1120</ele>
        <time>2025-07-20T17:06:52Z</time>
      </trkpt>
      <trkpt lat="45.73504" lon="6.53084">
        <ele>1120</ele>
        <time>2025-07-20T17:06:54Z</time>
      </trkpt>
      <trkpt lat="45.73498" lon="6.53105">
        <ele>1118</ele>
        <time>2025-07-20T17:06:57Z</time>
      </trkpt>
      <trkpt lat="45.73493" lon="6.5313">
        <ele>1115</ele>
        <time>2025-07-20T17:07:00Z</time>
      </trkpt>
      <trkpt lat="45.73491" lon="6.53141">
        <ele>1114</ele>
        <time>2025-07-20T17:07:02Z</time>
      </trkpt>
      <trkpt lat="45.73492" lon="6.53154">
        <ele>1114</ele>
        <time>2025-07-20T17:07:03Z</time>
      </trkpt>
      <trkpt lat="45.73494" lon="6.53176">
        <ele>1113</ele>
        <time>2025-07-20T17:07:06Z</time>
      </trkpt>
      <trkpt lat="45.73496" lon="6.5322">
        <ele>1107</ele>
        <time>2025-07-20T17:07:12Z</time>
      </trkpt>
      <trkpt lat="45.73501" lon="6.53258">
        <ele>1102</ele>
        <time>2025-07-20T17:07:16Z</time>
      </trkpt>
      <trkpt lat="45.73503" lon="6.53264">
        <ele>1100</ele>
        <time>2025-07-20T17:07:17Z</time>
      </trkpt>
      <trkpt lat="45.73506" lon="6.53268">
        <ele>1100</ele>
        <time>2025-07-20T17:07:18Z</time>
      </trkpt>
      <trkpt lat="45.7351" lon="6.53269">
        <ele>1100</ele>
        <time>2025-07-20T17:07:19Z</time>
      </trkpt>
      <trkpt lat="45.73517" lon="6.5327">
        <ele>1102</ele>
        <time>2025-07-20T17:07:20Z</time>
      </trkpt>
      <trkpt lat="45.73526" lon="6.5327">
        <ele>1104</ele>
        <time>2025-07-20T17:07:21Z</time>
      </trkpt>
      <trkpt lat="45.73549" lon="6.5328">
        <ele>1106</ele>
        <time>2025-07-20T17:07:26Z</time>
      </trkpt>
      <trkpt lat="45.73554" lon="6.5328">
        <ele>1107</ele>
        <time>2025-07-20T17:07:27Z</time>
      </trkpt>
      <trkpt lat="45.73561" lon="6.5328">
        <ele>1109</ele>
        <time>2025-07-20T17:07:28Z</time>
      </trkpt>
      <trkpt lat="45.73573" lon="6.53278">
        <ele>1113</ele>
        <time>2025-07-20T17:07:30Z</time>
      </trkpt>
      <trkpt lat="45.73594" lon="6.53272">
        <ele>1121</ele>
        <time>2025-07-20T17:07:34Z</time>
      </trkpt>
      <trkpt lat="45.73602" lon="6.53272">
        <ele>1123</ele>
        <time>2025-07-20T17:07:35Z</time>
      </trkpt>
      <trkpt lat="45.73608" lon="6.53273">
        <ele>1124</ele>
        <time>2025-07-20T17:07:36Z</time>
      </trkpt>
      <trkpt lat="45.73612" lon="6.53275">
        <ele>1124</ele>
        <time>2025-07-20T17:07:37Z</time>
      </trkpt>
      <trkpt lat="45.73616" lon="6.53279">
        <ele>1124</ele>
        <time>2025-07-20T17:07:38Z</time>
      </trkpt>
      <trkpt lat="45.73618" lon="6.53283">
        <ele>1123</ele>
        <time>2025-07-20T17:07:39Z</time>
      </trkpt>
      <trkpt lat="45.73618" lon="6.5329">
        <ele>1120</ele>
        <time>2025-07-20T17:07:39Z</time>
      </trkpt>
      <trkpt lat="45.73618" lon="6.53295">
        <ele>1117</ele>
        <time>2025-07-20T17:07:40Z</time>
      </trkpt>
      <trkpt lat="45.73615" lon="6.53305">
        <ele>1112</ele>
        <time>2025-07-20T17:07:41Z</time>
      </trkpt>
      <trkpt lat="45.73612" lon="6.53314">
        <ele>1107</ele>
        <time>2025-07-20T17:07:43Z</time>
      </trkpt>
      <trkpt lat="45.73611" lon="6.5332">
        <ele>1104</ele>
        <time>2025-07-20T17:07:43Z</time>
      </trkpt>
      <trkpt lat="45.73612" lon="6.53336">
        <ele>1098</ele>
        <time>2025-07-20T17:07:45Z</time>
      </trkpt>
      <trkpt lat="45.73618" lon="6.53364">
        <ele>1091</ele>
        <time>2025-07-20T17:07:49Z</time>
      </trkpt>
      <trkpt lat="45.73631" lon="6.53426">
        <ele>1079</ele>
        <time>2025-07-20T17:07:57Z</time>
      </trkpt>
      <trkpt lat="45.73632" lon="6.53439">
        <ele>1078</ele>
        <time>2025-07-20T17:07:59Z</time>
      </trkpt>
      <trkpt lat="45.73632" lon="6.53447">
        <ele>1078</ele>
        <time>2025-07-20T17:08:00Z</time>
      </trkpt>
      <trkpt lat="45.73626" lon="6.53489">
        <ele>1073</ele>
        <time>2025-07-20T17:08:05Z</time>
      </trkpt>
      <trkpt lat="45.73626" lon="6.53508">
        <ele>1072</ele>
        <time>2025-07-20T17:08:07Z</time>
      </trkpt>
      <trkpt lat="45.73626" lon="6.53517">
        <ele>1071</ele>
        <time>2025-07-20T17:08:09Z</time>
      </trkpt>
      <trkpt lat="45.73624" lon="6.53525">
        <ele>1070</ele>
        <time>2025-07-20T17:08:10Z</time>
      </trkpt>
      <trkpt lat="45.73622" lon="6.53531">
        <ele>1068</ele>
        <time>2025-07-20T17:08:10Z</time>
      </trkpt>
      <trkpt lat="45.73615" lon="6.53541">
        <ele>1065</ele>
        <time>2025-07-20T17:08:12Z</time>
      </trkpt>
      <trkpt lat="45.73605" lon="6.53552">
        <ele>1061</ele>
        <time>2025-07-20T17:08:14Z</time>
      </trkpt>
      <trkpt lat="45.736" lon="6.53562">
        <ele>1059</ele>
        <time>2025-07-20T17:08:16Z</time>
      </trkpt>
      <trkpt lat="45.73597" lon="6.53576">
        <ele>1057</ele>
        <time>2025-07-20T17:08:18Z</time>
      </trkpt>
      <trkpt lat="45.73597" lon="6.53584">
        <ele>1056</ele>
        <time>2025-07-20T17:08:19Z</time>
      </trkpt>
      <trkpt lat="45.73599" lon="6.53591">
        <ele>1056</ele>
        <time>2025-07-20T17:08:20Z</time>
      </trkpt>
      <trkpt lat="45.73603" lon="6.53598">
        <ele>1056</ele>
        <time>2025-07-20T17:08:21Z</time>
      </trkpt>
      <trkpt lat="45.73609" lon="6.53607">
        <ele>1057</ele>
        <time>2025-07-20T17:08:22Z</time>
      </trkpt>
      <trkpt lat="45.73617" lon="6.53617">
        <ele>1058</ele>
        <time>2025-07-20T17:08:24Z</time>
      </trkpt>
      <trkpt lat="45.7362" lon="6.53621">
        <ele>1058</ele>
        <time>2025-07-20T17:08:25Z</time>
      </trkpt>
      <trkpt lat="45.7362" lon="6.53626">
        <ele>1057</ele>
        <time>2025-07-20T17:08:26Z</time>
      </trkpt>
      <trkpt lat="45.7362" lon="6.5363">
        <ele>1057</ele>
        <time>2025-07-20T17:08:26Z</time>
      </trkpt>
      <trkpt lat="45.73618" lon="6.53634">
        <ele>1055</ele>
        <time>2025-07-20T17:08:27Z</time>
      </trkpt>
      <trkpt lat="45.73616" lon="6.53636">
        <ele>1055</ele>
        <time>2025-07-20T17:08:27Z</time>
      </trkpt>
      <trkpt lat="45.73613" lon="6.53636">
        <ele>1054</ele>
        <time>2025-07-20T17:08:28Z</time>
      </trkpt>
      <trkpt lat="45.73608" lon="6.53635">
        <ele>1052</ele>
        <time>2025-07-20T17:08:29Z</time>
      </trkpt>
      <trkpt lat="45.73598" lon="6.53625">
        <ele>1051</ele>
        <time>2025-07-20T17:08:31Z</time>
      </trkpt>
      <trkpt lat="45.73586" lon="6.53618">
        <ele>1048</ele>
        <time>2025-07-20T17:08:33Z</time>
      </trkpt>
      <trkpt lat="45.73578" lon="6.53609">
        <ele>1046</ele>
        <time>2025-07-20T17:08:35Z</time>
      </trkpt>
      <trkpt lat="45.73576" lon="6.53602">
        <ele>1046</ele>
        <time>2025-07-20T17:08:36Z</time>
      </trkpt>
      <trkpt lat="45.73573" lon="6.5359">
        <ele>1047</ele>
        <time>2025-07-20T17:08:37Z</time>
      </trkpt>
      <trkpt lat="45.73568" lon="6.53553">
        <ele>1047</ele>
        <time>2025-07-20T17:08:42Z</time>
      </trkpt>
      <trkpt lat="45.73565" lon="6.53547">
        <ele>1046</ele>
        <time>2025-07-20T17:08:43Z</time>
      </trkpt>
      <trkpt lat="45.73554" lon="6.53533">
        <ele>1043</ele>
        <time>2025-07-20T17:08:46Z</time>
      </trkpt>
      <trkpt lat="45.73549" lon="6.53525">
        <ele>1041</ele>
        <time>2025-07-20T17:08:47Z</time>
      </trkpt>
      <trkpt lat="45.73539" lon="6.53504">
        <ele>1038</ele>
        <time>2025-07-20T17:08:50Z</time>
      </trkpt>
      <trkpt lat="45.73534" lon="6.53484">
        <ele>1039</ele>
        <time>2025-07-20T17:08:53Z</time>
      </trkpt>
      <trkpt lat="45.73532" lon="6.53461">
        <ele>1042</ele>
        <time>2025-07-20T17:08:56Z</time>
      </trkpt>
      <trkpt lat="45.73531" lon="6.53455">
        <ele>1042</ele>
        <time>2025-07-20T17:08:56Z</time>
      </trkpt>
      <trkpt lat="45.73529" lon="6.53452">
        <ele>1042</ele>
        <time>2025-07-20T17:08:57Z</time>
      </trkpt>
      <trkpt lat="45.73526" lon="6.5345">
        <ele>1041</ele>
        <time>2025-07-20T17:08:57Z</time>
      </trkpt>
      <trkpt lat="45.73522" lon="6.5345">
        <ele>1040</ele>
        <time>2025-07-20T17:08:58Z</time>
      </trkpt>
      <trkpt lat="45.7352" lon="6.53453">
        <ele>1039</ele>
        <time>2025-07-20T17:08:59Z</time>
      </trkpt>
      <trkpt lat="45.73517" lon="6.5346">
        <ele>1036</ele>
        <time>2025-07-20T17:09:00Z</time>
      </trkpt>
      <trkpt lat="45.73514" lon="6.53479">
        <ele>1032</ele>
        <time>2025-07-20T17:09:02Z</time>
      </trkpt>
      <trkpt lat="45.73507" lon="6.53502">
        <ele>1026</ele>
        <time>2025-07-20T17:09:05Z</time>
      </trkpt>
      <trkpt lat="45.73506" lon="6.53512">
        <ele>1025</ele>
        <time>2025-07-20T17:09:06Z</time>
      </trkpt>
      <trkpt lat="45.73505" lon="6.53521">
        <ele>1023</ele>
        <time>2025-07-20T17:09:08Z</time>
      </trkpt>
      <trkpt lat="45.73507" lon="6.53542">
        <ele>1023</ele>
        <time>2025-07-20T17:09:10Z</time>
      </trkpt>
      <trkpt lat="45.7351" lon="6.53552">
        <ele>1023</ele>
        <time>2025-07-20T17:09:12Z</time>
      </trkpt>
      <trkpt lat="45.73517" lon="6.53572">
        <ele>1025</ele>
        <time>2025-07-20T17:09:14Z</time>
      </trkpt>
      <trkpt lat="45.73518" lon="6.53576">
        <ele>1025</ele>
        <time>2025-07-20T17:09:15Z</time>
      </trkpt>
      <trkpt lat="45.73517" lon="6.53581">
        <ele>1024</ele>
        <time>2025-07-20T17:09:16Z</time>
      </trkpt>
      <trkpt lat="45.73515" lon="6.53585">
        <ele>1023</ele>
        <time>2025-07-20T17:09:16Z</time>
      </trkpt>
      <trkpt lat="45.73512" lon="6.53586">
        <ele>1022</ele>
        <time>2025-07-20T17:09:17Z</time>
      </trkpt>
      <trkpt lat="45.73507" lon="6.53583">
        <ele>1020</ele>
        <time>2025-07-20T17:09:18Z</time>
      </trkpt>
      <trkpt lat="45.73502" lon="6.53575">
        <ele>1018</ele>
        <time>2025-07-20T17:09:19Z</time>
      </trkpt>
      <trkpt lat="45.73494" lon="6.53545">
        <ele>1017</ele>
        <time>2025-07-20T17:09:23Z</time>
      </trkpt>
      <trkpt lat="45.73482" lon="6.53507">
        <ele>1016</ele>
        <time>2025-07-20T17:09:28Z</time>
      </trkpt>
      <trkpt lat="45.73476" lon="6.53485">
        <ele>1017</ele>
        <time>2025-07-20T17:09:31Z</time>
      </trkpt>
      <trkpt lat="45.73473" lon="6.53471">
        <ele>1019</ele>
        <time>2025-07-20T17:09:33Z</time>
      </trkpt>
      <trkpt lat="45.73472" lon="6.53458">
        <ele>1022</ele>
        <time>2025-07-20T17:09:35Z</time>
      </trkpt>
      <trkpt lat="45.73472" lon="6.53446">
        <ele>1024</ele>
        <time>2025-07-20T17:09:36Z</time>
      </trkpt>
      <trkpt lat="45.73473" lon="6.53439">
        <ele>1026</ele>
        <time>2025-07-20T17:09:37Z</time>
      </trkpt>
      <trkpt lat="45.7348" lon="6.53421">
        <ele>1032</ele>
        <time>2025-07-20T17:09:39Z</time>
      </trkpt>
      <trkpt lat="45.73481" lon="6.53415">
        <ele>1033</ele>
        <time>2025-07-20T17:09:40Z</time>
      </trkpt>
      <trkpt lat="45.73481" lon="6.53411">
        <ele>1035</ele>
        <time>2025-07-20T17:09:41Z</time>
      </trkpt>
      <trkpt lat="45.73479" lon="6.53401">
        <ele>1039</ele>
        <time>2025-07-20T17:09:42Z</time>
      </trkpt>
      <trkpt lat="45.73477" lon="6.53398">
        <ele>1040</ele>
        <time>2025-07-20T17:09:43Z</time>
      </trkpt>
      <trkpt lat="45.73473" lon="6.53395">
        <ele>1040</ele>
        <time>2025-07-20T17:09:43Z</time>
      </trkpt>
      <trkpt lat="45.7346" lon="6.53391">
        <ele>1038</ele>
        <time>2025-07-20T17:09:46Z</time>
      </trkpt>
      <trkpt lat="45.73446" lon="6.53391">
        <ele>1034</ele>
        <time>2025-07-20T17:09:48Z</time>
      </trkpt>
      <trkpt lat="45.7344" lon="6.5339">
        <ele>1032</ele>
        <time>2025-07-20T17:09:49Z</time>
      </trkpt>
      <trkpt lat="45.73434" lon="6.53387">
        <ele>1032</ele>
        <time>2025-07-20T17:09:50Z</time>
      </trkpt>
      <trkpt lat="45.73428" lon="6.53386">
        <ele>1031</ele>
        <time>2025-07-20T17:09:51Z</time>
      </trkpt>
      <trkpt lat="45.734" lon="6.53384">
        <ele>1023</ele>
        <time>2025-07-20T17:09:56Z</time>
      </trkpt>
      <trkpt lat="45.73365" lon="6.53376">
        <ele>1015</ele>
        <time>2025-07-20T17:10:03Z</time>
      </trkpt>
      <trkpt lat="45.73358" lon="6.53373">
        <ele>1014</ele>
        <time>2025-07-20T17:10:04Z</time>
      </trkpt>
      <trkpt lat="45.73352" lon="6.53367">
        <ele>1014</ele>
        <time>2025-07-20T17:10:05Z</time>
      </trkpt>
      <trkpt lat="45.73343" lon="6.53352">
        <ele>1015</ele>
        <time>2025-07-20T17:10:08Z</time>
      </trkpt>
      <trkpt lat="45.73333" lon="6.53334">
        <ele>1016</ele>
        <time>2025-07-20T17:10:11Z</time>
      </trkpt>
      <trkpt lat="45.73326" lon="6.53319">
        <ele>1016</ele>
        <time>2025-07-20T17:10:13Z</time>
      </trkpt>
      <trkpt lat="45.73308" lon="6.53278">
        <ele>1017</ele>
        <time>2025-07-20T17:10:19Z</time>
      </trkpt>
      <trkpt lat="45.73301" lon="6.53267">
        <ele>1016</ele>
        <time>2025-07-20T17:10:21Z</time>
      </trkpt>
      <trkpt lat="45.7329" lon="6.53257">
        <ele>1012</ele>
        <time>2025-07-20T17:10:23Z</time>
      </trkpt>
      <trkpt lat="45.73275" lon="6.53238">
        <ele>1007</ele>
        <time>2025-07-20T17:10:27Z</time>
      </trkpt>
      <trkpt lat="45.73272" lon="6.53233">
        <ele>1005</ele>
        <time>2025-07-20T17:10:28Z</time>
      </trkpt>
      <trkpt lat="45.7327" lon="6.53223">
        <ele>1004</ele>
        <time>2025-07-20T17:10:29Z</time>
      </trkpt>
      <trkpt lat="45.73264" lon="6.53172">
        <ele>1001</ele>
        <time>2025-07-20T17:10:35Z</time>
      </trkpt>
      <trkpt lat="45.73265" lon="6.5315">
        <ele>1002</ele>
        <time>2025-07-20T17:10:38Z</time>
      </trkpt>
      <trkpt lat="45.73264" lon="6.53145">
        <ele>1002</ele>
        <time>2025-07-20T17:10:39Z</time>
      </trkpt>
      <trkpt lat="45.73263" lon="6.53142">
        <ele>1001</ele>
        <time>2025-07-20T17:10:39Z</time>
      </trkpt>
      <trkpt lat="45.73261" lon="6.53142">
        <ele>1000</ele>
        <time>2025-07-20T17:10:39Z</time>
      </trkpt>
      <trkpt lat="45.73257" lon="6.53145">
        <ele>997</ele>
        <time>2025-07-20T17:10:40Z</time>
      </trkpt>
      <trkpt lat="45.73255" lon="6.53149">
        <ele>995</ele>
        <time>2025-07-20T17:10:41Z</time>
      </trkpt>
      <trkpt lat="45.7325" lon="6.53249">
        <ele>994</ele>
        <time>2025-07-20T17:10:53Z</time>
      </trkpt>
      <trkpt lat="45.7325" lon="6.53273">
        <ele>991</ele>
        <time>2025-07-20T17:10:56Z</time>
      </trkpt>
      <trkpt lat="45.73251" lon="6.53292">
        <ele>989</ele>
        <time>2025-07-20T17:10:59Z</time>
      </trkpt>
      <trkpt lat="45.73252" lon="6.53304">
        <ele>988</ele>
        <time>2025-07-20T17:11:00Z</time>
      </trkpt>
      <trkpt lat="45.73256" lon="6.53324">
        <ele>987</ele>
        <time>2025-07-20T17:11:03Z</time>
      </trkpt>
      <trkpt lat="45.73276" lon="6.53364">
        <ele>987</ele>
        <time>2025-07-20T17:11:09Z</time>
      </trkpt>
      <trkpt lat="45.73284" lon="6.53381">
        <ele>986</ele>
        <time>2025-07-20T17:11:11Z</time>
      </trkpt>
      <trkpt lat="45.73296" lon="6.53433">
        <ele>978</ele>
        <time>2025-07-20T17:11:18Z</time>
      </trkpt>
      <trkpt lat="45.73302" lon="6.53453">
        <ele>975</ele>
        <time>2025-07-20T17:11:21Z</time>
      </trkpt>
      <trkpt lat="45.73302" lon="6.53457">
        <ele>974</ele>
        <time>2025-07-20T17:11:21Z</time>
      </trkpt>
      <trkpt lat="45.73301" lon="6.5346">
        <ele>973</ele>
        <time>2025-07-20T17:11:22Z</time>
      </trkpt>
      <trkpt lat="45.733" lon="6.53463">
        <ele>972</ele>
        <time>2025-07-20T17:11:22Z</time>
      </trkpt>
      <trkpt lat="45.73298" lon="6.53464">
        <ele>971</ele>
        <time>2025-07-20T17:11:23Z</time>
      </trkpt>
      <trkpt lat="45.73295" lon="6.53463">
        <ele>970</ele>
        <time>2025-07-20T17:11:23Z</time>
      </trkpt>
      <trkpt lat="45.73292" lon="6.5346">
        <ele>969</ele>
        <time>2025-07-20T17:11:24Z</time>
      </trkpt>
      <trkpt lat="45.73287" lon="6.53445">
        <ele>971</ele>
        <time>2025-07-20T17:11:26Z</time>
      </trkpt>
      <trkpt lat="45.73282" lon="6.53432">
        <ele>972</ele>
        <time>2025-07-20T17:11:28Z</time>
      </trkpt>
      <trkpt lat="45.73277" lon="6.53424">
        <ele>973</ele>
        <time>2025-07-20T17:11:29Z</time>
      </trkpt>
      <trkpt lat="45.73272" lon="6.53417">
        <ele>972</ele>
        <time>2025-07-20T17:11:30Z</time>
      </trkpt>
      <trkpt lat="45.7325" lon="6.53398">
        <ele>968</ele>
        <time>2025-07-20T17:11:35Z</time>
      </trkpt>
      <trkpt lat="45.73242" lon="6.53387">
        <ele>967</ele>
        <time>2025-07-20T17:11:37Z</time>
      </trkpt>
      <trkpt lat="45.73215" lon="6.5335">
        <ele>961</ele>
        <time>2025-07-20T17:11:43Z</time>
      </trkpt>
      <trkpt lat="45.73208" lon="6.5334">
        <ele>959</ele>
        <time>2025-07-20T17:11:45Z</time>
      </trkpt>
      <trkpt lat="45.73201" lon="6.53326">
        <ele>956</ele>
        <time>2025-07-20T17:11:47Z</time>
      </trkpt>
      <trkpt lat="45.73191" lon="6.53304">
        <ele>952</ele>
        <time>2025-07-20T17:11:51Z</time>
      </trkpt>
      <trkpt lat="45.73187" lon="6.53292">
        <ele>950</ele>
        <time>2025-07-20T17:11:52Z</time>
      </trkpt>
      <trkpt lat="45.73185" lon="6.53282">
        <ele>950</ele>
        <time>2025-07-20T17:11:54Z</time>
      </trkpt>
      <trkpt lat="45.73185" lon="6.53273">
        <ele>950</ele>
        <time>2025-07-20T17:11:55Z</time>
      </trkpt>
      <trkpt lat="45.73186" lon="6.53248">
        <ele>952</ele>
        <time>2025-07-20T17:11:58Z</time>
      </trkpt>
      <trkpt lat="45.73186" lon="6.53221">
        <ele>949</ele>
        <time>2025-07-20T17:12:01Z</time>
      </trkpt>
      <trkpt lat="45.73179" lon="6.53153">
        <ele>939</ele>
        <time>2025-07-20T17:12:10Z</time>
      </trkpt>
      <trkpt lat="45.73179" lon="6.53144">
        <ele>940</ele>
        <time>2025-07-20T17:12:11Z</time>
      </trkpt>
      <trkpt lat="45.73182" lon="6.53128">
        <ele>943</ele>
        <time>2025-07-20T17:12:13Z</time>
      </trkpt>
      <trkpt lat="45.73188" lon="6.53112">
        <ele>949</ele>
        <time>2025-07-20T17:12:15Z</time>
      </trkpt>
      <trkpt lat="45.73192" lon="6.53098">
        <ele>953</ele>
        <time>2025-07-20T17:12:17Z</time>
      </trkpt>
      <trkpt lat="45.73192" lon="6.5309">
        <ele>954</ele>
        <time>2025-07-20T17:12:18Z</time>
      </trkpt>
      <trkpt lat="45.73191" lon="6.53082">
        <ele>954</ele>
        <time>2025-07-20T17:12:19Z</time>
      </trkpt>
      <trkpt lat="45.73188" lon="6.53075">
        <ele>952</ele>
        <time>2025-07-20T17:12:20Z</time>
      </trkpt>
      <trkpt lat="45.73183" lon="6.53066">
        <ele>950</ele>
        <time>2025-07-20T17:12:21Z</time>
      </trkpt>
      <trkpt lat="45.73163" lon="6.53045">
        <ele>939</ele>
        <time>2025-07-20T17:12:26Z</time>
      </trkpt>
      <trkpt lat="45.73159" lon="6.53038">
        <ele>937</ele>
        <time>2025-07-20T17:12:27Z</time>
      </trkpt>
      <trkpt lat="45.73157" lon="6.53031">
        <ele>937</ele>
        <time>2025-07-20T17:12:28Z</time>
      </trkpt>
      <trkpt lat="45.73155" lon="6.53014">
        <ele>938</ele>
        <time>2025-07-20T17:12:30Z</time>
      </trkpt>
      <trkpt lat="45.73154" lon="6.53009">
        <ele>938</ele>
        <time>2025-07-20T17:12:31Z</time>
      </trkpt>
      <trkpt lat="45.73152" lon="6.53007">
        <ele>936</ele>
        <time>2025-07-20T17:12:31Z</time>
      </trkpt>
      <trkpt lat="45.73147" lon="6.53006">
        <ele>932</ele>
        <time>2025-07-20T17:12:32Z</time>
      </trkpt>
      <trkpt lat="45.73145" lon="6.53008">
        <ele>931</ele>
        <time>2025-07-20T17:12:32Z</time>
      </trkpt>
      <trkpt lat="45.73144" lon="6.53011">
        <ele>929</ele>
        <time>2025-07-20T17:12:33Z</time>
      </trkpt>
      <trkpt lat="45.73143" lon="6.53018">
        <ele>928</ele>
        <time>2025-07-20T17:12:34Z</time>
      </trkpt>
      <trkpt lat="45.73143" lon="6.53027">
        <ele>926</ele>
        <time>2025-07-20T17:12:35Z</time>
      </trkpt>
      <trkpt lat="45.73145" lon="6.53039">
        <ele>926</ele>
        <time>2025-07-20T17:12:36Z</time>
      </trkpt>
      <trkpt lat="45.73149" lon="6.5305">
        <ele>928</ele>
        <time>2025-07-20T17:12:38Z</time>
      </trkpt>
      <trkpt lat="45.7316" lon="6.53074">
        <ele>933</ele>
        <time>2025-07-20T17:12:41Z</time>
      </trkpt>
      <trkpt lat="45.73162" lon="6.53081">
        <ele>933</ele>
        <time>2025-07-20T17:12:42Z</time>
      </trkpt>
      <trkpt lat="45.73163" lon="6.5309">
        <ele>933</ele>
        <time>2025-07-20T17:12:44Z</time>
      </trkpt>
      <trkpt lat="45.73163" lon="6.53098">
        <ele>932</ele>
        <time>2025-07-20T17:12:45Z</time>
      </trkpt>
      <trkpt lat="45.73161" lon="6.53105">
        <ele>930</ele>
        <time>2025-07-20T17:12:45Z</time>
      </trkpt>
      <trkpt lat="45.73158" lon="6.53112">
        <ele>928</ele>
        <time>2025-07-20T17:12:47Z</time>
      </trkpt>
      <trkpt lat="45.73141" lon="6.5313">
        <ele>916</ele>
        <time>2025-07-20T17:12:50Z</time>
      </trkpt>
      <trkpt lat="45.73136" lon="6.53137">
        <ele>912</ele>
        <time>2025-07-20T17:12:52Z</time>
      </trkpt>
      <trkpt lat="45.73132" lon="6.53146">
        <ele>909</ele>
        <time>2025-07-20T17:12:53Z</time>
      </trkpt>
      <trkpt lat="45.73129" lon="6.53154">
        <ele>907</ele>
        <time>2025-07-20T17:12:54Z</time>
      </trkpt>
      <trkpt lat="45.73118" lon="6.5323">
        <ele>906</ele>
        <time>2025-07-20T17:13:04Z</time>
      </trkpt>
      <trkpt lat="45.73117" lon="6.53246">
        <ele>906</ele>
        <time>2025-07-20T17:13:06Z</time>
      </trkpt>
      <trkpt lat="45.73116" lon="6.53256">
        <ele>906</ele>
        <time>2025-07-20T17:13:07Z</time>
      </trkpt>
      <trkpt lat="45.73112" lon="6.53288">
        <ele>904</ele>
        <time>2025-07-20T17:13:11Z</time>
      </trkpt>
      <trkpt lat="45.73109" lon="6.5331">
        <ele>902</ele>
        <time>2025-07-20T17:13:14Z</time>
      </trkpt>
      <trkpt lat="45.73108" lon="6.53317">
        <ele>901</ele>
        <time>2025-07-20T17:13:15Z</time>
      </trkpt>
      <trkpt lat="45.7311" lon="6.53338">
        <ele>902</ele>
        <time>2025-07-20T17:13:17Z</time>
      </trkpt>
      <trkpt lat="45.7311" lon="6.53342">
        <ele>902</ele>
        <time>2025-07-20T17:13:18Z</time>
      </trkpt>
      <trkpt lat="45.73109" lon="6.53344">
        <ele>901</ele>
        <time>2025-07-20T17:13:18Z</time>
      </trkpt>
      <trkpt lat="45.73106" lon="6.53346">
        <ele>899</ele>
        <time>2025-07-20T17:13:19Z</time>
      </trkpt>
      <trkpt lat="45.73104" lon="6.53345">
        <ele>898</ele>
        <time>2025-07-20T17:13:19Z</time>
      </trkpt>
      <trkpt lat="45.73102" lon="6.53341">
        <ele>897</ele>
        <time>2025-07-20T17:13:20Z</time>
      </trkpt>
      <trkpt lat="45.731" lon="6.53333">
        <ele>897</ele>
        <time>2025-07-20T17:13:21Z</time>
      </trkpt>
      <trkpt lat="45.73094" lon="6.53294">
        <ele>892</ele>
        <time>2025-07-20T17:13:26Z</time>
      </trkpt>
      <trkpt lat="45.73092" lon="6.5328">
        <ele>891</ele>
        <time>2025-07-20T17:13:27Z</time>
      </trkpt>
      <trkpt lat="45.73084" lon="6.53249">
        <ele>884</ele>
        <time>2025-07-20T17:13:31Z</time>
      </trkpt>
      <trkpt lat="45.73078" lon="6.53214">
        <ele>879</ele>
        <time>2025-07-20T17:13:36Z</time>
      </trkpt>
      <trkpt lat="45.73074" lon="6.53185">
        <ele>876</ele>
        <time>2025-07-20T17:13:40Z</time>
      </trkpt>
      <trkpt lat="45.73072" lon="6.53163">
        <ele>874</ele>
        <time>2025-07-20T17:13:42Z</time>
      </trkpt>
      <trkpt lat="45.73072" lon="6.53149">
        <ele>874</ele>
        <time>2025-07-20T17:13:44Z</time>
      </trkpt>
      <trkpt lat="45.73074" lon="6.53137">
        <ele>874</ele>
        <time>2025-07-20T17:13:46Z</time>
      </trkpt>
      <trkpt lat="45.73076" lon="6.53126">
        <ele>875</ele>
        <time>2025-07-20T17:13:47Z</time>
      </trkpt>
      <trkpt lat="45.73088" lon="6.53096">
        <ele>881</ele>
        <time>2025-07-20T17:13:51Z</time>
      </trkpt>
      <trkpt lat="45.7309" lon="6.5309">
        <ele>882</ele>
        <time>2025-07-20T17:13:52Z</time>
      </trkpt>
      <trkpt lat="45.73091" lon="6.53083">
        <ele>882</ele>
        <time>2025-07-20T17:13:53Z</time>
      </trkpt>
      <trkpt lat="45.7309" lon="6.53079">
        <ele>882</ele>
        <time>2025-07-20T17:13:54Z</time>
      </trkpt>
      <trkpt lat="45.73088" lon="6.53075">
        <ele>881</ele>
        <time>2025-07-20T17:13:54Z</time>
      </trkpt>
      <trkpt lat="45.73081" lon="6.53072">
        <ele>876</ele>
        <time>2025-07-20T17:13:56Z</time>
      </trkpt>
      <trkpt lat="45.73079" lon="6.53082">
        <ele>875</ele>
        <time>2025-07-20T17:13:57Z</time>
      </trkpt>
      <trkpt lat="45.73075" lon="6.53091">
        <ele>873</ele>
        <time>2025-07-20T17:13:58Z</time>
      </trkpt>
      <trkpt lat="45.73055" lon="6.53121">
        <ele>864</ele>
        <time>2025-07-20T17:14:03Z</time>
      </trkpt>
      <trkpt lat="45.7305" lon="6.53138">
        <ele>862</ele>
        <time>2025-07-20T17:14:06Z</time>
      </trkpt>
      <trkpt lat="45.73047" lon="6.53153">
        <ele>861</ele>
        <time>2025-07-20T17:14:08Z</time>
      </trkpt>
      <trkpt lat="45.73045" lon="6.53174">
        <ele>861</ele>
        <time>2025-07-20T17:14:10Z</time>
      </trkpt>
      <trkpt lat="45.73044" lon="6.53188">
        <ele>860</ele>
        <time>2025-07-20T17:14:12Z</time>
      </trkpt>
      <trkpt lat="45.73045" lon="6.53265">
        <ele>860</ele>
        <time>2025-07-20T17:14:21Z</time>
      </trkpt>
      <trkpt lat="45.73044" lon="6.53277">
        <ele>859</ele>
        <time>2025-07-20T17:14:23Z</time>
      </trkpt>
      <trkpt lat="45.73041" lon="6.53295">
        <ele>856</ele>
        <time>2025-07-20T17:14:25Z</time>
      </trkpt>
      <trkpt lat="45.7304" lon="6.53311">
        <ele>854</ele>
        <time>2025-07-20T17:14:27Z</time>
      </trkpt>
      <trkpt lat="45.73041" lon="6.53332">
        <ele>854</ele>
        <time>2025-07-20T17:14:30Z</time>
      </trkpt>
      <trkpt lat="45.73052" lon="6.53376">
        <ele>858</ele>
        <time>2025-07-20T17:14:36Z</time>
      </trkpt>
      <trkpt lat="45.73053" lon="6.5339">
        <ele>858</ele>
        <time>2025-07-20T17:14:37Z</time>
      </trkpt>
      <trkpt lat="45.73044" lon="6.5344">
        <ele>845</ele>
        <time>2025-07-20T17:14:44Z</time>
      </trkpt>
      <trkpt lat="45.73043" lon="6.53466">
        <ele>841</ele>
        <time>2025-07-20T17:14:47Z</time>
      </trkpt>
      <trkpt lat="45.73045" lon="6.53474">
        <ele>841</ele>
        <time>2025-07-20T17:14:48Z</time>
      </trkpt>
      <trkpt lat="45.73049" lon="6.53479">
        <ele>842</ele>
        <time>2025-07-20T17:14:49Z</time>
      </trkpt>
      <trkpt lat="45.73054" lon="6.53482">
        <ele>845</ele>
        <time>2025-07-20T17:14:50Z</time>
      </trkpt>
      <trkpt lat="45.73066" lon="6.53485">
        <ele>851</ele>
        <time>2025-07-20T17:14:52Z</time>
      </trkpt>
      <trkpt lat="45.73072" lon="6.53489">
        <ele>854</ele>
        <time>2025-07-20T17:14:53Z</time>
      </trkpt>
      <trkpt lat="45.73085" lon="6.53503">
        <ele>859</ele>
        <time>2025-07-20T17:14:56Z</time>
      </trkpt>
      <trkpt lat="45.73097" lon="6.5352">
        <ele>864</ele>
        <time>2025-07-20T17:14:59Z</time>
      </trkpt>
      <trkpt lat="45.73103" lon="6.53533">
        <ele>866</ele>
        <time>2025-07-20T17:15:01Z</time>
      </trkpt>
      <trkpt lat="45.73106" lon="6.53545">
        <ele>866</ele>
        <time>2025-07-20T17:15:03Z</time>
      </trkpt>
      <trkpt lat="45.73106" lon="6.53556">
        <ele>865</ele>
        <time>2025-07-20T17:15:04Z</time>
      </trkpt>
      <trkpt lat="45.73102" lon="6.53573">
        <ele>861</ele>
        <time>2025-07-20T17:15:06Z</time>
      </trkpt>
      <trkpt lat="45.73097" lon="6.53589">
        <ele>857</ele>
        <time>2025-07-20T17:15:09Z</time>
      </trkpt>
      <trkpt lat="45.73091" lon="6.53601">
        <ele>853</ele>
        <time>2025-07-20T17:15:10Z</time>
      </trkpt>
      <trkpt lat="45.73085" lon="6.53609">
        <ele>849</ele>
        <time>2025-07-20T17:15:12Z</time>
      </trkpt>
      <trkpt lat="45.73056" lon="6.53639">
        <ele>834</ele>
        <time>2025-07-20T17:15:18Z</time>
      </trkpt>
      <trkpt lat="45.7305" lon="6.53647">
        <ele>831</ele>
        <time>2025-07-20T17:15:20Z</time>
      </trkpt>
      <trkpt lat="45.73046" lon="6.53654">
        <ele>829</ele>
        <time>2025-07-20T17:15:21Z</time>
      </trkpt>
      <trkpt lat="45.73043" lon="6.53662">
        <ele>828</ele>
        <time>2025-07-20T17:15:22Z</time>
      </trkpt>
      <trkpt lat="45.73043" lon="6.53671">
        <ele>828</ele>
        <time>2025-07-20T17:15:23Z</time>
      </trkpt>
      <trkpt lat="45.73045" lon="6.53679">
        <ele>828</ele>
        <time>2025-07-20T17:15:24Z</time>
      </trkpt>
      <trkpt lat="45.73049" lon="6.5369">
        <ele>828</ele>
        <time>2025-07-20T17:15:26Z</time>
      </trkpt>
      <trkpt lat="45.73058" lon="6.53709">
        <ele>830</ele>
        <time>2025-07-20T17:15:28Z</time>
      </trkpt>
      <trkpt lat="45.7306" lon="6.53715">
        <ele>830</ele>
        <time>2025-07-20T17:15:29Z</time>
      </trkpt>
      <trkpt lat="45.7306" lon="6.5372">
        <ele>829</ele>
        <time>2025-07-20T17:15:30Z</time>
      </trkpt>
      <trkpt lat="45.73058" lon="6.53722">
        <ele>828</ele>
        <time>2025-07-20T17:15:30Z</time>
      </trkpt>
      <trkpt lat="45.73053" lon="6.53722">
        <ele>826</ele>
        <time>2025-07-20T17:15:31Z</time>
      </trkpt>
      <trkpt lat="45.73049" lon="6.53719">
        <ele>825</ele>
        <time>2025-07-20T17:15:32Z</time>
      </trkpt>
      <trkpt lat="45.73028" lon="6.53671">
        <ele>821</ele>
        <time>2025-07-20T17:15:39Z</time>
      </trkpt>
      <trkpt lat="45.73027" lon="6.53659">
        <ele>820</ele>
        <time>2025-07-20T17:15:41Z</time>
      </trkpt>
      <trkpt lat="45.73028" lon="6.53652">
        <ele>820</ele>
        <time>2025-07-20T17:15:41Z</time>
      </trkpt>
      <trkpt lat="45.73045" lon="6.53631">
        <ele>828</ele>
        <time>2025-07-20T17:15:45Z</time>
      </trkpt>
      <trkpt lat="45.7306" lon="6.53607">
        <ele>836</ele>
        <time>2025-07-20T17:15:49Z</time>
      </trkpt>
      <trkpt lat="45.73067" lon="6.53591">
        <ele>839</ele>
        <time>2025-07-20T17:15:52Z</time>
      </trkpt>
      <trkpt lat="45.73069" lon="6.53579">
        <ele>841</ele>
        <time>2025-07-20T17:15:53Z</time>
      </trkpt>
      <trkpt lat="45.73068" lon="6.53568">
        <ele>842</ele>
        <time>2025-07-20T17:15:55Z</time>
      </trkpt>
      <trkpt lat="45.73065" lon="6.53557">
        <ele>841</ele>
        <time>2025-07-20T17:15:56Z</time>
      </trkpt>
      <trkpt lat="45.73061" lon="6.53549">
        <ele>840</ele>
        <time>2025-07-20T17:15:57Z</time>
      </trkpt>
      <trkpt lat="45.73053" lon="6.53541">
        <ele>836</ele>
        <time>2025-07-20T17:15:59Z</time>
      </trkpt>
      <trkpt lat="45.73038" lon="6.53534">
        <ele>828</ele>
        <time>2025-07-20T17:16:02Z</time>
      </trkpt>
      <trkpt lat="45.73029" lon="6.53527">
        <ele>824</ele>
        <time>2025-07-20T17:16:04Z</time>
      </trkpt>
      <trkpt lat="45.73005" lon="6.53492">
        <ele>815</ele>
        <time>2025-07-20T17:16:10Z</time>
      </trkpt>
      <trkpt lat="45.72998" lon="6.53474">
        <ele>812</ele>
        <time>2025-07-20T17:16:12Z</time>
      </trkpt>
      <trkpt lat="45.72992" lon="6.53457">
        <ele>810</ele>
        <time>2025-07-20T17:16:15Z</time>
      </trkpt>
      <trkpt lat="45.72983" lon="6.53409">
        <ele>809</ele>
        <time>2025-07-20T17:16:21Z</time>
      </trkpt>
      <trkpt lat="45.72969" lon="6.53321">
        <ele>803</ele>
        <time>2025-07-20T17:16:32Z</time>
      </trkpt>
      <trkpt lat="45.72965" lon="6.53301">
        <ele>803</ele>
        <time>2025-07-20T17:16:35Z</time>
      </trkpt>
      <trkpt lat="45.72957" lon="6.53273">
        <ele>801</ele>
        <time>2025-07-20T17:16:39Z</time>
      </trkpt>
      <trkpt lat="45.72949" lon="6.53247">
        <ele>798</ele>
        <time>2025-07-20T17:16:42Z</time>
      </trkpt>
      <trkpt lat="45.72937" lon="6.53215">
        <ele>793</ele>
        <time>2025-07-20T17:16:47Z</time>
      </trkpt>
      <trkpt lat="45.72924" lon="6.53174">
        <ele>787</ele>
        <time>2025-07-20T17:16:52Z</time>
      </trkpt>
      <trkpt lat="45.72914" lon="6.53134">
        <ele>783</ele>
        <time>2025-07-20T17:16:57Z</time>
      </trkpt>
      <trkpt lat="45.72912" lon="6.53119">
        <ele>783</ele>
        <time>2025-07-20T17:16:59Z</time>
      </trkpt>
      <trkpt lat="45.72911" lon="6.53087">
        <ele>784</ele>
        <time>2025-07-20T17:17:03Z</time>
      </trkpt>
      <trkpt lat="45.72909" lon="6.5305">
        <ele>784</ele>
        <time>2025-07-20T17:17:08Z</time>
      </trkpt>
      <trkpt lat="45.72904" lon="6.53017">
        <ele>783</ele>
        <time>2025-07-20T17:17:12Z</time>
      </trkpt>
      <trkpt lat="45.729" lon="6.52998">
        <ele>782</ele>
        <time>2025-07-20T17:17:15Z</time>
      </trkpt>
      <trkpt lat="45.72898" lon="6.5299">
        <ele>782</ele>
        <time>2025-07-20T17:17:16Z</time>
      </trkpt>
      <trkpt lat="45.72893" lon="6.52981">
        <ele>781</ele>
        <time>2025-07-20T17:17:17Z</time>
      </trkpt>
      <trkpt lat="45.72886" lon="6.52968">
        <ele>779</ele>
        <time>2025-07-20T17:17:19Z</time>
      </trkpt>
      <trkpt lat="45.7286" lon="6.52926">
        <ele>772</ele>
        <time>2025-07-20T17:17:26Z</time>
      </trkpt>
      <trkpt lat="45.72837" lon="6.52873">
        <ele>768</ele>
        <time>2025-07-20T17:17:34Z</time>
      </trkpt>
      <trkpt lat="45.72831" lon="6.52862">
        <ele>767</ele>
        <time>2025-07-20T17:17:36Z</time>
      </trkpt>
      <trkpt lat="45.72824" lon="6.52852">
        <ele>765</ele>
        <time>2025-07-20T17:17:37Z</time>
      </trkpt>
      <trkpt lat="45.72802" lon="6.52821">
        <ele>760</ele>
        <time>2025-07-20T17:17:43Z</time>
      </trkpt>
      <trkpt lat="45.72796" lon="6.52807">
        <ele>759</ele>
        <time>2025-07-20T17:17:45Z</time>
      </trkpt>
      <trkpt lat="45.72793" lon="6.52794">
        <ele>758</ele>
        <time>2025-07-20T17:17:47Z</time>
      </trkpt>
      <trkpt lat="45.7279" lon="6.52776">
        <ele>758</ele>
        <time>2025-07-20T17:17:49Z</time>
      </trkpt>
      <trkpt lat="45.72784" lon="6.52747">
        <ele>757</ele>
        <time>2025-07-20T17:17:53Z</time>
      </trkpt>
      <trkpt lat="45.7278" lon="6.52737">
        <ele>758</ele>
        <time>2025-07-20T17:17:54Z</time>
      </trkpt>
      <trkpt lat="45.72775" lon="6.52728">
        <ele>757</ele>
        <time>2025-07-20T17:17:55Z</time>
      </trkpt>
      <trkpt lat="45.72768" lon="6.52718">
        <ele>757</ele>
        <time>2025-07-20T17:17:57Z</time>
      </trkpt>
      <trkpt lat="45.72761" lon="6.52706">
        <ele>756</ele>
        <time>2025-07-20T17:17:59Z</time>
      </trkpt>
      <trkpt lat="45.72759" lon="6.52701">
        <ele>756</ele>
        <time>2025-07-20T17:18:00Z</time>
      </trkpt>
      <trkpt lat="45.72758" lon="6.52693">
        <ele>757</ele>
        <time>2025-07-20T17:18:01Z</time>
      </trkpt>
      <trkpt lat="45.72758" lon="6.52679">
        <ele>758</ele>
        <time>2025-07-20T17:18:03Z</time>
      </trkpt>
      <trkpt lat="45.72755" lon="6.52656">
        <ele>761</ele>
        <time>2025-07-20T17:18:06Z</time>
      </trkpt>
      <trkpt lat="45.72747" lon="6.52626">
        <ele>764</ele>
        <time>2025-07-20T17:18:10Z</time>
      </trkpt>
      <trkpt lat="45.72718" lon="6.52525">
        <ele>762</ele>
        <time>2025-07-20T17:18:23Z</time>
      </trkpt>
      <trkpt lat="45.72699" lon="6.52475">
        <ele>756</ele>
        <time>2025-07-20T17:18:30Z</time>
      </trkpt>
      <trkpt lat="45.72696" lon="6.52463">
        <ele>756</ele>
        <time>2025-07-20T17:18:32Z</time>
      </trkpt>
      <trkpt lat="45.72695" lon="6.5245">
        <ele>758</ele>
        <time>2025-07-20T17:18:33Z</time>
      </trkpt>
      <trkpt lat="45.72692" lon="6.52444">
        <ele>756</ele>
        <time>2025-07-20T17:18:34Z</time>
      </trkpt>
      <trkpt lat="45.72689" lon="6.52441">
        <ele>754</ele>
        <time>2025-07-20T17:18:35Z</time>
      </trkpt>
      <trkpt lat="45.72686" lon="6.52441">
        <ele>751</ele>
        <time>2025-07-20T17:18:35Z</time>
      </trkpt>
      <trkpt lat="45.72683" lon="6.52442">
        <ele>748</ele>
        <time>2025-07-20T17:18:36Z</time>
      </trkpt>
      <trkpt lat="45.72679" lon="6.52451">
        <ele>744</ele>
        <time>2025-07-20T17:18:37Z</time>
      </trkpt>
      <trkpt lat="45.72679" lon="6.52458">
        <ele>743</ele>
        <time>2025-07-20T17:18:38Z</time>
      </trkpt>
      <trkpt lat="45.72681" lon="6.52467">
        <ele>743</ele>
        <time>2025-07-20T17:18:39Z</time>
      </trkpt>
      <trkpt lat="45.72694" lon="6.5249">
        <ele>750</ele>
        <time>2025-07-20T17:18:43Z</time>
      </trkpt>
      <trkpt lat="45.72698" lon="6.52506">
        <ele>750</ele>
        <time>2025-07-20T17:18:45Z</time>
      </trkpt>
      <trkpt lat="45.72701" lon="6.52527">
        <ele>750</ele>
        <time>2025-07-20T17:18:48Z</time>
      </trkpt>
      <trkpt lat="45.72701" lon="6.52543">
        <ele>749</ele>
        <time>2025-07-20T17:18:50Z</time>
      </trkpt>
      <trkpt lat="45.727" lon="6.52555">
        <ele>747</ele>
        <time>2025-07-20T17:18:51Z</time>
      </trkpt>
      <trkpt lat="45.72696" lon="6.52574">
        <ele>743</ele>
        <time>2025-07-20T17:18:54Z</time>
      </trkpt>
      <trkpt lat="45.7269" lon="6.52583">
        <ele>739</ele>
        <time>2025-07-20T17:18:55Z</time>
      </trkpt>
      <trkpt lat="45.72683" lon="6.52592">
        <ele>734</ele>
        <time>2025-07-20T17:18:57Z</time>
      </trkpt>
    </trkseg>
  </trk>
</gpx>